GFSSGP_con_mucape_000.txt.gz
CAPE
1639 1642 1953 2128 1259 106 130 87 170 222 314 215 41 78 207 162 103 226 326 456 421 465 600 523 1010 1040 1146 1188 1663 2012 2404 2239 2658 2245 1830 1641 2093 2428 2590 2600 2397 2309 2315 2253 2160 2023 1997 1907 1906
1820 1709 1783 1458 95 71 221 196 218 327 279 313 306 268 228 177 127 166 445 462 399 334 439 386 1237 1371 1092 1035 1651 1764 1852 1671 2002 1837 1626 1840 2080 2241 2447 2342 2264 2283 2176 2052 2024 1990 1951 1857 1939
1138 1432 1514 95 2 95 191 293 472 388 204 208 406 375 302 266 293 329 506 494 514 610 478 862 1244 1270 1183 1152 1595 2116 2032 2022 2156 1777 1740 1744 1932 2384 2397 2173 2139 2088 2037 1985 1860 1734 1812 1932 2047
1259 1172 1096 60 0 0 111 427 623 538 365 264 275 382 390 348 417 528 610 599 633 815 850 646 988 1242 1196 1533 1744 1878 2034 2079 2163 1881 1776 1942 2271 2123 1985 1976 2093 2008 1990 1982 1943 1910 1885 1865 2115
965 443 37 7 0 0 23 432 577 521 443 268 236 313 410 599 527 672 832 849 904 927 1092 842 1651 1753 1580 1642 1896 2367 1911 2038 2160 2183 2018 2207 1960 2009 2000 2217 2141 1948 1851 1912 1848 1967 2041 2095 2239
531 115 80 30 0 5 51 394 526 591 619 456 333 580 667 605 682 952 1076 959 991 1139 1031 1440 1852 2076 2074 2065 2229 2494 2141 2221 2359 2205 2128 2131 2035 2130 2171 2106 1931 1868 1833 1801 1961 2080 2021 2023 2101
273 100 87 81 11 7 42 189 347 596 709 407 360 690 865 568 942 1234 1294 1202 1109 1193 1212 1562 1523 2106 2351 2385 2417 2475 2236 2096 1964 2140 2275 2156 2178 2108 2292 2107 1924 1900 2000 2159 2139 1950 1704 1908 1919
275 90 51 79 91 22 20 146 296 234 608 415 374 582 816 607 944 1192 1254 1107 1176 1423 1665 1898 2004 2028 1974 2069 2494 2429 2103 1600 1778 2145 2165 2215 2237 2122 1842 2013 2005 1924 1800 1854 2018 1901 1866 1928 1851
202 143 68 69 111 118 155 185 408 389 629 550 546 379 494 448 769 1071 1308 1070 1429 1464 1645 1820 1966 2067 2180 1629 1784 1964 1754 1842 1922 2136 2226 1838 1455 1640 1492 1734 1781 1986 1807 1697 1911 1919 1991 1693 1626
81 181 86 29 71 205 208 209 589 655 609 529 734 495 413 442 806 997 1274 1542 1491 1589 1595 1521 1756 1935 1997 1617 2041 2000 1480 1198 1130 1129 1380 1293 1538 1829 1406 1645 1835 1850 1773 1750 1841 1646 1576 1738 1136
0 110 69 38 31 194 238 281 523 314 504 402 747 718 520 519 789 936 1082 1279 1318 1530 1613 1788 1627 1998 1930 1912 1855 1823 1571 1418 1477 1844 1775 1386 1544 1553 1805 1682 1548 1287 1389 1762 1632 1508 1267 1472 1259
0 0 1 29 48 206 294 359 407 295 197 293 518 764 686 702 685 797 960 1122 1187 1300 1355 1483 1681 1842 1861 3152 1798 1677 1468 1435 1312 1358 1863 1863 1696 1752 1989 1723 1765 1928 1462 1585 1556 1262 1465 1450 1176
0 0 0 0 11 83 344 402 369 413 351 395 673 903 739 776 663 724 759 925 1048 1271 1354 1414 1678 2051 2169 2318 1622 1574 1488 1333 1176 1171 1587 1496 1377 2022 1892 1738 1785 1651 1542 1342 1341 1392 1438 1409 1053
0 0 0 0 0 124 445 543 529 450 281 794 886 1037 857 835 814 872 792 877 1021 1127 1258 1466 1673 2029 2132 2134 1995 1734 1579 1393 1349 1112 1126 1680 1482 2080 1572 1533 1372 1464 1529 1232 1288 1561 1521 1236 824
0 0 4 1 70 302 391 663 611 544 619 1110 1090 1079 989 939 980 1012 951 962 1091 1192 1221 1537 1948 2135 2542 2576 2312 2124 1693 1493 1386 1278 1671 1786 1984 1887 1612 1548 1412 1436 1548 1827 1521 1474 1215 759 520
0 0 18 81 196 365 444 240 545 702 870 1234 1167 1165 1016 1001 988 1056 1079 1095 1116 1277 1485 1609 1543 1807 2307 2318 2146 1935 1554 1558 1557 1326 1595 2072 1979 1956 1864 1675 1403 1260 1358 1453 1330 1193 758 528 383
0 1 9 218 249 512 515 202 559 765 905 1053 1141 958 983 1082 1149 1257 1193 1120 1127 1489 1782 1854 1745 1598 1888 2231 2119 2049 1904 2383 2338 2311 1866 1749 1853 1639 1817 1520 1445 1603 1338 1504 1139 835 614 328 136
2 1 27 37 281 427 471 251 630 802 799 750 1176 979 908 938 1065 1219 1229 1232 1365 1634 1966 2079 1890 1936 2278 3117 2985 2311 2203 1954 1689 1802 2398 2124 2307 1762 1913 1639 1484 1458 1528 1139 938 842 367 433 129
3 28 43 38 229 364 281 240 337 878 812 767 1005 1146 976 819 905 1102 1374 1495 1585 1791 2214 2531 2404 2499 2770 2717 1700 1770 1565 1692 2022 1698 2403 2264 2110 2002 1944 1498 1625 1543 1471 929 599 316 201 15 78
0 4 39 87 159 228 177 239 269 416 901 715 722 1066 1287 1029 882 1244 1506 1465 1519 1897 2353 2709 2797 2764 2850 2203 2455 2011 2302 1637 1853 2000 2133 2225 2172 2225 1957 1896 1695 1598 507 746 340 213 46 23 48
0 0 24 94 158 209 150 246 192 152 598 698 621 653 1103 1197 1003 1109 1289 1478 1509 1799 2391 2711 3051 3125 3074 2937 2392 2563 2432 2432 2066 2162 2422 2735 2589 2518 2404 2224 1528 1357 371 3 156 126 31 14 338
0 0 7 56 108 139 181 151 67 128 476 643 817 698 612 1136 1145 1134 1116 1339 1441 1650 2042 2751 3175 3423 3242 3210 2972 3586 2291 1787 1374 1730 1392 2066 2650 2451 2323 2147 1652 429 1 60 119 26 55 193 27
0 0 0 9 88 123 154 160 53 74 114 449 813 839 584 463 917 1095 1105 1068 1384 1511 1821 2351 3201 3734 3739 3377 3616 3150 3030 1792 1436 1512 1999 2359 2313 2490 1703 2200 875 346 126 314 151 61 140 62 28
0 0 0 13 40 92 101 76 6 15 80 69 273 681 752 388 429 785 935 975 1190 1371 1620 1952 3177 4089 3741 3649 3587 3540 2895 2635 1537 2020 1643 1139 1138 1795 1916 2061 936 294 48 281 172 34 99 86 61
0 0 6 28 38 45 65 64 1 1 2 13 8 165 748 540 399 540 828 969 1161 1369 1554 1877 2763 3653 3554 3555 3414 3484 3487 3195 2942 2632 1877 1083 763 807 1413 2095 1016 327 414 216 40 62 22 65 45
0 0 6 0 0 25 11 7 0 7 12 0 0 44 469 703 377 468 697 911 1221 1316 1583 1885 2503 3566 3371 3320 3724 4274 4043 3270 3059 2946 1892 1295 795 386 610 1821 857 436 298 231 33 2 10 29 36
0 0 0 26 39 22 1 1 0 0 15 0 32 91 204 637 576 359 633 864 1136 1381 1895 2553 3278 3059 3142 3067 3414 3770 3982 3634 2993 2841 2783 1785 1467 432 1064 1139 729 271 366 93 45 2 9 8 12
0 0 0 2 67 0 4 12 0 7 0 0 25 115 236 573 662 418 549 774 1043 1312 1606 2027 2541 3149 2886 2865 3048 3152 3331 3535 3331 3158 3231 2256 1888 1403 918 741 323 286 244 94 143 25 11 10 0
0 0 0 1 4 12 22 1 0 0 0 0 3 124 159 448 762 705 518 618 1031 1135 1396 1873 2296 2623 2859 2836 3425 3246 2941 3050 3370 3304 3428 3017 2210 1396 947 789 263 277 232 175 235 186 9 22 4
0 0 0 2 1 10 9 0 0 0 0 0 0 8 10 260 733 909 808 791 912 1251 1216 1541 1939 2382 2695 3304 3540 2997 2913 2889 3140 3390 3058 2317 1729 973 1038 534 397 305 173 196 298 185 10 24 0

GFSSGP_con_mucape_003.txt.gz
CAPE
1258 1351 1616 1587 717 70 74 233 47 164 408 258 173 310 118 19 237 551 241 462 340 227 202 470 1172 1270 1667 2389 2398 2320 2108 2223 2570 2561 2692 2485 2495 3201 2938 2315 2224 2232 2167 2059 2000 1945 1841 1807 1708
1425 1809 2408 2067 693 125 52 130 143 288 199 291 309 241 167 216 310 387 439 219 304 165 216 458 1700 1227 1435 1783 1951 1988 1683 1725 2072 2243 2118 2204 2321 2564 2241 2128 2079 2037 2086 1988 1852 1788 1846 1920 1940
2100 1795 1697 1381 57 62 197 284 376 312 285 351 345 351 364 51 391 534 516 418 211 406 650 830 1465 1427 1495 1818 2078 2298 2095 1784 1746 1847 1734 1740 2126 2298 1986 1937 1938 2017 2064 1900 1749 1852 1887 1937 2157
1636 1375 1322 61 8 107 357 304 275 239 257 313 474 463 366 230 319 393 437 477 613 849 801 1096 1351 1475 1615 2061 2603 2298 2077 2235 2020 1759 1689 1953 2180 1942 1766 1982 1943 1894 1951 1913 1896 1877 1914 1941 2133
1412 1027 743 9 1 39 336 336 289 272 319 386 535 654 527 624 623 550 548 483 689 1019 744 941 2012 1912 1820 2067 2218 2279 2064 2144 2096 1953 1916 2160 2009 1914 1992 2058 1812 1720 1810 1842 1935 2028 2060 1892 2091
881 204 58 40 0 4 122 303 291 359 387 329 671 631 872 799 777 761 725 703 752 987 873 1031 1674 1812 1993 2113 2228 2064 2045 2078 2339 2166 2121 2049 2011 1996 2055 1851 1757 1734 1779 1843 1904 1704 1674 1840 1905
803 412 42 42 3 2 17 82 160 207 395 408 712 979 927 910 961 828 1064 961 807 1157 1107 1520 1555 1985 2277 2412 2094 2225 2194 2259 2071 2201 2168 2042 2021 1932 2068 1777 1435 1731 1967 2000 1995 1774 1675 1878 1870
262 38 72 178 27 0 0 38 6 107 380 380 706 989 977 1155 1073 1302 1072 1009 792 1289 1272 1572 1746 1767 1843 2056 2246 2225 2153 1818 1776 2100 1972 1845 1930 1852 1369 1375 1763 1723 1603 1710 1897 1721 1819 1706 1738
0 60 137 61 74 4 0 5 1 159 190 225 395 723 899 1052 1138 1271 1223 986 1105 1455 1596 1491 1550 1823 2246 2289 2502 2400 1840 1415 1769 1846 1848 1706 1436 1669 1879 2081 1612 1831 1839 1692 1752 1748 1730 1650 1773
8 92 62 33 79 50 10 11 12 62 135 267 359 760 927 1069 1080 1192 1311 1487 1401 1443 1403 1402 1830 1893 1819 1254 2111 1592 1047 1003 1047 1008 1171 1419 1673 2259 1428 1860 1954 1750 1811 1636 1742 1693 1754 1924 1621
9 161 76 48 46 61 19 29 16 77 94 252 424 633 796 1046 1080 1153 1185 1317 1066 1049 1150 1624 2238 2090 2310 2252 1590 1616 1474 1322 1198 1396 1680 1339 1517 1951 1784 2250 2198 2292 1744 2182 1874 1848 1708 1275 1173
0 43 33 94 6 139 44 45 29 7 74 122 410 428 647 961 1075 1075 1185 1214 1224 1270 1148 1429 2034 2350 2035 2278 1579 1385 1204 1065 1120 1384 1838 1978 1732 2405 1669 2163 2516 2158 1857 1585 2038 1818 1366 1372 1381
0 19 25 8 9 56 142 53 17 9 3 107 467 407 547 818 987 1056 1017 1039 1127 1212 1331 1374 1579 1847 2043 2510 1269 1230 1191 977 1027 1152 1575 1614 1348 2434 2262 1800 1559 1709 2227 2047 1435 1345 1305 1220 1341
3 10 5 4 18 14 151 53 49 11 14 221 599 540 554 662 836 990 1023 1050 1057 1115 1186 1202 1632 2044 2193 2499 2128 1662 1373 1681 1000 1053 1067 1763 1756 2325 1752 2861 2206 1995 2027 2238 1099 1721 1471 1562 1066
0 0 2 0 4 5 19 40 0 12 169 281 601 696 560 616 666 853 914 1044 1065 1175 1246 1320 1460 1886 2204 2331 2274 1703 1434 1083 1406 960 1268 1402 1713 1711 2158 2351 1889 1461 1613 1861 1736 1874 1596 1088 88
0 0 24 63 3 7 8 118 143 145 114 237 500 793 672 625 590 758 820 855 1007 1115 1277 1371 1315 1521 2169 2453 2402 2132 1567 2172 1517 1683 1663 1828 1969 2174 2268 1780 1533 2182 1421 2122 1488 1303 760 87 34
0 0 7 24 10 82 37 127 271 365 110 219 393 682 779 727 718 837 804 812 879 1173 1406 1536 1640 1573 2049 3327 2539 2091 2630 2178 2144 2118 2116 2750 2189 2374 2256 1875 1920 2196 1725 1372 1222 1060 892 11 20
9 10 77 178 13 165 56 176 430 409 370 24 180 327 676 677 722 831 887 857 919 1090 1440 1780 1725 2277 2307 3640 3342 2736 1767 1900 2028 2018 1970 2167 2088 2360 2320 1788 1863 1737 2028 1164 1049 783 76 25 75
14 61 44 46 27 81 174 145 266 455 413 257 90 131 400 572 718 761 948 943 924 1107 1546 2155 2546 3669 2715 2157 2656 2243 1745 1969 1740 1475 2738 2717 2363 2288 2191 2070 2331 1508 1929 1386 394 146 27 27 62
0 24 66 46 42 29 114 203 222 773 536 380 231 123 153 337 489 780 998 1012 939 1304 1888 2892 3182 3927 3341 2353 2828 2629 2276 1535 1328 1319 2334 2256 2843 2684 2137 2846 1546 1430 1316 961 362 131 0 26 124
0 8 43 71 145 115 134 130 155 214 668 588 305 263 198 200 229 690 891 1063 1124 1521 2272 3227 4144 4352 3957 3775 2998 3071 2752 2206 2411 1826 2020 2385 2435 2398 2423 2204 2218 2001 907 0 281 46 9 5 290
0 0 16 66 49 131 41 171 162 120 206 640 609 432 305 255 287 450 931 1195 1160 1567 1901 3340 4289 4423 4328 4312 3119 3649 2151 1484 924 1173 1152 2037 2721 2501 2364 2383 1662 1586 152 465 38 16 26 73 29
0 0 15 46 140 135 72 117 99 59 133 259 619 618 433 268 388 452 794 1112 1136 1321 1658 2658 4348 4651 4548 4309 3888 2512 2768 1362 1312 885 3074 1768 3025 1927 1486 1417 1842 1045 68 171 93 2 84 158 12
0 0 18 40 83 112 156 117 214 52 116 170 284 633 712 550 375 750 677 918 1084 1248 1532 2456 4356 4776 4841 4501 4093 4090 3861 3036 1431 1550 1805 1602 1242 1772 1410 1122 1772 887 12 112 114 33 91 106 118
0 0 8 44 66 42 89 152 204 221 70 73 75 124 557 823 510 622 989 1003 1331 1802 2123 2640 4183 4853 4790 4193 4376 4227 3909 4169 3324 2723 2042 1594 680 861 2417 1622 2173 933 323 166 98 146 170 65 66
0 0 0 14 39 41 50 66 86 95 41 55 69 33 122 644 747 418 783 1276 1846 1819 2627 2859 3753 4680 4831 4568 4725 4750 4714 2860 2494 2989 2162 1363 964 741 1571 1665 1642 1141 273 287 234 27 1 306 33
0 0 0 24 67 57 53 54 23 32 75 62 28 9 27 285 679 609 494 861 1530 1655 2436 2919 3787 4357 4577 3631 4870 4859 4729 4552 2696 3704 3685 2136 2437 846 521 1240 1729 1320 579 426 399 39 510 35 9
0 0 0 7 74 71 75 68 62 53 8 5 31 14 12 51 657 662 485 625 1252 1245 1881 2780 3557 4249 4017 4185 4459 4275 4420 4611 4279 4372 4080 3445 2808 1857 1860 1267 1324 1102 937 982 915 506 528 343 16
0 0 0 1 29 37 70 74 53 59 38 0 3 5 37 58 491 786 567 551 845 918 1472 1980 2745 3842 4045 4184 4125 4303 3928 4058 4307 4090 3913 3729 2947 2798 2110 2168 1628 974 740 395 475 363 153 730 774
0 0 0 25 35 21 72 71 29 8 3 4 14 18 31 77 290 652 726 522 650 1262 1077 1293 1712 2069 3138 3961 4437 4421 4420 4100 3974 4155 4101 3984 3537 2901 2194 1975 1412 665 606 624 678 274 108 234 103

GFSSGP_con_mucape_006.txt.gz
CAPE
868 819 997 1359 565 91 202 57 207 158 168 187 73 63 205 395 360 172 379 274 244 144 187 636 1630 1883 1919 2278 2501 2791 2762 2755 2946 2999 3110 3202 3270 3092 2971 2912 2829 2772 2585 2055 1941 1874 1862 1677 1405
639 1200 1611 214 90 102 283 117 157 232 195 301 195 59 116 332 161 104 367 330 164 119 146 351 1758 2152 2256 2330 2423 2454 2371 2478 2684 2763 2836 3101 3147 2874 2639 2329 2168 2182 2280 1916 1786 1836 1858 1949 1662
968 1494 1661 1056 255 125 168 53 278 300 182 216 141 266 125 545 239 292 229 286 93 263 466 649 1944 2030 2323 2352 2474 2409 2331 2371 2579 2617 2568 2922 2858 2631 2464 2062 1891 1915 1901 1836 1837 1832 1735 1854 1963
1452 1769 1705 1348 274 104 254 276 132 126 428 325 378 180 223 258 441 172 281 257 338 693 625 1352 1943 1734 2260 2453 2621 2402 2500 2445 2482 2313 2503 2712 2525 2146 1902 1822 1652 1683 1711 1724 1834 1863 1859 1840 2000
1944 1280 847 556 103 356 290 253 199 101 355 326 165 147 277 476 308 304 354 403 733 589 686 837 2169 2283 2247 2457 2611 2184 2145 2314 2458 2384 2428 2350 2124 1824 1925 1640 1503 1530 1675 1662 1796 1623 1762 1674 1932
138 760 475 7 0 37 107 327 220 143 432 322 364 450 492 283 300 525 451 527 720 464 734 900 1963 2214 2278 2507 2836 2566 2394 2121 2364 2234 2053 1957 1776 1758 1800 1436 1402 1469 1655 1772 1861 1523 1614 1716 1614
23 438 201 72 0 9 25 60 51 146 322 369 600 695 531 402 570 596 604 767 712 883 962 1145 1298 1912 2264 2655 2634 2560 2210 2189 2083 1886 1936 1797 1695 1672 1708 1431 1186 1490 1626 1672 1809 1459 1532 1641 1559
224 467 54 26 4 0 0 27 40 32 390 324 778 553 636 606 821 865 772 828 1021 823 1134 1682 1747 1517 1918 1874 2654 2076 2061 1822 1888 1963 1844 1615 1589 1684 1827 1607 1816 1569 1375 1549 1712 1460 1473 1401 1572
107 21 107 29 7 0 0 0 50 216 167 619 547 494 713 924 1027 915 925 950 871 1075 1313 1280 1378 2023 2448 2098 1955 2240 1844 1492 1778 1728 1824 2020 1316 1443 1713 2212 2169 1644 1763 1585 1608 1461 1449 1459 1769
55 71 28 2 14 0 0 0 0 0 14 228 548 604 655 1065 949 960 953 871 1174 937 1379 1140 1308 2054 2010 1341 2445 2455 1385 1022 1411 1433 1820 1548 1120 1992 2147 2071 1657 1884 2072 1422 1625 1655 1536 2104 1890
11 3 16 35 13 1 3 0 0 0 2 108 833 753 659 954 1295 1102 1115 934 1049 1122 1063 1219 1734 2279 2159 2218 2129 1709 1440 1485 1625 2767 2219 2300 2111 1347 912 1235 349 1602 1572 1226 1614 1824 1674 1675 1436
13 4 18 5 19 44 2 9 1 7 22 93 648 899 771 847 930 850 919 828 1137 1422 1785 2133 2193 2665 2643 2503 2232 2252 1769 1624 1629 1899 2838 3243 2985 2457 870 1049 953 1510 984 1262 1525 1667 1540 1392 1563
0 34 16 18 0 16 8 8 11 10 33 55 208 701 847 770 730 887 773 1016 1080 832 1828 1929 2424 3099 3259 3260 2078 1831 2021 1488 1292 2429 2663 2135 2600 2251 977 2858 2698 2856 2380 1869 2276 1810 1778 2134 1824
1 2 3 15 2 4 97 38 0 2 10 6 128 386 703 793 724 930 818 956 1197 1129 1229 1733 2550 3115 2569 3155 3689 3298 2870 1389 2192 1283 2623 3007 3119 3069 1374 2277 1937 2197 1871 2697 2175 2489 2283 1734 1359
0 2 2 0 0 13 2 40 13 0 0 40 127 205 434 661 867 980 813 1016 1208 1251 1558 2033 2316 2284 2554 3269 3288 3214 2313 1317 1609 1874 2110 3071 3354 3636 3297 2688 2898 2260 2119 2646 2192 2214 998 516 573
0 0 3 0 0 0 0 92 0 4 0 0 190 154 274 442 553 996 979 939 1033 1284 1907 2025 989 2178 2339 2654 2923 2246 1803 2445 2384 2927 1304 2738 3287 3243 3224 2691 1459 593 2161 2278 1544 1445 1504 544 369
0 0 0 1 0 4 9 133 76 70 0 0 87 208 168 507 560 879 815 1106 1072 1606 2255 2090 2271 2176 2663 2679 2675 2658 2451 2652 2432 2672 2418 2167 1529 2781 2818 2748 1564 2023 2036 2192 1176 575 1204 279 504
0 0 3 23 30 8 0 65 87 43 53 13 0 106 336 208 373 704 726 860 1117 1511 2216 2284 2080 3257 2890 3110 3234 2872 2628 2019 2367 2458 2725 2028 2563 2817 2800 2767 2191 2622 2897 1428 1703 1167 847 577 289
0 3 0 0 40 1 125 100 0 93 185 4 101 64 194 377 480 676 744 844 924 1523 2131 2308 2432 3228 3537 3257 2400 2367 2110 2709 2337 2360 2182 2725 3116 2643 3012 2735 2202 1791 2602 874 1185 870 487 603 425
0 0 9 10 58 19 71 322 40 328 279 199 10 41 52 48 310 705 931 789 911 1381 1812 2696 2702 3498 3176 3090 2904 2670 2284 1942 2029 2310 2775 3096 2781 3468 2412 2629 2350 1865 1803 1803 1353 692 387 421 773
0 0 0 3 16 14 22 60 260 320 184 122 94 39 19 86 79 765 917 912 1044 1416 2089 2491 3095 3247 3180 3051 3039 3215 2761 2473 2362 2815 2778 3241 3310 3213 1726 2535 2687 2426 1634 1276 1400 839 358 291 1161
0 0 0 0 22 23 26 0 339 88 581 197 139 82 63 64 162 453 958 1203 1177 1422 1926 2789 3242 3436 3580 2927 3032 2715 2233 2400 2504 2879 2277 2936 3160 3074 3032 3101 2939 2629 1322 1729 1204 688 284 829 419
0 0 0 0 0 56 161 86 86 367 409 643 358 256 188 206 108 216 910 1131 1231 1467 2076 2571 3479 3627 3618 3560 3176 2982 2804 2107 2066 1694 3635 3220 3494 2942 2578 2841 2833 2224 1435 1645 765 617 416 839 564
0 0 0 0 0 16 47 24 63 183 94 54 402 501 415 382 319 373 773 1091 1319 1469 2169 2273 3739 3966 3886 3902 3299 3539 2497 2534 1952 2802 2927 2631 2498 2818 2939 2353 2445 2115 1156 1341 852 807 960 590 665
0 0 0 0 12 5 25 61 192 212 122 69 2 163 657 662 545 530 722 1134 1445 1606 1942 2512 3463 3935 4050 4091 3577 3423 3461 3116 3558 3879 2898 2550 1715 2095 2351 2594 2419 1682 1294 1423 1147 1131 1162 757 604
0 0 0 0 1 3 12 20 81 236 112 79 15 23 490 774 671 634 888 1056 1548 1595 2012 2438 3332 3806 4184 3958 3965 3713 3378 3041 3075 3519 2535 2563 1706 1884 1771 2166 2473 2308 1100 1049 1057 827 535 713 601
0 0 0 0 0 7 17 43 12 78 176 11 0 58 112 663 777 715 1010 1144 1578 1626 1945 2409 3423 3903 4210 4212 4173 4235 3723 3384 3006 3232 3227 2786 2354 2348 2193 1935 2350 1813 1382 1167 1344 404 571 608 993
0 0 0 0 2 18 12 53 122 137 294 130 74 39 51 91 852 923 834 1398 1569 1751 1851 2532 2946 3889 4278 4214 4215 4210 4212 3704 3381 3100 3417 2363 2513 2479 1646 2117 1674 1848 1118 1331 1217 596 852 674 558
0 0 0 0 0 7 30 29 124 487 522 390 123 37 24 54 685 700 968 1039 1662 1891 1912 2231 2631 3666 4130 4219 4151 4187 4142 4000 3651 4123 3839 2831 3090 2119 2152 1671 1845 1708 1300 1257 940 681 580 623 679
0 0 0 0 0 0 0 5 19 252 273 59 56 35 43 55 185 609 1099 950 1348 1643 1753 2144 2602 3233 3768 3972 4103 4089 4113 4125 4006 3507 3875 3197 3542 2541 2003 2129 1907 1700 887 1112 800 509 159 734 684

GFSSGP_con_mucape_009.txt.gz
CAPE
684 610 380 616 232 56 99 79 164 96 90 52 63 219 222 168 65 1 33 53 45 140 443 711 1560 1829 2075 2243 2821 2732 2902 2985 3221 3191 3202 3130 2626 2743 2895 2464 2386 2499 2414 1870 1838 1818 1670 1426 1335
491 498 205 0 93 5 99 25 73 224 67 15 96 177 158 55 16 17 90 100 64 163 464 799 1818 2085 2303 2403 2756 2561 2439 2317 2978 3071 3157 3045 2723 2865 2590 2032 2064 2197 2196 1780 1730 1723 1930 1774 1436
560 854 472 182 48 0 6 90 203 319 236 173 87 89 237 65 80 96 85 53 21 110 320 971 2217 2105 2436 2545 2649 2600 2553 2453 2794 2892 3129 2961 2651 2406 2041 1924 1919 1893 1868 1788 1735 1718 1754 1933 1645
608 667 176 397 185 164 70 182 195 335 277 203 178 296 66 174 241 136 166 18 122 251 651 1822 2327 2303 2244 2544 2646 2376 2409 2548 2634 2674 3033 2712 2504 1921 1842 1699 1682 1673 1682 1798 1781 1903 1698 1703 1927
989 753 629 494 260 158 144 173 328 304 360 284 283 227 213 69 80 173 87 463 358 426 840 1439 2224 2396 2465 2660 2575 2622 2263 2224 2552 2750 2769 2698 2560 2232 1838 1538 1473 1566 1621 1922 1783 1488 1679 1587 1769
40 154 489 98 285 168 107 161 293 171 223 298 294 309 193 114 152 174 335 455 457 474 737 1278 2180 2416 2604 2318 2094 2503 2446 2249 2708 2730 2634 2601 2585 2607 2240 1764 1805 1534 1713 1701 1729 1451 1612 1646 1593
52 45 196 18 18 152 253 207 338 253 391 372 391 219 173 190 187 330 593 548 377 540 721 1169 1383 1700 2187 2774 2481 2403 2722 2619 2637 2739 2601 2464 2414 2406 1939 1658 1534 1571 1531 1719 1717 1369 1506 1633 1608
446 195 72 15 45 14 99 55 220 276 529 467 328 234 242 290 370 390 584 541 663 729 853 1098 1425 1543 1723 2041 2463 2039 2251 2255 2083 2254 2222 2360 2085 1738 1782 2091 1577 1365 1342 1537 1632 1415 1461 1500 1768
180 165 33 35 46 1 37 199 384 403 542 508 447 358 519 442 458 549 633 602 787 841 901 930 1280 1506 1677 1679 1821 2342 2078 2006 2114 2178 2495 2049 1343 1183 1471 1430 1888 1466 1522 1377 1486 1645 1829 1971 2085
6 37 15 8 14 6 12 261 273 607 635 453 629 613 622 715 600 584 689 705 747 923 1066 1076 1108 1252 1225 1526 1778 1641 1343 1265 1485 1460 1353 1359 1014 857 1561 1263 615 1502 1753 1489 1794 2090 1995 2175 1556
5 3 17 24 3 3 9 0 0 351 520 415 542 725 719 761 699 676 722 741 808 1010 1003 999 1266 1374 1195 1078 1491 1558 1190 780 912 980 1030 955 1189 792 555 294 101 415 1194 922 914 1434 1391 1320 510
0 1 1 11 31 28 5 0 0 0 421 509 629 890 861 755 702 604 654 654 897 920 834 1023 1354 1081 1507 1367 1389 1415 844 674 799 1321 1003 1583 1312 748 573 54 558 678 602 1152 632 760 1196 956 969
0 1 2 26 52 80 43 1 0 4 649 687 580 709 860 802 677 550 484 695 758 660 999 1028 1077 1665 1443 1307 1188 1092 982 969 906 1291 1406 1010 1356 900 452 667 688 858 833 919 751 1151 1091 1103 1021
0 0 37 18 3 100 78 13 12 75 780 798 715 527 799 865 844 709 499 602 644 1177 1316 1342 1663 1707 1379 1756 1808 1297 1360 1088 1078 1465 1272 1302 1484 1071 1002 1098 927 1250 1402 1449 1221 1014 738 504 351
0 0 0 5 1 15 111 0 0 37 225 755 739 670 600 741 869 643 600 474 826 1090 1468 1535 1723 1723 1524 1915 1816 1863 1685 723 776 986 1776 1637 1203 1174 1671 1407 981 1351 1345 1494 810 777 314 49 93
0 0 0 0 0 0 45 15 41 4 121 411 524 666 674 642 585 623 446 657 517 991 1347 1498 1787 1465 1568 1791 1851 1840 1243 1379 1048 1613 1498 1632 1551 1860 1670 1284 1298 827 1128 998 878 798 513 311 0
0 0 0 0 0 0 4 4 6 1 89 104 267 313 521 627 634 645 471 514 608 820 1253 1611 1439 1276 1414 1402 1571 1682 847 1341 1178 1321 1449 1770 1846 1745 1173 1404 1084 886 1139 945 613 514 339 34 0
0 0 0 0 0 7 2 4 3 0 7 87 90 63 176 367 527 658 532 592 753 1002 1173 1225 1321 1378 1192 1395 1632 1665 1297 1559 1792 1691 1214 924 1018 1182 1227 1240 1305 1176 1035 519 430 223 9 0 0
0 0 0 0 10 13 35 9 21 17 0 0 103 18 66 117 155 565 621 576 739 1311 1210 1105 1221 1663 1494 1458 1644 1626 1728 1690 1275 1114 1637 1295 1307 1418 1366 1310 1348 1466 1028 517 467 68 0 0 3
0 0 0 0 7 19 39 47 0 0 0 0 31 63 41 88 86 324 453 527 695 1044 1143 1080 864 2098 1669 1776 1675 1508 1614 1383 1367 1319 1235 1207 1789 1609 1432 1341 1321 1154 1135 547 268 13 0 0 0
0 0 0 0 0 15 74 49 42 7 17 39 21 20 64 82 112 187 267 385 451 795 1317 1247 1014 1626 2041 1976 1653 1780 1439 1485 1459 1502 1802 1863 1893 1747 1362 1455 1163 995 809 529 275 0 0 0 0
0 0 0 0 0 1 54 33 24 43 305 176 60 25 15 92 128 156 275 339 386 833 1048 1305 1419 1729 1827 1945 1770 1839 1557 1281 1288 1464 1296 1633 2145 2001 1193 1216 1385 1041 441 175 28 48 1 39 0
0 0 0 0 0 31 0 2 1 127 55 3 67 26 3 0 65 172 385 333 434 598 1001 1657 1586 1566 1998 1778 1813 1569 1353 1103 1313 1611 1386 1772 2240 1859 1597 1653 1610 1126 463 108 82 18 0 110 7
0 0 0 0 0 0 2 0 0 49 17 20 72 95 21 16 12 184 331 461 416 796 1181 1479 1967 2017 2216 1767 2098 1823 1652 1534 1242 1022 1667 1828 1692 1492 1909 1461 1369 974 567 69 46 60 15 91 86
0 0 0 0 0 0 0 1 0 48 53 51 144 223 68 30 63 57 343 555 538 861 1050 1778 1987 2101 2332 2158 1634 2233 1804 1630 1275 1027 1726 1725 1447 1899 1769 1637 1246 801 339 134 49 61 111 56 59
0 0 0 0 0 0 0 0 0 12 55 92 240 279 121 117 82 90 353 503 705 760 1272 1749 2161 2087 2526 2478 2457 1752 2223 1497 1174 1733 1735 1511 1405 1611 1415 1214 894 688 379 372 301 102 108 75 6
0 0 0 0 0 0 0 0 0 1 28 96 67 201 178 41 153 182 190 461 708 775 1504 1543 2482 2521 2607 2796 2684 2294 2059 2032 1754 1867 2087 1671 1459 1708 1292 1303 1124 875 718 280 244 135 16 269 94
0 0 0 0 0 0 0 0 0 0 25 61 59 63 53 6 49 186 233 462 717 851 1296 1638 2216 2696 2893 2567 2966 2650 2392 1820 1781 1942 1923 2262 1219 1280 1222 1362 1421 1245 799 315 231 132 117 44 89
0 0 0 0 0 0 0 0 0 0 36 148 90 41 53 25 73 255 250 423 823 986 1254 1604 2169 2750 2977 3073 2949 2832 2704 2297 1945 2330 1980 1980 1595 1411 1146 1050 1717 1291 827 349 374 104 37 180 5
0 0 0 0 0 0 0 0 0 0 132 181 151 86 48 5 46 222 364 484 978 1144 1124 1575 2623 2755 3040 3196 3122 3055 3011 2816 2433 2034 2308 2154 1691 1570 1362 1331 1043 1453 1037 604 436 213 124 39 116

GFSSGP_con_mucape_012.txt.gz
CAPE
511 545 304 394 132 149 48 93 158 141 99 86 130 232 28 92 1 0 0 0 0 16 207 650 1411 2048 2353 2866 2674 2749 2503 2551 3036 2964 2456 2158 2168 2287 2312 2123 2116 2035 1867 1860 1927 1770 1546 1466 1395
671 364 310 18 96 15 91 84 77 163 142 187 189 89 35 12 1 0 8 0 65 142 325 670 1599 2223 2390 2609 2730 2825 2541 2461 3148 2922 2500 2240 2204 2249 2051 2052 2002 1878 1844 1795 1769 1899 1929 1646 1424
463 174 210 367 65 2 89 63 193 115 147 55 179 118 12 24 12 13 16 52 197 313 544 878 1705 2248 2375 2331 2591 2726 2675 2436 2907 2476 1991 1955 1944 1978 1903 1858 1851 1882 1844 1824 1803 1795 1752 1873 1579
96 2 37 708 160 96 186 299 493 277 192 220 114 9 63 61 72 69 81 33 160 404 738 1648 2167 1906 2232 2350 2517 2183 2181 2133 2601 2662 2037 1893 1938 1821 1713 1727 1744 1774 1838 1790 1770 1773 1651 1716 1896
98 261 255 355 249 186 292 39 392 386 331 243 27 96 87 92 88 85 30 42 195 476 826 1459 2199 2533 2531 2594 2286 2311 1995 1890 2504 2709 1952 1843 1927 1712 1592 1541 1640 1725 1677 1754 1584 1533 1647 1588 1754
574 271 340 93 122 195 319 266 415 355 335 261 178 82 38 106 132 71 78 147 367 712 1021 1337 2063 2192 2651 2184 1884 2053 1799 1809 2405 2537 2231 2070 2038 1901 1605 1535 1524 1632 1812 1811 1568 1481 1669 1753 1654
108 93 94 8 137 223 380 421 283 366 318 324 206 84 119 154 171 216 282 361 460 802 1077 1153 1186 1191 1851 2571 1971 1981 1897 1867 2020 2070 2279 2415 2019 1918 1528 1398 1477 1559 1581 1766 1688 1449 1559 1650 1609
415 66 9 0 23 187 292 270 330 389 468 334 199 184 194 212 157 375 448 439 419 691 1135 1366 1359 1143 1705 1922 2017 2170 2232 2015 1973 2030 1898 1905 1805 1739 1627 1726 1322 1396 1356 1581 1661 1479 1554 1681 1635
599 89 1 0 14 160 314 357 382 493 377 291 424 218 162 167 318 457 462 435 513 706 1039 1318 1467 1527 1841 1977 1727 2191 2140 2130 2014 1921 2008 2371 1403 1340 1410 1631 1406 1569 1681 1396 1492 1485 1715 2169 2019
621 42 13 51 30 86 215 341 545 432 346 389 363 276 195 335 432 499 512 506 631 671 765 1188 1461 1471 1711 1756 1471 1757 1581 1660 1833 1819 1642 1614 937 777 1610 1323 759 708 1654 1603 1824 1874 1855 2066 1359
18 4 5 26 40 187 379 493 551 397 435 286 417 310 367 360 396 494 535 652 699 675 802 963 1163 1272 1411 1361 1467 1541 1265 1252 1429 1296 974 1034 773 781 854 246 104 233 765 561 690 916 1142 1312 530
0 0 3 27 32 80 327 474 707 526 468 421 464 400 399 423 473 537 555 684 738 843 918 870 945 1107 1007 1024 1534 1247 1023 679 755 775 782 1035 767 618 329 109 387 480 732 533 785 659 987 1091 694
0 0 0 7 60 11 51 418 689 565 582 599 555 577 569 450 454 503 569 590 862 941 937 848 992 1076 933 958 1024 1055 797 502 433 561 801 1094 1018 723 327 373 512 631 624 606 845 782 1035 934 571
0 0 0 0 17 73 21 32 152 518 689 735 630 632 690 571 546 466 551 650 744 979 951 965 1049 971 1030 1289 890 943 804 562 497 690 1012 1080 884 774 496 476 721 904 872 792 924 864 542 206 38
0 0 0 0 0 21 12 67 632 672 679 802 766 721 699 644 556 444 491 568 746 774 816 964 1075 1034 1187 1327 781 948 1076 983 977 884 1100 1113 1114 850 821 936 779 996 967 1128 728 498 244 57 14
0 0 0 0 0 1 48 97 744 721 736 860 900 908 820 793 654 627 441 436 696 727 820 873 1086 1290 1309 1111 1455 1482 1430 1034 1055 918 1096 1228 1099 967 1275 1173 1178 949 654 912 702 620 451 201 18
0 0 0 0 0 14 39 31 325 724 690 661 718 887 865 884 829 797 575 475 628 904 1023 947 991 1197 1200 1079 1672 1429 1234 905 838 1203 1331 1179 1151 1360 1245 931 947 823 799 699 601 527 252 59 0
0 0 0 0 0 5 30 9 5 779 729 679 617 521 630 764 890 868 629 388 588 975 1148 1169 1180 971 1087 1118 1422 1162 1127 794 1142 1075 1070 1380 1434 1494 1170 1100 1043 703 1010 891 434 218 16 0 0
0 0 0 0 0 0 0 12 24 339 608 646 662 591 515 557 679 613 557 452 493 791 1127 1203 1219 892 1023 1198 1170 1065 1097 997 901 1355 848 1302 1325 1215 920 964 1131 1098 1039 665 255 89 0 0 0
0 0 0 0 0 0 10 4 5 45 170 334 409 465 512 462 417 478 509 394 516 768 1069 1214 1173 905 938 958 947 1138 1152 1177 1104 1391 1065 975 903 820 1076 984 1069 1231 1014 693 347 78 0 0 0
0 0 0 0 0 1 7 37 10 0 18 60 124 167 292 280 351 390 475 399 490 710 872 911 1129 1114 1104 1119 1077 1225 1134 1110 1332 1232 1045 1138 1122 1007 1249 1265 1051 928 954 888 245 110 0 0 5
0 0 0 1 0 0 9 1 46 0 7 1 44 84 123 116 93 175 409 421 442 621 725 754 987 1370 1266 1233 1174 1161 1053 1079 1282 1131 1221 1399 1323 1279 1406 898 923 759 689 535 290 2 0 0 0
0 0 0 0 0 0 0 0 0 22 0 0 0 42 128 72 61 31 263 377 417 484 712 679 672 1539 1503 1424 1312 1221 1217 988 1008 1041 1196 1302 1606 1514 1292 1110 869 875 674 324 54 29 0 44 5
0 0 0 0 0 0 0 0 0 0 1 0 3 32 51 83 50 6 93 230 338 401 696 777 661 825 1551 1575 1497 1476 1384 1163 978 963 1058 1333 1533 1589 1461 1127 1142 1171 677 280 7 0 0 57 78
0 0 0 0 0 0 0 0 0 0 0 0 27 38 92 108 89 9 12 105 173 305 589 932 874 762 1137 1635 1603 1504 1380 1324 1046 903 1047 1406 1487 1617 1505 1337 1419 1284 807 510 69 7 1 18 45
0 0 0 0 0 0 0 0 0 0 0 8 23 24 16 113 94 41 22 86 100 246 610 941 1092 981 1198 1315 1502 1490 1434 1222 1096 961 1099 1199 1399 1630 1388 1407 1124 965 800 521 3 5 13 36 11
0 0 0 0 0 0 0 0 0 0 0 0 8 32 22 124 116 67 50 78 160 257 582 910 1342 1240 1374 1573 1274 1502 1578 1360 1263 1227 1315 1261 1325 1320 1144 1234 1364 1132 813 314 73 13 15 57 16
0 0 0 0 0 0 0 0 0 0 0 0 13 17 39 114 200 101 31 126 279 256 633 1049 1420 1454 1656 1821 1651 1450 1494 1668 1556 1390 1413 1652 1462 1285 1250 1432 1523 1139 695 417 269 67 64 35 110
0 0 0 0 0 0 0 0 0 0 0 0 11 31 36 147 225 141 99 125 310 391 810 1203 1449 1449 1754 1976 1894 1880 1672 1448 1802 1760 1538 1570 1497 1288 1285 1302 1198 831 643 628 480 127 58 4 62
0 0 0 0 0 0 0 0 0 0 0 0 0 23 207 284 207 153 158 125 291 572 953 1157 1668 1676 1772 2108 2111 2034 2070 1873 1607 1564 1575 1661 1665 1639 1385 1423 1180 881 783 815 601 236 54 32 3

GFSSGP_con_mucape_015.txt.gz
CAPE
826 574 269 254 118 39 33 104 136 26 51 96 34 3 1 30 1 0 0 0 7 33 167 352 1071 1585 2155 2266 2323 2124 1956 2130 2276 2107 2102 1982 2100 2119 2020 2033 1981 1883 1885 1929 1897 1700 1571 1439 1503
688 210 120 1 29 10 52 108 79 164 187 103 110 44 59 37 4 0 5 0 1 64 347 541 1368 1820 2048 2180 2303 2383 2149 2171 2071 2056 2072 2085 2159 1975 2020 1990 1881 1828 1788 1754 1833 2090 1912 1606 1429
444 168 168 100 1 6 39 70 159 209 240 96 112 33 21 34 5 0 7 3 4 159 452 909 1492 2114 1990 1974 2278 2626 2775 2144 2041 2033 2036 2035 1939 1907 1880 1803 1820 1826 1810 1818 1878 1828 1857 1756 1607
319 83 58 332 58 31 137 283 226 155 150 74 62 49 44 12 9 38 52 106 132 265 573 1343 1617 1717 1788 1915 2062 2070 2080 2030 2019 1834 1839 1907 1840 1774 1793 1827 1844 1826 1817 1820 1829 1768 1758 1769 1273
89 168 149 367 118 72 281 178 469 329 244 166 51 23 62 96 91 46 143 166 222 465 844 1311 2219 2337 1962 1796 1838 1744 1868 2209 2147 1904 1823 1915 1737 1640 1675 1677 1758 1722 1758 1862 1572 1652 1719 1663 1592
194 142 147 34 60 110 252 92 526 442 288 107 59 75 117 136 109 127 119 168 267 509 1098 1263 1792 2074 2200 1661 1699 1719 1648 1962 2182 1997 1847 1949 1867 1625 1588 1595 1640 1723 1797 1854 1590 1545 1765 1446 1545
470 62 18 61 88 266 336 170 528 413 264 107 68 85 163 131 116 70 117 263 358 614 1112 1199 1275 1405 1833 2158 1732 1700 1651 1874 2079 1994 1917 1906 2029 1763 1542 1427 1568 1566 1646 1696 1658 1486 1464 1550 1825
751 135 20 53 255 281 445 358 457 375 292 174 101 116 126 180 131 152 247 366 603 837 972 1250 981 909 1372 1526 1701 1659 1698 1779 1997 1902 1905 1939 1936 1900 1653 1618 1280 1431 1336 1541 1621 1487 1543 1450 1325
421 217 25 0 72 145 443 408 408 401 314 213 236 276 137 216 255 264 345 394 631 829 1016 1086 933 877 1524 1604 1416 1978 1863 1857 1897 1830 1797 2177 1622 1504 1544 1748 1428 1896 1747 1379 1499 1477 1634 1530 1460
662 216 25 1 0 227 451 414 407 432 347 324 358 213 246 242 331 336 368 418 479 684 967 1126 1105 1106 1531 1730 1521 1694 1662 1695 1638 1598 1559 1857 1191 874 1136 1373 1166 924 1681 1644 1749 1664 1727 1480 813
327 280 21 0 5 304 435 426 498 466 384 332 244 240 256 362 383 411 474 425 389 643 826 1090 1203 1244 1466 1493 1478 1505 1496 1578 1584 1587 1389 1404 723 1138 1447 991 537 175 787 529 675 679 874 1129 455
0 11 70 3 3 348 500 490 630 393 375 394 211 206 229 396 431 408 474 456 484 519 651 979 1159 1194 1304 1239 1344 1432 1435 1302 1355 1291 1214 943 760 633 699 153 117 337 406 358 434 571 733 946 677
0 0 0 0 0 238 488 668 651 484 617 400 288 235 294 392 456 440 482 506 578 491 572 782 999 985 1107 993 1186 1222 1140 950 777 750 631 604 794 636 476 364 412 437 505 494 544 683 847 923 312
0 0 0 0 0 270 529 715 738 563 653 539 389 378 401 377 435 487 507 563 617 603 689 663 753 778 839 774 804 1076 851 664 332 311 556 750 1017 856 384 172 404 597 662 661 740 910 641 173 63
0 0 0 0 0 112 392 585 794 695 731 628 516 500 446 395 416 492 512 539 639 732 770 658 678 683 731 583 619 568 638 591 350 316 823 689 923 884 683 399 654 785 773 867 930 533 226 75 36
0 0 0 0 0 0 55 188 621 669 772 686 664 636 558 478 463 482 516 534 634 732 796 670 876 710 703 729 801 631 532 741 670 849 771 863 1048 907 754 732 779 814 654 957 662 595 393 157 39
0 0 0 0 0 0 0 0 596 692 773 707 728 750 744 604 559 458 460 491 515 663 805 752 873 803 732 846 1110 1029 643 874 1236 1188 1015 908 1022 1007 894 1052 955 693 749 809 648 530 391 64 0
0 0 0 0 0 0 0 0 599 667 749 745 692 686 777 667 623 551 550 440 492 564 619 708 827 938 852 835 1053 980 1212 1147 704 665 837 877 999 976 984 962 734 635 741 742 731 408 148 0 0
0 0 0 0 0 0 0 0 527 636 715 838 774 754 820 728 592 690 630 501 398 530 572 615 713 860 919 887 1032 1024 1291 1062 773 938 1025 1084 1027 1098 1093 920 881 815 686 879 645 223 0 0 0
0 0 0 0 0 0 0 0 403 548 649 762 824 809 855 802 713 768 699 610 429 485 685 701 696 773 833 878 898 919 1022 937 798 733 1101 932 1045 1139 1235 949 809 949 926 905 463 197 25 0 0
0 0 0 0 0 0 0 0 0 486 550 599 590 620 722 693 714 704 695 670 448 377 743 811 801 796 700 685 738 851 784 765 820 768 1008 1054 1077 1178 1056 787 766 865 1063 931 672 210 66 0 0
0 0 0 0 0 0 0 0 0 46 528 541 542 501 480 440 414 567 694 741 487 351 624 815 879 861 712 590 602 746 754 627 741 861 1004 1269 971 888 875 896 998 954 941 757 759 210 28 0 30
0 0 0 0 0 0 0 0 0 0 2 214 305 372 418 365 291 368 501 565 554 355 569 825 899 896 830 547 653 698 674 609 632 906 1074 1096 1051 993 949 939 1166 760 632 840 647 261 0 0 0
0 0 0 0 0 0 0 0 0 0 0 0 35 65 134 200 243 258 300 442 493 414 496 701 784 858 842 671 759 781 782 720 740 758 961 1110 1057 1233 1231 1189 1096 765 620 539 395 153 0 0 0
0 0 0 0 0 0 0 0 0 0 0 0 0 2 4 17 102 128 169 230 392 425 576 623 596 853 929 903 879 893 950 831 815 781 893 902 991 1217 1377 1330 1154 1000 929 865 252 122 0 0 11
0 0 0 0 0 0 0 0 0 0 0 0 0 1 1 0 13 28 69 89 238 359 491 561 595 679 1053 1123 1062 998 1014 941 894 1017 881 803 978 1181 1312 1421 1250 1163 1131 875 382 213 0 0 19
0 0 0 0 0 0 0 0 0 0 0 0 0 0 0 0 1 29 69 65 89 201 303 576 582 551 907 1165 1166 1093 1070 1059 1060 1085 1032 900 874 1230 1372 1308 1421 1347 1293 930 605 247 8 5 0
0 0 0 0 0 0 0 0 0 0 0 0 0 0 0 0 2 15 74 91 70 103 194 421 640 601 564 919 1143 1153 1114 1135 1117 1056 1072 946 873 1059 1260 1293 1459 1351 1230 877 683 233 3 0 2
0 0 0 0 0 0 0 0 0 0 0 0 0 0 0 0 0 11 66 130 122 67 86 334 671 701 655 732 944 1029 1162 1140 1119 1131 1067 1026 1076 1148 1105 1269 1527 1141 1157 1101 822 294 136 0 0
0 0 0 0 0 0 0 0 0 0 0 0 0 0 0 0 0 5 63 142 130 75 86 328 605 827 769 861 1026 995 994 1149 1259 1165 1174 1098 1239 1373 1451 1376 1274 1123 1140 1330 922 518 486 133 0

GFSSGP_con_mucape_018.txt.gz
CAPE
554 552 272 174 99 9 11 71 94 9 47 52 2 7 15 19 19 2 1 6 4 6 41 357 667 1158 1851 2462 2520 2231 2004 1926 2100 2101 1921 2020 1929 1967 1933 1871 1867 1883 1975 1782 1653 1674 1594 1517 1389
725 303 123 0 0 6 27 66 49 95 22 19 24 19 51 41 15 1 1 0 12 27 137 293 930 2053 1947 2260 2243 2356 1896 1909 2059 1970 2137 2038 1932 1945 1958 1854 1736 1725 1743 1720 1616 1749 1534 1484 1344
309 246 81 37 4 28 33 52 108 101 115 112 18 23 15 25 1 1 0 17 40 146 259 511 1258 2389 2114 1958 2248 2605 2046 1955 1963 1900 2014 1897 1849 1875 1751 1721 1752 1823 1835 1907 1815 1701 1533 1259 1033
292 64 113 211 99 70 1 94 132 147 65 85 29 9 17 3 0 8 1 20 95 228 536 1148 1631 1703 2131 2001 2339 2349 1947 1812 1850 1847 1856 1827 1737 1688 1750 1833 1846 1864 1862 1775 1736 1595 1569 1022 859
132 122 157 274 223 104 88 292 284 104 167 25 39 5 6 44 57 10 23 59 135 357 835 1085 2120 2165 2129 2028 2192 2034 1833 1881 1777 1780 1845 1741 1652 1636 1666 1683 1765 1792 1872 1700 1538 1590 1435 1343 1450
93 161 73 87 77 163 147 67 389 228 153 23 3 17 62 117 31 69 73 92 220 481 1049 1179 1952 1825 1994 1791 1952 1899 1933 1984 1889 1777 1860 1810 1606 1567 1514 1566 1684 1836 1875 1649 1432 1513 1202 1273 1840
269 101 72 86 91 242 285 72 407 265 230 35 10 50 109 52 112 114 115 161 290 665 1080 1241 1357 1311 1653 1838 1717 1596 1693 1995 1975 1859 1802 1919 1806 1520 1493 1472 1618 1499 1625 1638 1351 1364 1326 1459 1519
569 200 96 113 149 209 397 251 368 367 205 59 51 55 125 94 141 129 185 217 320 807 1026 1162 1268 1220 1397 1361 1610 1590 1611 1826 1930 1890 1830 1843 1921 1690 1458 1470 1369 1658 1377 1337 1461 1298 1205 1260 1344
697 327 113 10 157 178 393 343 443 338 188 104 80 104 64 114 124 199 248 310 426 725 1018 1058 1109 1181 1368 1333 1362 1642 1632 1682 1853 1741 1710 2041 1478 1304 1189 1653 1500 2001 1739 1334 1256 1432 1492 1580 1372
568 281 55 0 43 47 400 406 446 410 254 190 154 302 127 111 188 238 289 238 458 581 849 1042 888 903 1260 1509 1268 1348 1316 1395 1512 1544 1459 1694 1392 920 1051 1463 1271 744 1828 1645 1597 1479 1590 1201 818
623 475 133 9 0 24 383 429 485 452 263 226 158 208 149 189 220 268 292 269 377 543 740 905 868 847 1210 1403 1361 1330 1480 1611 1528 1470 1374 1376 1113 611 1323 1045 947 32 433 659 882 684 789 1077 292
462 12 180 55 7 247 401 429 497 506 264 186 195 153 205 247 258 284 321 337 366 523 668 881 915 935 1168 1256 1306 1309 1401 1431 1466 1407 1304 1041 770 695 755 636 63 151 256 420 355 706 672 711 523
31 6 2 0 9 16 359 413 444 525 429 370 233 202 216 266 281 298 344 368 364 462 620 881 952 976 1056 1124 1173 1127 1226 1201 1119 1085 1025 871 589 613 463 265 280 328 379 474 652 665 995 795 325
0 1 0 0 7 12 362 394 486 543 502 469 265 242 265 292 319 318 400 427 369 364 466 731 898 965 992 897 918 985 1080 985 848 645 600 485 578 789 593 398 218 420 423 508 783 829 546 145 70
0 0 0 0 0 8 279 471 509 547 580 475 275 240 249 387 373 331 415 456 462 403 359 556 722 868 848 729 687 744 867 743 624 395 187 465 655 723 859 304 271 597 625 732 817 618 272 53 29
0 0 0 0 0 52 305 301 574 607 575 528 402 238 291 362 446 384 405 451 493 511 453 495 602 625 663 537 499 430 563 666 447 287 339 654 667 686 876 616 441 618 723 729 798 570 421 180 91
0 0 0 0 0 0 335 36 362 676 598 560 501 323 399 370 386 430 409 471 486 564 567 591 499 479 468 442 399 396 316 300 414 437 607 746 755 759 855 702 660 768 624 688 675 565 383 104 5
0 0 0 0 0 0 132 42 117 636 654 609 561 432 456 390 367 393 439 420 431 570 628 629 524 550 423 400 497 556 596 606 434 711 1060 989 961 863 768 556 796 702 562 651 602 587 243 0 0
0 0 0 0 0 0 0 0 343 471 576 615 567 532 505 468 402 394 405 433 397 517 605 631 579 677 584 469 612 693 909 967 556 942 598 697 763 826 877 722 804 566 518 645 679 325 90 0 0
0 0 0 0 0 0 0 0 256 466 538 548 558 573 570 587 526 482 460 388 346 378 453 549 634 643 738 594 576 733 828 854 1117 876 660 779 838 862 860 850 845 686 664 633 741 288 87 0 0
0 0 0 0 0 0 0 0 0 390 498 553 519 533 536 595 584 492 465 407 349 285 317 364 507 590 697 709 589 739 819 851 1085 924 711 836 819 903 903 858 933 709 741 814 857 529 148 36 1
0 0 0 0 0 0 0 0 0 48 459 493 577 606 566 603 628 494 387 380 390 282 228 306 399 469 551 700 645 633 708 748 763 889 741 640 856 776 897 1034 987 725 708 864 894 598 280 57 0
0 0 0 0 0 0 0 0 0 2 372 433 486 582 654 620 647 619 464 423 487 428 195 380 456 474 494 573 634 570 599 615 551 576 611 609 776 866 804 840 792 737 919 802 732 597 352 74 0
0 0 0 0 0 0 0 0 0 0 88 366 404 481 491 513 527 577 520 462 470 523 481 308 516 533 548 525 593 606 457 433 474 506 539 623 772 1026 1030 853 870 822 967 574 559 658 269 22 0
0 0 0 0 0 0 0 0 0 0 0 4 161 283 412 435 429 399 388 345 477 486 489 506 498 587 617 585 546 558 513 418 429 538 441 587 739 893 954 1013 978 972 1108 773 593 481 211 0 0
0 0 0 0 0 0 0 0 0 0 0 0 0 1 25 120 273 349 357 285 246 373 410 459 507 590 637 606 576 561 611 411 502 620 536 569 541 769 934 1001 1174 1198 1204 968 859 657 142 0 0
0 0 0 0 0 0 0 0 0 0 0 0 0 0 0 0 5 73 198 272 192 176 239 345 448 541 620 642 600 585 607 517 559 654 664 724 526 690 827 951 1119 1250 1281 1105 1005 694 218 64 0
0 0 0 0 0 0 0 0 0 0 0 0 0 0 0 0 0 0 0 31 92 118 158 271 419 452 515 712 738 723 682 667 634 702 799 772 826 831 848 1006 1181 1274 1270 1215 1121 829 424 204 0
0 0 0 0 0 0 0 0 0 0 0 0 0 0 9 0 0 0 0 3 16 41 112 203 405 464 455 794 889 892 862 829 776 762 837 857 936 925 882 953 1171 1231 1239 1352 1259 1026 625 314 0
0 0 0 0 0 0 0 0 0 0 0 0 0 0 0 0 0 0 0 1 3 9 33 148 349 467 454 543 983 1007 988 962 904 859 842 873 975 978 963 873 1071 1133 1176 1389 1271 1078 807 495 162

GFSSGP_con_mucape_021.txt.gz
CAPE
248 277 311 229 401 159 84 122 132 0 21 84 18 27 37 46 26 25 50 25 70 71 224 493 1149 1740 2014 2248 2083 2349 2045 2011 2136 2138 1949 1818 1913 1937 1894 1953 1966 1916 1741 1660 1697 1604 1518 1305 1284
583 400 192 9 87 62 66 121 74 101 103 75 87 92 83 35 21 46 58 31 27 69 200 314 1440 2392 2392 2472 2635 2438 1821 1914 1969 1964 2003 1876 1964 2017 1840 1768 1706 1744 1785 1613 1658 1522 1394 1340 1246
513 189 72 128 39 67 151 88 223 105 70 75 92 57 65 39 14 39 37 23 29 93 139 384 1404 2485 2195 2229 2393 2390 2213 1932 1976 1947 1993 1908 1905 1805 1738 1784 1842 1978 1798 1883 1736 1479 1253 1159 1011
399 162 85 251 100 121 35 157 191 176 108 114 71 86 1 13 25 34 29 44 73 156 185 951 1870 1859 2115 2345 2391 1946 1883 1943 1889 1983 1818 1814 1745 1736 1793 1583 1883 1987 1850 1671 1605 1559 1242 985 852
224 81 316 253 86 157 201 251 237 195 194 108 52 6 16 42 57 26 50 60 112 181 419 1014 1998 2385 2354 2487 2400 1968 1839 1827 1838 1816 1762 1725 1713 1763 1810 1827 1744 1940 1801 1529 1504 1384 1321 1522 1348
173 248 130 111 62 242 103 318 267 234 193 57 24 30 129 158 57 61 64 112 145 351 602 1105 1832 2306 2385 2299 2011 1839 1795 1773 1762 1802 1769 1663 1652 1622 1637 1717 1805 1840 1660 1413 1443 1211 1149 1581 1545
148 121 111 102 77 215 230 353 502 316 196 64 61 97 131 127 90 94 107 167 225 542 754 1094 921 1659 1778 2304 1939 1877 1853 1841 1780 1740 1885 1846 1640 1549 1481 1593 1495 1514 1561 1352 1287 1265 1168 1277 1573
258 151 136 89 156 267 299 212 473 373 206 26 44 92 93 162 130 152 172 234 332 601 725 1199 794 978 1264 1596 1631 1585 1753 1885 1843 1803 1772 1815 1843 1535 1460 1386 1462 1593 1355 1217 1195 1115 1142 1095 1238
357 484 244 29 181 221 524 540 443 290 153 62 76 74 94 154 162 188 222 258 354 578 787 988 886 1094 1540 1360 1424 1509 1515 1691 1816 1686 1753 1675 1885 1934 1776 1788 1634 1683 1461 1183 1228 1260 1274 1307 1517
473 411 190 46 106 0 516 584 563 418 212 185 226 135 133 169 186 210 205 244 277 403 600 768 997 967 1281 1036 1481 1596 1370 1202 1414 1386 1640 1620 1623 1774 1620 1605 1270 789 1641 1505 1321 1380 1343 1109 356
759 591 318 59 0 0 186 575 599 535 398 262 320 271 194 204 230 195 193 241 287 360 528 673 993 1246 1166 1057 1275 1489 1350 1436 1601 2019 1835 1562 1797 1536 1876 1806 1652 832 688 1121 1322 1251 1125 1625 633
585 439 312 17 0 0 232 602 648 630 461 325 316 251 219 257 219 202 220 264 337 410 496 582 841 1151 1244 1183 1165 1088 1313 1422 1459 1526 2046 1734 1560 1596 1697 1407 757 873 814 1418 1323 1316 1470 1182 1179
543 62 2 0 0 0 25 567 649 694 488 401 487 317 238 217 200 218 229 302 398 506 551 629 854 1134 1257 1440 1015 1035 1468 1336 1284 1596 1601 1469 1360 1712 1524 1141 1053 1194 1300 1372 1475 1571 1910 1066 391
0 0 0 0 0 2 3 151 573 646 629 639 600 477 283 212 194 330 445 617 683 637 706 698 856 1057 1207 1324 1336 1176 1316 1349 1369 1110 1081 1518 1188 1332 1398 1597 937 1400 1473 1417 1470 1622 1019 313 547
0 0 0 0 2 3 1 279 488 643 685 730 674 547 397 305 250 429 574 754 890 850 853 915 988 1025 1192 1225 1389 1134 945 1125 963 937 1183 1228 1383 1673 1854 1759 1085 1162 1733 1908 1868 1090 1054 68 20
0 0 0 0 3 1 0 0 306 690 755 798 661 498 473 463 456 603 713 810 901 937 922 958 898 1024 1236 1260 1312 965 934 973 861 846 857 1044 1390 1772 1891 1737 1281 1318 1801 2076 1970 1876 1543 403 30
0 0 0 0 0 21 95 0 24 686 766 815 708 546 521 578 635 745 738 820 876 997 925 900 978 1004 1141 1286 1154 954 948 885 884 873 811 1023 1377 1570 1809 1825 1621 1778 1565 1901 1961 1258 1017 201 25
0 0 0 0 0 0 26 18 55 707 767 819 720 581 583 610 711 739 719 783 889 1033 1112 1051 957 1058 1220 1118 1151 849 807 672 649 835 1022 1471 1558 1695 2021 1803 1807 1769 1605 1482 1290 1240 384 43 104
0 0 0 0 0 0 0 20 119 666 819 851 780 664 615 626 633 707 767 738 844 1006 1143 1203 1095 1356 1157 1026 791 750 697 662 1022 1148 1425 1828 1932 2090 2134 1805 1814 1717 1554 1572 1482 868 408 41 141
0 0 0 0 0 0 0 0 0 356 797 905 895 763 724 756 720 722 737 772 792 1002 1154 1394 1467 1741 1481 1096 1203 942 1063 914 1481 1418 1612 1735 1866 2092 2117 2086 1944 1750 1470 1635 1421 922 209 53 82
0 0 0 0 0 0 0 0 0 138 509 786 924 868 766 834 823 801 750 748 825 963 1358 1772 2030 2060 1740 1628 1228 1211 1414 1631 1629 1565 1781 1776 1966 2176 2230 2183 2022 2008 1760 1588 1552 1005 575 124 105
0 0 0 0 0 0 0 0 0 0 375 554 774 880 860 876 920 863 844 840 812 1268 1183 1790 1881 2135 1780 2124 1678 1882 1280 1281 1364 1608 1716 1778 2000 2131 2210 2248 2123 2146 1807 1794 1655 1073 676 179 43
0 0 0 0 0 0 0 0 0 0 164 537 697 823 844 925 984 962 947 976 930 923 984 1185 1806 2021 2139 2223 2191 1816 1883 1328 1361 1410 2132 2379 2146 2096 2027 2222 2213 2198 1939 1903 1758 1073 628 383 64
0 0 0 0 0 0 0 0 0 0 0 164 557 790 880 864 908 1011 1032 990 964 807 745 1081 1711 1884 2040 2089 2161 2348 2318 2046 1513 1548 1487 1560 1602 1680 2027 2075 2307 2307 2054 2044 1793 1255 859 378 118
0 0 0 0 0 0 0 0 0 0 0 0 258 664 791 950 957 994 1116 1103 1219 1307 1228 1156 1652 1834 1936 1956 2059 2221 2284 2470 2368 2041 1494 1669 1451 1467 2198 2214 2253 2128 2140 2039 1727 1262 880 489 201
0 0 0 0 0 0 0 0 0 0 0 0 9 245 604 795 928 1056 1427 1546 1587 1455 1449 1259 1408 1780 1920 1911 1998 2091 2244 1790 1941 2123 1479 1408 1411 1566 1971 2287 2290 2248 2133 1981 1553 1192 898 531 425
0 0 0 0 0 0 0 0 0 0 0 0 0 0 101 443 736 876 1258 1482 1543 1627 1549 1478 1445 1673 1881 1877 1959 2019 2094 2030 1928 2187 2214 1532 2075 1541 1860 2146 2300 2317 2194 2002 1625 1237 936 479 416
0 0 0 0 0 0 0 0 0 0 0 0 0 0 0 0 217 594 995 1229 1321 1294 1632 1470 1464 1677 1819 1897 1929 1867 1929 2010 2058 2182 2211 2130 2058 1880 1725 1982 2208 2316 2219 2020 1735 1435 1055 586 319
0 0 0 0 0 0 0 0 0 0 0 0 0 0 0 7 7 132 566 996 1244 1087 1222 1419 1425 1701 1930 1995 2027 1971 1934 1945 2030 2096 2240 2287 2214 2196 2149 2158 2137 2208 2216 2027 1825 1683 1244 758 588
0 0 0 0 0 0 0 0 0 0 0 0 0 0 0 22 86 77 144 356 687 1218 1099 1288 1348 1494 1759 1929 2093 2076 2119 2103 2089 2135 2211 2342 2374 2153 2644 2559 2228 2236 2277 2083 1837 1756 1347 988 790

GFSSGP_con_mucape_024.txt.gz
CAPE
157 357 475 338 826 501 292 327 222 69 150 123 28 244 244 41 99 513 245 43 422 292 214 933 1807 1726 1357 1562 1886 2087 2057 1977 2037 1815 1790 1918 2014 1956 2010 1858 1865 1855 1809 1796 1737 1635 1438 1354 1451
239 479 474 258 350 281 444 362 229 218 243 180 191 200 187 25 61 216 311 291 431 419 455 744 1360 1976 1794 1970 2109 2154 1904 1976 1948 1939 1903 2027 1912 1868 1789 1626 1666 1888 1764 1762 1689 1432 1421 1288 1181
683 491 399 287 349 147 294 417 411 222 184 215 322 443 476 291 126 268 302 247 340 387 510 1046 1782 2406 2144 2096 2317 2359 1985 1949 1983 1976 1922 2047 1861 1767 1718 1827 1741 1793 1967 1781 1558 1416 1140 1025 991
518 400 185 688 262 210 245 489 330 322 330 259 319 433 191 142 106 130 173 234 271 480 559 1310 2038 2015 2312 2284 2127 1943 1926 1969 1986 1939 1904 1940 1755 1820 1539 1849 1222 1613 1699 1666 1562 1290 1342 972 928
510 129 497 734 244 213 423 570 510 475 432 343 281 267 110 100 146 98 194 225 291 460 671 1208 2480 2465 2463 2256 2091 2011 1944 1922 1974 1857 1823 1772 1782 1770 1638 1798 1802 1825 1567 1471 1344 1349 1536 1277 1408
655 526 449 115 131 334 398 519 552 547 430 328 229 198 311 223 189 217 223 235 339 544 616 968 2237 2413 2615 2396 1956 1877 1831 1871 1884 1818 1756 1729 1692 1653 1743 1830 1853 1700 1399 1359 1292 1218 1419 1425 1453
691 495 266 170 172 374 398 539 559 507 548 308 236 453 338 226 225 219 292 315 394 464 427 704 1112 1565 1786 2597 1788 1791 1830 1811 1867 1873 1786 1620 1575 1551 1465 1598 1527 1533 1348 1256 1242 1209 1249 1388 1442
515 515 288 195 249 468 506 623 646 635 565 226 251 343 433 389 337 316 346 299 418 508 423 513 806 884 1556 1646 1844 1899 1876 1857 1821 1765 1767 1674 1504 1378 1448 1258 1691 1332 1266 1232 1220 1127 1098 1026 1301
531 736 294 175 255 287 578 794 692 669 367 216 252 292 404 451 372 415 465 427 451 606 512 391 485 819 1140 1176 1459 1653 1793 1839 1763 1715 1692 1553 1608 1784 1797 1649 1633 1284 1190 1124 1221 1015 1141 1269 1562
647 684 187 73 25 5 181 663 862 597 416 261 375 335 433 450 491 500 589 666 853 630 571 387 342 609 840 636 1125 1089 795 765 933 814 1275 1599 1569 1875 1680 1661 1323 992 1375 1311 1367 1249 1308 1486 166
423 562 148 49 11 5 74 666 930 546 459 384 595 545 519 465 543 543 553 530 550 649 504 503 481 670 718 614 898 899 875 884 1312 1517 1299 1445 1774 1764 1534 1559 1661 944 1157 1536 1149 1133 863 1541 634
340 252 330 72 1 0 0 340 864 675 398 445 672 546 583 553 574 525 464 431 444 598 596 625 722 792 697 680 726 690 620 703 858 1002 1464 1603 1775 1649 1655 1217 1194 1193 1028 1368 1091 1236 887 1033 1375
284 72 17 17 0 0 0 53 343 737 550 531 719 595 650 592 555 519 415 384 378 492 554 580 787 1042 927 956 564 375 585 623 679 1059 1156 1239 1598 1933 1734 1559 1344 1535 1154 1190 1665 1011 806 1347 1089
21 58 6 0 0 0 0 0 251 507 741 661 750 648 696 641 600 581 485 486 485 502 588 656 852 1075 1103 1131 1073 864 943 844 973 756 575 1387 1663 1748 1588 1664 1367 1441 1438 1658 1003 969 1607 506 634
0 0 0 0 0 0 0 0 173 420 958 973 884 793 718 675 641 626 541 578 606 635 672 741 990 1139 1355 1432 1547 1370 927 931 808 512 730 1180 1630 2122 2381 1797 1494 1202 2237 1261 1138 1085 1221 431 117
0 0 0 0 0 1 4 37 159 551 978 1157 1076 978 824 718 600 594 571 624 681 860 1095 1104 954 1068 1356 1391 1542 1234 864 814 531 289 439 1154 1689 2306 2456 1912 1388 1508 1577 1168 1018 921 898 620 221
0 0 0 0 0 1 1 30 50 559 904 1118 1261 1138 988 843 659 628 678 715 876 1305 1428 1550 1495 1313 1513 1695 1592 1477 1034 891 475 363 402 1278 1684 2047 2364 2159 1568 1992 1869 1284 1005 1132 1062 343 90
0 0 0 0 0 0 0 18 19 234 581 875 1298 1222 1055 903 821 725 780 802 974 1312 1557 1649 1619 1695 1791 1674 1793 1328 835 771 611 576 600 1069 1675 1977 2490 2081 1477 1448 1716 1404 1563 1211 837 216 0
0 0 0 0 0 0 0 0 0 97 574 634 1179 1289 1180 1083 910 832 933 989 1054 1213 1563 1645 1651 1893 1901 1626 1448 1055 674 705 625 587 1027 1679 2125 2431 2785 2254 1588 1475 1594 1428 1348 1336 988 168 15
0 0 0 0 0 0 0 0 0 26 491 634 1044 1239 1267 1196 1012 960 996 991 894 1225 1549 1873 1807 2099 2229 1739 1697 981 753 556 688 804 1310 1920 2290 2743 2799 2937 2189 1693 1672 1677 1630 1479 561 198 17
0 0 0 0 0 0 1 0 0 0 15 282 680 1071 1156 1207 1149 1054 1011 993 900 1174 1573 1828 2150 2084 2112 2058 1380 1117 936 900 919 1145 1585 1957 2406 2553 2851 2439 2399 2127 1935 2845 2076 1675 1140 301 38
0 0 0 0 0 0 0 1 29 7 11 38 319 774 1049 1196 1244 1175 1015 962 931 1152 1471 1853 2147 2352 2247 2403 1982 2443 1285 1253 1193 1655 1290 1631 2372 2335 2411 2666 2484 2721 1967 1961 2345 1725 1442 1396 99
0 0 0 0 0 0 0 0 0 0 0 0 75 360 887 1056 1264 1319 1203 945 839 1101 1349 1722 2381 3056 3062 2482 2717 1946 2139 1498 1429 1333 2434 3056 2710 2546 2214 2556 2526 2654 2775 2274 2390 2106 2042 1247 431
0 0 0 0 0 0 0 0 0 0 0 0 95 404 830 1012 1183 1359 1395 1061 907 1076 1425 1672 2841 3852 3312 2894 2448 3445 3447 2610 1764 2079 1585 1696 1855 2047 2412 2379 2251 2356 2571 2582 2597 2454 2036 1698 812
0 0 0 0 0 0 0 0 0 0 0 0 0 30 759 1025 1169 1272 1512 1443 1088 1184 1409 1694 2632 3385 3019 2802 2768 2900 2986 3096 3304 2674 2051 2443 1518 1459 2543 2573 2746 2603 2876 2583 2692 2725 2048 2015 1243
0 0 0 0 0 0 0 0 0 0 0 0 0 0 246 961 1170 1193 1482 1644 1561 1326 1833 1845 2613 3052 2903 2823 3576 3768 3690 2379 2392 2902 2187 2017 1591 1683 1736 2241 2513 2598 2564 2786 2802 2628 2227 1898 1593
0 0 0 0 0 0 0 0 0 0 0 0 0 0 0 670 1120 1273 1270 1556 1746 1793 2305 2678 3055 3436 3036 2552 3487 3820 3675 3483 2524 3390 3203 2314 3012 1802 1926 2085 2561 2540 2654 2761 2866 2599 2447 1946 1791
0 0 0 0 0 0 0 0 0 0 0 0 0 0 0 167 869 1087 1279 1376 1662 1848 1925 2252 2759 3295 3408 2986 3095 2907 3199 3653 3620 3761 3583 3526 2925 2876 2216 2401 2431 2462 2628 2810 2958 2553 2511 2315 1694
0 0 0 0 0 0 0 0 0 0 0 0 0 0 0 33 265 722 973 1199 1342 1658 1986 2085 2261 2813 2683 3190 3390 3328 3078 3017 3152 3246 3779 3880 3181 3529 2955 2885 2508 2371 2601 2847 3091 3146 2385 2498 2140
0 0 0 0 0 0 0 0 0 0 0 0 0 0 0 0 39 96 239 673 1151 1460 1745 2016 2152 2155 2492 2875 3552 3554 3562 3387 3061 3535 3561 3894 3768 3678 3624 3142 2900 2598 2424 3039 2996 3021 2272 2479 2308

GFSSGP_con_mucape_027.txt.gz
CAPE
48 358 420 645 230 323 284 299 163 240 227 196 254 255 245 237 731 622 3 31 0 1 88 892 1345 1134 1218 1466 2055 2159 1959 1894 2087 1847 1887 2030 1990 1624 1713 1752 1867 1856 1806 1734 1595 1512 1362 1464 1392
132 364 522 678 507 138 387 142 84 232 351 258 339 285 194 73 424 149 318 14 0 0 270 499 1783 1739 1543 1905 2087 2015 1809 1897 1887 1912 2077 1867 1942 1767 1617 1681 1873 1771 1736 1665 1408 1361 1318 1246 1160
312 451 704 407 512 227 203 229 164 345 326 281 618 529 445 330 298 272 474 373 229 350 463 863 1566 1805 1861 2042 2019 1920 1722 1930 1990 1879 1768 1766 1805 1701 1803 1387 1724 1929 1748 1585 1390 1215 1089 1006 965
533 797 616 832 400 137 263 253 314 410 438 487 572 574 444 325 434 518 414 399 255 360 370 1176 1711 1929 2096 2030 1853 1770 1791 1933 1970 1959 1852 1828 1799 1650 1802 1423 1590 1634 1606 1518 1277 1363 1188 1073 991
271 369 754 623 197 175 199 396 374 413 475 445 557 673 438 136 289 422 411 371 361 398 559 1192 2394 2494 2157 1854 1807 1821 1874 1960 1759 1818 1755 1862 1777 1666 1722 1946 1833 1522 1461 1389 1425 1579 1497 1583 1510
865 657 188 143 69 112 248 334 330 346 564 340 607 453 411 212 478 419 331 361 447 403 277 1136 1919 2444 2371 1828 1780 1885 1821 1840 1709 1730 1752 1790 1751 1812 1837 1857 1775 1448 1425 1397 1347 1442 1398 1350 1634
952 392 190 130 81 83 128 288 376 458 481 410 420 829 396 195 279 349 251 273 420 407 312 616 940 1635 2139 2148 1844 1773 1692 1712 1650 1657 1631 1620 1601 1518 1559 1574 1578 1455 1343 1316 1283 1275 1344 1377 1419
742 681 323 62 33 70 73 82 200 477 636 374 832 703 522 376 322 310 303 248 385 495 250 325 640 866 1570 1359 1624 1638 1626 1651 1681 1699 1565 1496 1495 1548 1320 1632 1478 1347 1274 1295 1140 1107 1148 1312 1388
431 590 476 80 19 199 165 33 183 499 357 411 511 693 585 473 291 246 346 362 533 416 212 282 420 822 1444 855 1489 1664 1614 1626 1640 1562 1492 1508 1526 1864 1587 1651 1376 1149 1292 1163 1001 1021 1073 1331 1398
368 316 246 58 44 73 162 124 103 431 354 391 445 711 577 585 437 412 415 446 460 527 229 279 346 525 764 424 1126 1074 844 708 1024 1116 969 1409 1918 2161 1605 1692 1462 1411 1169 1271 1072 1113 784 1614 600
208 256 142 87 32 39 86 364 245 64 306 424 620 815 689 647 740 848 735 797 779 639 315 277 413 704 482 1289 607 595 516 688 917 1033 1413 2262 1737 1560 785 1342 860 900 1425 1187 1102 844 1106 437 613
34 195 164 55 23 24 72 374 457 185 108 246 633 786 734 689 701 710 830 878 711 608 406 245 411 828 527 612 495 373 394 487 649 837 1355 1763 1597 1490 1627 1957 1588 1375 1609 1398 1281 1463 1217 839 697
3 92 142 211 54 29 17 78 447 409 143 225 655 783 778 794 773 689 658 676 739 557 431 357 520 1416 1631 1064 530 428 408 304 425 939 1084 1315 1961 1726 1906 1529 2080 1889 1554 1164 899 1582 1149 1046 828
19 27 109 45 37 24 7 25 171 585 325 397 647 808 796 823 824 797 685 652 657 650 564 509 792 1175 1121 1484 1621 671 459 539 488 557 756 1392 1837 1851 2450 1919 1904 1926 1893 1560 1216 1023 1632 646 730
19 14 47 100 0 5 0 19 146 587 672 629 801 765 800 801 797 809 687 631 604 632 702 706 826 1064 1197 1282 1261 946 634 575 614 528 686 1233 1769 2085 2440 2370 1869 1990 1927 1760 1537 1348 531 585 38
0 0 30 1 0 0 0 23 36 461 926 774 843 730 831 798 767 798 747 715 673 703 912 890 692 909 1110 1499 1575 1150 754 655 602 391 483 973 1672 2037 2467 1939 1436 1700 1417 1172 1534 1754 284 478 85
0 0 0 25 6 14 1 46 64 309 852 1003 935 921 666 843 795 852 772 740 744 880 1171 1092 1091 1104 1445 2356 1638 1486 1858 864 551 292 183 1475 1736 2105 2369 1664 2535 2030 1730 968 962 910 702 121 26
0 0 1 10 78 22 40 31 28 415 557 778 1052 1051 945 700 747 828 832 732 804 957 1264 1683 1368 2582 2969 2088 2621 1409 1047 878 542 352 222 2340 1863 2074 2405 2249 1798 1803 1235 1644 1215 1581 406 124 0
0 0 0 24 69 40 37 81 85 119 288 397 958 1166 1151 952 697 684 775 786 837 1170 1649 2330 2533 3426 2527 1956 1637 1429 998 961 500 559 898 1225 1547 2115 2602 1973 2048 1727 2340 1589 1255 1176 758 45 22
0 0 0 0 9 40 29 29 61 74 154 299 662 1060 1190 1126 882 677 756 771 847 1096 1997 3020 3169 3718 3232 2273 2411 1664 1663 582 550 541 1689 1412 1883 2383 2743 2586 1897 1851 1828 1677 1660 1409 1501 39 0
0 0 0 0 3 7 13 29 33 50 94 310 565 990 1041 1163 1153 906 811 808 823 1199 2134 2952 3508 3665 3356 3240 2642 2471 1805 1540 803 908 827 1549 1978 2260 2851 2184 2086 2027 2308 2581 2067 1522 1237 793 0
0 0 0 0 3 12 0 19 34 31 52 158 338 809 1045 1091 1221 1207 904 858 849 1306 1482 2961 3540 3698 3485 3698 2328 2516 1208 826 654 953 934 1509 2475 2165 2350 2449 1932 2914 1956 2955 2365 1578 1849 1404 240
0 0 0 0 0 1 3 19 67 29 29 41 55 301 925 904 1160 1259 1170 881 817 983 1174 2111 3702 3812 3571 3536 3381 2177 1998 782 825 890 2418 2331 3488 2655 2062 3083 2924 2905 2255 3027 2147 2113 2113 1428 1070
0 0 0 0 0 0 0 0 10 57 64 71 59 69 322 626 965 1264 1326 974 790 759 984 1939 3641 4070 4014 3917 3502 3968 2677 2034 1250 1554 1524 1418 1400 2350 3229 2600 3602 3204 3225 2669 2549 2789 2317 2190 1315
0 0 0 0 0 0 0 0 0 9 16 37 31 46 102 289 825 1208 1419 1184 988 1217 1524 2085 3584 4165 4197 4113 3597 3489 3770 3245 4213 3803 1492 1797 1296 1173 2988 3584 3800 2664 3696 2845 3607 3615 2920 2282 1863
0 0 0 0 0 0 0 0 0 0 3 15 37 48 167 315 796 1151 1404 1455 1453 1493 2021 2284 3354 4154 4257 4066 4068 3850 4159 2668 2298 2899 1785 1554 1263 1324 3007 3842 3557 3435 3392 3159 3760 2811 2499 2958 2008
0 0 0 0 0 0 0 0 0 0 0 0 0 4 44 249 613 1135 1348 1564 1805 1567 2275 2657 3347 3991 4148 3889 4147 4220 4072 3798 2812 3075 3540 2602 2878 1622 3193 3551 3592 3485 3566 3817 3944 2464 3348 3149 2719
0 0 0 0 0 0 0 0 0 0 0 0 0 0 0 51 512 1029 1262 1548 2000 1569 1980 2636 3175 3902 4030 3846 4014 4042 4203 4227 3912 4062 4191 3164 3371 3768 3496 3207 3314 3455 3732 3924 4201 3067 3456 3724 2565
0 0 0 0 0 0 0 0 0 0 0 0 0 0 0 0 331 935 1261 1418 1742 1770 1674 2103 2863 3658 3994 3889 3921 3903 3963 3977 4178 4005 4245 4148 4237 4479 3894 4220 3691 3721 3817 4065 4275 3806 3485 3751 3568
0 0 0 0 0 0 0 0 0 0 0 0 0 0 0 0 150 776 1036 1166 1293 1694 1900 2032 2266 2423 3703 3735 4051 3968 4009 3926 4012 4114 4002 4316 4344 4300 4581 4332 4289 4130 3814 4017 4215 3946 2684 3727 3415

GFSSGP_con_mucape_030.txt.gz
CAPE
137 173 179 295 508 125 190 86 122 198 346 272 421 374 309 552 539 193 0 3 0 3 68 676 1392 1458 1642 2334 2642 2417 2443 2510 2303 1983 2250 1948 1885 1758 2114 2219 2223 2162 1831 1654 1629 1467 1511 1395 1188
110 337 492 534 333 0 255 269 170 189 171 332 231 205 425 398 0 0 1 0 0 0 2 347 1627 1838 1901 1996 2538 2362 1958 1838 2113 1729 2073 2137 2221 2255 2099 1933 1746 1702 1655 1510 1369 1350 1267 1206 1191
149 450 576 721 455 165 335 56 278 245 405 473 601 601 356 127 0 0 0 0 0 0 27 870 1895 2127 2080 2343 2406 2345 2257 2170 1887 1775 1933 1666 1746 2066 1705 1766 1893 1669 1553 1381 1316 1140 1063 987 951
489 788 776 329 333 211 408 391 275 387 458 448 305 423 103 1 47 3 1 0 0 60 298 1434 1617 1760 2012 2368 2241 2170 2115 1896 1986 1851 2001 1808 1704 1705 1453 1553 1528 1539 1435 1318 1451 1334 1191 1087 1077
665 421 473 654 260 186 391 408 272 380 380 524 612 305 297 398 379 0 0 0 14 267 641 620 2291 2275 2393 2238 2235 2156 1861 1853 1957 2272 1882 1779 1673 1773 1947 1719 1462 1496 1474 1503 1596 1537 1513 1470 1324
765 49 56 269 56 207 308 394 481 434 598 690 377 258 190 305 343 163 214 79 276 465 361 917 2044 2313 2327 2059 2178 2085 1873 1624 1793 1820 1817 1892 1913 1927 1953 1740 1455 1452 1435 1404 1416 1313 1210 1462 910
151 2 33 202 39 175 392 501 525 503 226 689 475 409 238 259 308 332 236 125 122 251 440 1134 1478 1788 1981 2217 2192 1831 1745 1614 1648 1588 1608 1601 1580 1596 1637 1888 1732 1401 1353 1266 1227 1231 1175 1069 1277
545 179 125 176 22 24 254 325 411 414 413 707 462 282 325 411 369 304 339 349 450 46 386 943 1126 860 1296 1393 1765 1635 1602 1507 1482 1512 1442 1464 1398 1275 1248 2091 2007 1393 1298 1127 1063 1026 1023 1180 1357
506 348 347 184 95 112 26 515 523 295 528 756 690 382 352 283 279 361 196 479 431 212 213 361 429 1380 1742 1463 1430 1559 1469 1454 1491 1415 1249 1086 2171 1184 1584 1827 1714 1326 1223 987 863 873 994 1349 1703
298 102 20 132 53 74 90 12 162 194 306 633 616 375 353 444 340 346 295 390 527 157 116 237 476 920 1050 370 1595 1797 1183 1096 1339 1015 165 289 1280 1605 1795 1416 2129 1381 1045 1129 1018 1209 1558 803 704
128 128 21 32 112 74 37 14 204 71 215 810 594 430 420 410 419 377 446 405 456 152 132 300 680 1178 763 964 1224 1269 1056 1122 1139 834 208 199 1113 1339 1232 1579 1277 1652 569 938 852 1091 1457 1160 1044
58 93 6 46 151 62 149 27 92 84 76 704 694 449 560 430 458 597 476 604 589 328 302 245 741 1328 948 1014 537 868 786 755 1331 1553 1735 1552 860 843 2026 1502 2019 1014 1267 1156 1403 1423 1654 1550 1595
17 219 160 24 99 24 149 79 86 40 101 512 726 546 563 618 616 681 763 591 794 693 348 501 836 1496 2342 1889 679 633 1169 850 1228 1808 2041 961 559 2279 2688 2803 891 762 533 376 894 1766 1824 1659 197
20 38 57 48 225 53 0 115 86 115 76 424 648 642 553 569 721 878 944 903 931 921 372 810 1119 1572 2565 2321 3128 2034 2061 1023 1189 1123 1535 2415 1964 2399 2943 2788 1187 1829 873 687 1061 630 274 447 537
5 28 32 69 125 32 18 24 63 177 117 157 532 648 646 605 600 789 1127 870 988 556 791 926 1138 1248 2140 2372 2407 2169 1909 609 980 1315 2296 1931 2650 3154 1966 2393 1945 2149 2561 2628 2277 1107 465 86 273
2 4 28 52 82 12 1 8 232 127 223 202 398 540 648 636 557 778 793 665 881 662 966 1083 676 1052 1429 1796 2351 1947 1237 1252 1506 1588 1657 2062 2268 2755 3439 1787 1294 626 2179 1972 1829 1892 885 660 372
0 1 4 42 30 5 1 0 11 236 193 481 277 437 549 812 790 928 605 788 764 1000 1495 1564 1295 1320 1330 2242 1999 1616 1751 2080 1766 1834 1494 2186 2726 2805 3152 2729 2271 2337 815 2021 1828 1919 1996 467 208
0 0 0 2 59 16 9 19 0 62 211 563 765 427 586 566 702 902 759 759 866 1231 1608 1768 1380 1795 1729 1894 2271 1648 1610 1665 1702 1829 1682 2151 2639 2962 3497 2675 2610 2088 991 2398 2462 2436 1355 871 141
0 1 0 1 10 61 12 62 30 61 125 340 675 802 512 618 654 941 799 788 1021 1376 1642 1648 2064 2921 2106 2065 1848 1851 1245 1628 1525 1929 2589 2832 2760 3213 3793 2812 1001 2360 1894 2456 2025 1918 1587 501 264
0 0 0 0 6 14 41 10 38 106 58 143 449 413 786 491 620 893 894 775 851 1298 1843 1904 2155 2920 2597 2211 2144 1803 1933 1637 1385 1536 2606 2480 2444 3022 3200 2882 2237 2397 2357 2597 2673 2448 1720 526 105
0 0 0 0 0 15 13 22 41 75 99 43 401 374 706 796 696 807 925 848 795 1435 2027 2399 2510 3208 2596 2648 2774 2801 2937 2882 1444 1487 2124 2098 2676 2789 3025 2840 3208 2281 2651 2306 2780 2633 2340 1493 321
0 0 0 0 7 8 8 24 68 38 34 37 59 322 386 951 936 816 965 936 957 1374 2054 2719 2919 3166 2831 3112 2531 2601 1677 1251 1433 1429 1520 1661 2189 2954 3162 3166 3207 3432 2800 2378 2413 3068 2575 2175 883
0 0 0 0 0 2 9 19 19 65 42 46 149 408 502 939 1004 946 898 1000 1050 1261 2051 2739 3034 3185 3190 2584 3257 2409 1942 1633 1236 1542 2446 2204 2525 2705 2778 2967 3338 3627 3036 2630 2485 2959 2931 2972 1602
0 0 0 0 0 0 0 6 14 28 81 57 87 111 709 578 1138 1297 1067 1109 1061 1349 1835 2528 3090 3048 3173 3077 2580 3223 2204 1958 1344 1391 1592 2249 2579 2634 3095 3441 3086 3489 2751 3152 2923 3079 3487 2932 2802
0 0 0 0 0 0 0 0 0 9 82 33 50 62 309 881 1131 1551 1443 1253 1152 1355 1766 2094 3133 3036 2915 3148 2468 2668 2997 1998 3057 2772 1765 1971 1515 2345 2538 3282 3382 2884 3123 3308 2846 3381 3566 3167 2775
0 0 0 0 0 0 0 0 0 0 5 24 62 52 158 473 869 1402 1654 1490 1279 1286 1558 1959 3001 3088 3063 2957 3079 2506 3456 2323 1688 3251 1727 1872 1806 1644 2990 2584 3098 3156 3102 3103 3711 2984 2964 3077 2682
0 0 0 0 0 0 0 0 0 0 0 0 25 128 118 218 467 1184 1704 1709 1497 1292 1529 1895 2714 3133 3287 2884 3274 3055 2534 3221 1824 2213 2871 2485 2409 2316 3280 2763 2789 2773 3130 3166 3308 2884 3245 3330 2872
0 0 0 0 0 0 0 0 0 0 0 0 6 17 86 225 457 1110 1579 1878 1631 1329 1516 1746 2485 3122 3408 3403 3170 3258 2722 2968 2943 2048 2846 2331 2873 2544 3824 3120 3062 3097 3164 3514 3367 3225 3197 3003 3149
0 0 0 0 0 0 0 0 0 0 0 0 0 0 53 391 588 943 1632 1891 1910 1504 1571 1709 1972 3022 3460 3499 3417 3341 3443 2777 2737 2882 2612 3500 2564 4129 2858 4036 3351 3236 3180 3267 3530 3032 2804 3364 2875
0 0 0 0 0 0 0 13 0 13 0 0 0 0 24 188 796 886 1334 1817 2105 1843 1646 1802 2064 2646 3305 3699 3697 3477 3495 3648 3254 2546 2862 3135 3921 2935 4060 3603 3444 3431 3123 3209 3183 3222 2415 3046 3125

GFSSGP_con_mucape_033.txt.gz
CAPE
117 0 15 206 391 93 63 52 158 322 124 402 248 473 370 149 134 3 2 0 0 0 429 970 1721 2017 1783 2692 2456 2119 2147 1963 2483 2560 2358 2056 1723 2154 2424 2050 1878 1904 1770 1650 1678 1631 1443 1256 1252
63 121 349 367 158 0 44 75 214 227 146 48 333 422 265 27 206 9 0 0 0 13 347 766 1818 2111 1813 2374 2481 2496 1761 1691 2266 2365 2570 2261 2009 2403 2037 1809 1781 1713 1636 1525 1506 1406 1346 1294 1242
76 377 269 281 180 7 166 236 276 275 378 308 410 232 91 0 4 0 0 0 0 0 324 808 2100 2143 1899 2201 2307 2315 2415 1860 2098 2399 1962 1942 2410 2120 1822 1975 1684 1608 1516 1578 1311 1225 1150 1110 1085
101 411 343 269 209 141 205 206 234 358 522 461 296 7 0 0 0 0 0 0 0 0 430 1735 1972 1727 1984 2266 2097 2050 1854 2217 2138 2492 1998 1894 1708 1630 1707 1614 1684 1529 1482 1593 1437 1290 1207 1103 1238
446 280 277 207 155 227 228 235 479 420 465 431 302 1 2 94 0 0 0 0 0 129 820 1247 2386 2147 2318 2113 1947 2158 2021 2064 2374 2642 1788 1798 1981 1986 1725 1590 1661 1643 1710 1726 1624 1591 1483 1307 1316
624 170 8 12 34 144 247 233 333 556 606 548 199 175 269 60 0 0 0 0 67 421 686 1395 2077 2189 2443 1804 1776 2019 1667 1839 2558 2562 2081 1942 1996 2554 2275 1606 1626 1583 1553 1531 1483 1325 1452 1211 1094
200 13 37 26 8 121 162 362 308 512 442 309 212 327 280 62 0 0 0 12 345 261 755 1378 1644 1625 1774 2343 1755 1772 1648 1758 1890 1827 1804 1867 1764 1758 1917 2197 1999 1473 1425 1413 1391 1372 1502 1365 1173
428 51 0 25 2 136 85 349 322 381 511 343 168 272 212 1 0 0 0 128 351 616 969 1408 1477 1272 1423 1570 1706 1605 1523 1636 1645 1601 1543 1451 1301 1389 1580 2082 2065 1464 1315 1217 1168 1256 1161 1321 1372
545 180 12 149 25 56 110 289 322 663 451 451 536 292 214 130 187 85 57 177 160 489 720 1001 1020 1070 1136 1285 1279 1443 1476 1504 1599 1483 1469 916 916 1176 1092 1699 2003 1439 1310 1277 1016 1171 1605 1278 1216
252 191 118 240 67 40 65 107 222 567 580 416 375 305 211 228 217 102 157 212 98 299 482 548 575 806 832 911 1047 1028 1095 1139 1139 1052 4 361 777 603 1201 1418 2103 1622 1449 1369 1162 1674 1717 2008 440
291 202 227 82 49 57 59 15 59 444 298 382 316 388 379 342 222 329 296 203 151 78 138 238 571 858 509 754 790 933 844 873 828 353 25 231 662 799 1150 977 1333 1071 314 406 459 688 914 834 717
55 159 163 39 34 28 44 46 64 220 430 375 261 285 272 227 240 218 255 301 91 38 41 143 400 684 336 326 597 811 631 587 860 597 365 295 488 874 1074 718 903 830 441 712 883 1073 985 610 455
18 110 22 24 32 22 36 32 40 423 586 431 262 265 218 193 219 226 271 306 206 20 0 70 252 589 491 200 258 562 508 425 803 566 750 570 403 773 788 1211 825 697 634 267 554 845 366 637 249
0 74 64 61 68 69 39 15 27 583 555 378 361 289 236 254 176 277 327 241 264 36 0 68 245 641 405 174 0 67 595 247 824 819 850 852 852 1161 1102 902 551 571 492 506 516 395 1 215 195
0 16 169 47 2 98 109 76 38 654 560 403 438 350 265 285 250 233 233 185 125 93 51 88 69 513 529 698 1141 827 727 160 676 915 1073 1188 816 1388 973 649 883 836 1206 860 931 504 361 118 156
3 7 1 16 34 73 111 79 69 434 581 501 413 443 412 378 446 331 218 135 138 147 146 130 155 592 756 740 882 973 303 559 493 719 764 1130 1291 1450 1134 1208 867 973 1062 1442 1081 688 604 302 272
0 0 0 3 32 62 44 75 171 214 364 559 514 441 421 431 464 486 429 248 139 263 237 278 227 422 1030 718 976 709 746 640 817 930 685 808 1193 1503 1720 1141 865 1142 649 874 929 904 1120 316 235
0 0 0 0 10 69 47 2 134 138 193 369 420 490 446 414 463 523 473 448 265 246 158 247 286 183 774 698 1046 496 383 842 899 792 494 848 1243 1528 1692 1415 1059 784 499 1038 1167 480 31 0 1
0 0 0 0 0 43 34 16 194 204 369 516 313 364 488 447 387 281 414 301 311 468 224 424 520 423 403 903 1016 712 452 760 789 457 781 1014 1429 1663 1977 1649 1210 1215 716 1221 822 385 399 0 0
0 0 0 0 0 30 40 22 218 248 269 123 64 156 362 448 421 404 258 264 250 536 540 378 836 648 408 854 457 1013 1024 741 701 327 1245 1338 1624 1885 1857 1311 1147 1234 1133 1162 857 970 525 59 0
0 0 0 0 0 5 14 31 136 235 133 69 92 196 348 386 372 412 293 293 361 648 480 735 637 924 578 949 857 940 1085 922 818 473 1022 1592 1576 1892 1545 1546 1382 1492 1315 1373 1171 1263 799 58 4
0 0 0 0 0 0 0 23 33 132 85 188 297 433 323 240 291 389 287 307 441 743 605 707 810 1651 1047 1256 1188 967 717 991 971 446 478 1392 1218 1655 1636 1592 1206 1508 1089 791 1158 1270 839 538 0
0 0 0 0 0 0 0 2 0 35 96 248 493 368 244 306 375 335 350 402 406 800 834 664 964 1702 1361 1379 1323 1348 1146 1150 819 594 599 914 1219 1754 2020 1744 1527 1506 1741 1307 993 1139 1323 1281 451
0 0 0 0 0 0 0 0 0 4 26 78 226 374 342 594 313 321 457 406 365 767 1151 1211 1121 1795 1428 1473 1609 1479 1381 953 953 690 507 1110 1073 1262 1716 2094 1777 1754 1583 1346 987 1314 1550 957 1478
0 0 0 0 0 0 0 0 0 0 22 63 184 318 510 370 169 579 513 421 450 917 1255 1621 1624 1868 1712 1303 1398 1990 1369 1214 824 662 751 1249 1570 1368 1608 2086 1820 2051 1581 1714 1355 1333 2005 1307 1210
0 0 0 0 0 0 0 0 0 0 0 23 94 268 378 392 657 643 453 558 579 630 1213 1946 1796 1785 2084 1824 1262 1111 2180 1420 847 1455 731 1139 1385 1559 1505 1864 2213 1783 1777 1831 1615 1602 1799 2014 1254
0 0 0 0 0 0 0 0 0 0 0 0 3 76 224 757 896 552 523 677 702 707 1109 1621 1966 1751 1949 2017 1767 1198 1264 2357 1254 572 1373 1279 1337 1095 1714 1660 2370 2028 1736 1705 2122 1826 1583 2215 1624
0 0 0 0 0 0 0 0 0 0 0 0 0 1 103 860 809 832 723 793 791 793 1009 1235 2095 1868 1859 1790 1959 1729 1269 1465 2188 1116 659 1937 979 1274 1221 1788 1679 2139 2070 1916 1782 2412 2293 1848 2114
0 0 0 0 0 0 0 0 0 0 0 0 0 0 0 223 910 1096 896 841 893 880 991 1200 1694 2067 2034 1927 1780 1962 1620 1265 1891 2071 1064 1249 1829 1588 1300 2087 1748 1942 1935 2321 2053 1802 2344 2391 2095
0 0 0 0 0 0 0 0 0 0 0 0 0 0 6 55 844 1317 1182 1084 985 952 943 1137 1382 2115 2172 2216 1908 2018 2023 1796 1335 2055 2031 639 1799 1716 2492 2447 2152 2252 2023 2048 2459 2173 2138 2235 2363

GFSSGP_con_mucape_036.txt.gz
CAPE
62 13 10 116 162 20 43 76 119 112 144 207 174 118 60 12 34 0 0 0 9 307 729 1266 1981 2083 1973 2130 2091 1969 2003 1956 2107 2131 2057 2090 2101 2138 2133 2063 1959 1727 1773 1814 1738 1537 1381 1490 1167
20 16 138 276 83 2 12 88 126 227 162 225 265 160 89 2 86 0 0 0 60 479 790 1147 1965 2333 2225 2186 2172 2117 1619 1783 2226 2121 2079 2080 1950 1914 1871 2012 1768 1798 1789 1684 1649 1563 1544 1445 1319
55 229 186 205 42 0 61 73 176 297 403 360 133 25 3 7 40 1 0 0 106 408 720 1082 2120 2409 2311 2133 1984 2108 1751 1866 1878 2046 1987 1897 1954 2004 1952 1775 1687 1694 1566 1446 1401 1309 1281 1276 1203
140 480 359 112 117 34 42 65 261 249 238 383 54 0 0 0 0 0 0 0 47 335 793 1760 1958 1862 2076 1811 2078 1913 1866 1989 1856 1969 1874 1759 1800 1937 1728 1788 1687 1636 1708 1554 1414 1309 1168 1202 1223
199 152 183 147 75 146 155 228 425 373 285 231 54 0 2 0 0 0 0 0 51 301 1042 1392 2291 2455 2122 1769 1891 1863 1941 2015 2010 2112 2060 2142 1916 1804 1827 1828 1803 1888 1846 1739 1659 1575 1424 1369 1239
207 15 8 21 2 84 139 157 445 365 283 194 30 93 0 0 0 0 0 0 186 620 1061 1591 2139 2333 2253 1730 1913 1855 2123 1896 2174 2053 1859 2068 2270 1854 1812 1794 1744 1640 1609 1498 1315 1459 1414 980 1280
106 0 6 25 57 145 134 209 216 416 279 174 17 60 0 0 0 0 0 20 417 718 1181 1418 1456 1508 1695 2067 1868 1655 1803 1909 1972 2003 1973 1964 1913 1916 1781 1861 1773 1557 1494 1442 1382 1326 1312 1288 1077
409 14 4 7 30 77 334 201 439 482 331 176 121 2 0 0 0 0 10 329 334 669 1229 1450 1389 1267 1524 1566 1667 1676 1787 1775 1744 1692 1627 1558 1624 1652 1690 1907 2205 1403 1269 1202 1213 1219 1552 1557 1418
353 14 1 8 1 15 74 127 370 359 241 206 248 199 0 0 1 70 210 423 411 942 1222 1454 1237 1278 1388 1352 1269 1417 1659 1650 1572 1495 1531 1462 929 1106 1298 1448 1793 1355 1135 1070 1162 1276 1561 1491 1461
438 0 0 17 44 52 161 160 340 309 338 296 435 81 19 12 13 108 240 361 551 728 1148 1243 1020 1013 1230 1291 1155 1020 1072 1146 1215 1141 452 562 603 854 1020 1460 1595 1368 1184 1356 1894 1639 1264 1355 352
265 41 24 74 78 31 40 102 401 419 426 380 193 59 28 27 32 142 315 438 546 625 844 843 729 857 1033 906 979 868 913 943 868 643 0 301 347 534 944 1029 1227 642 272 419 417 560 790 888 645
215 253 225 115 63 31 30 149 545 401 384 291 185 91 117 129 167 208 322 380 435 517 608 537 556 749 707 751 671 592 626 627 665 197 0 322 489 557 754 476 450 573 292 446 598 684 799 769 83
101 83 116 119 63 32 19 125 33 281 447 272 129 219 230 163 195 283 312 187 302 268 306 331 533 622 442 427 189 484 445 475 600 468 340 338 374 580 663 675 498 488 419 289 459 636 527 286 56
75 65 17 46 37 37 33 50 249 494 406 322 174 221 253 251 323 354 301 172 195 128 185 200 517 539 305 151 23 320 387 399 369 523 452 388 537 817 800 754 544 637 419 351 317 484 19 64 102
0 0 0 13 16 13 36 9 557 449 424 357 276 266 233 284 349 327 263 243 150 124 89 108 291 502 220 162 0 103 270 279 338 540 372 539 692 942 711 748 426 434 474 546 446 314 126 61 99
0 0 0 15 35 30 31 11 561 512 456 254 210 191 160 226 280 269 270 192 269 67 43 72 186 412 138 141 105 250 53 215 470 599 594 809 502 1131 890 604 563 592 690 873 833 425 269 175 178
0 0 0 0 37 46 48 50 588 492 377 274 213 188 178 199 138 125 247 181 253 188 22 19 87 496 122 400 570 528 259 289 399 649 585 999 1262 1192 901 816 660 617 745 892 633 591 837 304 271
0 0 0 0 0 28 61 29 507 443 422 365 289 255 267 229 191 125 130 153 148 165 77 71 34 421 287 486 384 374 283 267 647 626 516 963 889 1460 1183 863 728 881 471 724 799 231 0 0 33
0 0 0 0 0 3 18 133 484 571 364 440 386 376 377 382 291 281 180 149 92 116 184 69 31 198 486 489 364 245 176 86 324 645 457 494 815 1151 1264 1139 1041 644 547 839 384 114 20 0 3
0 0 0 0 0 0 56 109 444 529 365 432 449 419 434 495 393 325 278 198 160 97 210 133 82 61 440 278 373 194 111 44 176 548 427 325 833 1128 1353 1285 1048 958 672 897 670 678 209 0 0
0 0 0 0 0 17 40 107 133 281 396 421 450 376 433 443 437 379 327 261 178 121 189 217 116 0 187 317 397 616 417 279 292 512 721 480 949 1283 1504 1098 1073 883 881 945 761 804 362 0 0
0 0 0 0 0 0 0 39 109 175 225 160 231 113 299 401 352 363 315 369 318 197 202 196 179 103 129 419 220 426 447 631 562 425 401 798 1054 1298 1429 1188 1194 1091 1249 1043 913 1052 492 172 0
0 0 0 0 0 0 0 0 91 128 76 36 66 57 101 303 368 284 271 247 363 241 269 207 440 287 268 562 295 285 405 695 887 711 509 789 995 1343 1339 1092 1130 932 1167 924 779 1113 719 584 3
0 0 0 0 0 0 0 0 0 56 38 112 142 70 56 222 378 332 293 237 194 211 226 262 686 424 346 652 535 413 363 388 561 835 723 467 909 1065 1390 1200 1211 1009 1240 1029 1007 752 1299 834 861
0 0 0 0 2 0 0 0 0 20 40 91 103 69 73 242 361 377 307 309 265 358 293 358 452 995 702 674 797 687 620 629 617 730 697 527 691 832 1134 1508 1398 1601 1320 1408 1168 938 1283 949 1168
0 0 0 0 0 0 0 0 0 0 9 52 29 113 189 319 364 365 339 340 311 467 483 357 518 817 1026 913 832 881 859 762 679 837 781 485 741 682 739 1453 1782 1782 1551 1314 1054 1052 1155 1475 779
0 0 0 0 0 0 0 0 0 0 0 0 22 109 330 289 270 204 337 356 311 477 680 572 524 627 1136 1025 1095 1177 1077 989 949 961 659 643 727 1013 882 1045 1530 1590 1630 1417 1323 1219 1031 1635 1626
0 0 0 0 0 0 0 0 0 0 0 0 0 116 418 460 353 329 462 415 346 513 747 862 815 720 1174 1205 1005 1004 1305 1534 1076 999 937 1135 902 982 1280 1156 1536 1616 1715 1656 1410 1540 1299 1420 1694
0 0 0 0 0 0 0 0 0 0 0 0 1 26 328 522 468 485 364 456 465 473 733 1256 1196 1065 1325 1499 1433 1148 913 927 1817 1431 1058 717 1124 1383 1072 1407 1348 1697 1673 1772 1547 1517 1775 1557 1551
0 0 0 0 0 0 0 0 0 0 0 0 0 131 181 262 443 626 529 485 541 541 749 1185 1599 1394 1389 1677 1685 1585 1379 987 929 1814 1811 1215 682 1071 1680 1255 1424 1544 1736 1732 1701 1440 1529 2190 2270

GFSSGP_con_mucape_039.txt.gz
CAPE
103 23 5 76 101 26 16 102 169 33 175 355 81 35 28 1 7 0 0 0 102 305 676 1323 2093 2107 1825 1774 2152 1994 1826 2135 2168 2078 1992 1962 2055 2036 1911 1798 1838 1829 1705 1682 1631 1565 1408 1316 1419
51 21 105 202 144 0 20 78 157 171 144 198 213 130 53 5 0 0 0 18 271 541 979 1220 2167 2191 1962 1716 2163 2091 1951 1927 1795 2036 2162 2077 2118 2069 2004 1976 2055 1841 1811 1584 1588 1653 1415 1364 1367
9 81 94 282 4 0 4 24 140 277 269 356 215 191 76 3 1 0 0 141 433 824 1140 1407 2274 2353 2050 1741 1832 1787 2061 1652 1973 2002 1979 2008 2027 1907 1890 1880 1777 1682 1625 1522 1486 1452 1326 1162 1251
40 223 288 247 136 35 20 82 104 357 305 256 176 141 56 0 0 0 0 281 520 763 1098 1876 1877 2017 1620 1885 1894 1914 1877 1900 2207 2246 2025 2112 2172 1804 1813 1797 1764 1774 1584 1483 1444 1364 1260 1241 1024
124 169 152 230 62 38 58 301 363 263 251 198 143 9 0 0 0 0 19 227 393 741 1136 1438 2309 2120 1788 2040 1973 1947 1993 1898 2064 2306 1877 1836 1902 1929 1889 1851 1946 1888 1797 1708 1605 1505 1424 1132 1197
166 20 20 20 0 46 47 89 331 474 245 90 59 4 0 0 0 0 3 116 426 918 1192 1499 2022 1811 2032 1624 2077 1906 2161 1987 2062 2097 2175 2093 1989 2019 1936 1903 1862 1750 1463 1387 1518 1328 1280 1320 1144
202 7 8 1 8 31 162 184 346 368 166 64 45 0 0 0 0 0 0 85 461 964 1304 1473 1651 1274 1754 1865 1873 2223 1951 2288 2198 2142 2219 2062 2020 1942 1929 1901 1860 1649 1436 1245 1194 1240 1249 1088 1207
368 1 2 3 18 92 239 124 163 259 185 57 18 5 0 0 0 0 18 302 576 1062 1282 1381 1388 1168 1511 1612 1642 1933 1992 2057 2069 1889 1849 1791 1929 1885 1787 2012 2060 1559 1385 1286 1240 1251 1362 1398 1273
524 61 1 21 30 27 64 115 328 360 176 207 144 9 10 3 8 1 203 380 554 1025 1212 1328 1260 1288 1370 1378 1296 1717 1882 1821 1717 1546 1617 1597 1283 1327 1319 1424 1511 1400 1222 1124 1189 1443 1166 1214 1399
271 0 2 14 3 42 33 199 565 300 283 180 198 46 13 34 13 28 174 309 382 782 1194 1294 1172 1190 1275 1310 1132 1319 1406 1307 1310 1245 1148 657 905 911 954 1452 1559 1309 1286 1416 1554 1409 1322 1197 184
382 143 13 36 34 26 61 181 225 329 372 227 149 21 20 50 28 88 268 319 365 700 1088 1191 1029 1052 1190 1183 1095 968 1154 1140 1125 812 263 362 351 437 986 909 1296 363 322 388 359 643 757 517 586
295 277 221 146 74 79 123 157 329 408 432 351 243 43 44 52 55 159 384 379 395 670 928 1058 809 839 1041 956 976 761 786 834 688 464 147 335 399 565 628 693 518 478 234 319 471 477 757 500 39
124 207 157 235 235 162 73 238 464 421 400 410 174 24 32 40 83 114 267 369 377 478 625 789 564 611 723 557 720 478 473 525 533 478 130 336 515 447 646 544 301 306 328 342 311 438 213 78 52
43 84 158 75 46 95 88 254 403 424 359 181 83 30 16 27 82 139 224 356 326 332 386 436 379 524 499 379 309 224 234 354 462 583 302 276 427 492 533 606 395 501 543 389 268 447 25 50 70
5 19 20 25 1 39 58 30 55 382 276 159 58 0 19 33 99 160 166 216 299 182 198 175 250 434 384 238 56 38 207 259 339 442 535 415 469 715 780 646 576 385 335 231 225 395 126 61 74
0 2 0 1 12 20 49 4 547 360 266 149 109 42 5 30 135 181 173 130 123 90 88 61 183 345 302 171 73 17 110 240 289 346 447 424 576 881 579 530 448 394 463 527 346 391 242 96 74
0 0 0 0 0 7 39 77 491 350 298 210 151 117 100 91 170 202 164 130 88 95 41 31 64 291 281 68 61 7 29 120 204 320 396 414 575 817 798 700 570 518 659 707 591 537 644 157 167
0 0 0 0 0 0 20 52 432 398 361 291 194 161 135 105 189 202 144 65 88 60 41 0 0 157 247 43 62 80 289 244 366 461 474 452 835 1201 785 854 583 523 623 412 427 78 0 36 55
0 0 0 10 23 4 13 12 423 381 367 259 206 168 120 94 122 169 175 89 61 90 5 0 0 16 172 130 107 270 348 244 551 580 565 433 998 1295 874 792 730 685 498 569 494 50 0 0 12
0 0 0 35 56 0 0 3 439 328 389 299 200 173 151 108 104 113 155 160 31 131 95 16 0 0 195 107 182 360 201 36 118 523 571 416 832 1103 1279 812 929 666 607 735 457 228 0 0 0
0 0 0 23 38 10 2 43 14 336 323 319 261 183 142 118 114 110 81 100 114 30 56 46 0 0 119 137 168 205 72 25 54 215 495 421 431 787 1191 1152 1080 877 804 596 531 569 30 0 0
0 0 0 0 73 18 14 33 353 321 288 312 368 258 217 165 140 170 197 106 95 0 0 30 0 0 19 194 189 124 37 32 3 17 351 417 444 794 1238 1170 929 879 881 858 738 695 387 0 0
0 0 0 0 77 49 2 0 47 361 288 317 356 378 361 298 225 234 247 239 185 75 3 0 14 20 35 81 79 51 8 0 58 92 243 447 530 788 1197 1292 981 1064 993 1110 944 825 706 301 0
0 0 0 0 55 28 4 0 0 2 284 343 379 367 371 393 366 333 282 274 312 173 98 25 23 88 83 109 20 2 26 70 327 409 339 411 618 706 1077 1226 1158 988 895 1067 930 680 781 524 92
0 0 0 0 20 0 0 0 0 0 17 194 300 291 241 278 354 349 268 294 304 354 221 173 87 75 142 122 37 4 28 48 195 456 499 541 500 718 892 1170 1177 985 991 964 973 804 731 1064 842
0 0 0 0 0 0 0 0 0 0 3 47 109 128 129 129 118 285 331 318 292 336 324 276 196 106 160 65 124 76 79 26 64 201 482 667 654 582 725 1093 1273 1081 1122 1379 1155 1201 1061 959 845
0 0 0 0 0 0 0 0 0 0 0 0 51 60 47 104 113 189 347 375 322 308 295 318 296 225 214 126 228 250 178 201 197 226 201 299 673 649 586 785 1099 1198 1240 1576 1535 1144 955 976 1186
0 0 0 0 0 0 0 0 0 0 0 0 37 45 46 65 100 123 264 348 383 337 287 269 235 307 344 283 326 409 420 416 436 424 418 372 694 697 578 619 905 1255 1418 1594 1579 1366 1020 1070 1079
0 0 0 0 0 0 0 0 0 0 0 0 0 2 71 65 105 136 255 361 369 374 306 270 257 247 479 538 501 544 639 648 614 657 606 548 631 648 817 827 829 1017 1108 1270 1482 1566 1356 1099 1025
2 0 13 0 0 0 0 0 0 0 0 0 0 0 20 123 194 218 221 350 371 355 360 424 298 311 394 696 644 699 838 984 1013 802 813 784 779 845 837 947 1032 1066 1202 1229 1320 1554 1639 1360 1336

GFSSGP_con_mucape_042.txt.gz
CAPE
91 18 3 85 25 18 0 17 90 134 2 56 4 0 6 0 0 0 0 0 6 78 850 1156 1966 1912 1529 1932 2098 1983 1983 2083 2070 2219 2258 2053 1936 1777 1781 1882 1851 1832 1810 1679 1660 1424 1412 1144 1418
45 29 110 146 87 0 6 107 78 89 221 188 7 16 120 10 0 2 1 18 78 407 880 1151 1954 1912 1741 1885 1923 1959 2170 2027 2117 2051 2105 2060 1944 1948 1847 1928 1967 1949 1552 1296 1653 1322 1437 1415 1379
37 35 148 209 1 0 2 15 91 188 292 173 48 90 104 9 4 2 0 123 309 718 982 1296 1952 2065 1729 1862 1988 2234 1643 1892 2160 2027 1920 1855 1931 1880 1953 1973 1878 1796 1673 1501 1609 1322 1283 1203 1264
18 156 232 460 62 16 12 79 113 108 174 280 143 149 81 43 2 0 88 293 459 878 1132 1819 1885 1628 1868 1810 1951 1790 1802 2141 2068 2070 1933 1785 1950 1857 1912 1856 1805 1645 1602 1649 1500 1273 1220 1058 1124
169 308 136 168 65 49 38 399 393 420 233 165 141 119 32 11 0 54 201 344 572 922 1148 1271 2137 1958 1923 1826 1894 1856 1989 2060 2062 2013 1752 1937 1897 1932 1912 1889 1829 1738 1664 1603 1599 1363 1156 1254 1127
249 56 33 12 8 47 118 190 121 393 147 150 174 78 12 0 8 81 205 378 613 960 1133 1309 1789 1598 2009 1864 1934 1814 1919 2086 2078 2137 2069 2064 2101 2041 1976 1884 1756 1600 1537 1482 1480 1441 1322 1270 1373
309 86 4 0 0 64 226 89 307 313 225 83 65 26 0 0 6 66 207 401 738 936 1138 1372 1103 1576 1742 1816 1810 2051 1862 2096 2048 2072 2212 2081 2038 2013 1921 1811 1619 1330 1243 1217 1279 1237 1214 1398 1403
253 0 14 2 22 115 77 105 154 214 144 61 11 0 0 4 3 65 158 516 796 1000 1204 1450 1018 1277 1240 1546 1992 1875 2166 2245 2190 2146 2010 2010 1928 1794 1845 2056 1700 1390 1281 1225 1129 1115 1165 1334 1515
494 90 20 4 21 41 53 208 286 255 122 10 0 26 0 1 0 52 185 490 728 1028 1212 1414 1013 1146 1340 1209 1614 1807 1977 1863 1801 1659 1774 1608 1468 1257 1267 1596 1522 1287 1196 1305 1527 1450 1202 1229 1294
262 100 6 5 0 14 61 387 538 322 94 68 56 0 0 8 0 58 98 139 564 788 1173 1266 1056 1169 1253 1195 1358 1461 1514 1354 1262 1275 1153 836 879 938 1003 1497 1373 1284 1364 1647 1576 1430 1531 783 576
360 140 0 26 1 19 51 166 286 347 187 43 28 34 2 8 22 57 72 37 232 503 822 1195 1050 1062 1128 1147 1191 1280 1327 1166 1129 808 487 586 707 680 945 683 1013 347 378 338 520 698 765 505 510
287 271 167 193 48 45 75 114 115 280 265 256 35 77 16 6 31 74 84 97 231 395 590 1078 1003 894 998 1009 934 927 1031 960 829 377 201 235 194 384 556 545 528 376 234 337 355 528 338 169 42
228 261 194 290 210 123 102 84 111 326 288 209 129 128 25 2 44 85 98 166 229 384 554 942 914 747 865 794 811 611 616 618 468 293 191 280 397 491 549 443 198 298 314 282 239 427 46 66 66
10 44 74 94 126 81 53 102 222 307 314 259 206 69 12 17 48 84 178 174 224 257 569 772 756 551 627 609 512 404 299 340 326 407 195 298 389 356 435 518 408 379 470 332 193 173 43 59 94
11 54 41 70 105 18 10 159 230 233 304 307 76 15 0 27 21 64 222 244 247 154 311 509 542 341 304 352 133 173 154 199 276 453 421 257 397 418 381 461 554 406 351 166 296 260 78 65 78
5 29 15 37 51 51 30 17 226 266 245 164 96 0 5 11 12 57 131 243 206 134 146 196 237 178 215 157 76 0 98 124 184 254 292 435 381 589 660 485 492 338 441 441 440 302 224 87 69
0 18 17 28 26 40 45 49 403 275 252 138 129 1 4 0 21 77 84 188 219 172 60 48 91 107 130 136 42 0 0 70 136 253 225 307 412 619 652 452 407 408 512 606 619 331 462 179 113
0 0 32 13 28 28 71 63 405 299 260 190 109 19 10 6 27 49 101 106 174 198 29 0 0 82 70 99 5 0 0 7 65 191 255 261 388 693 827 508 463 492 517 396 355 82 34 68 88
0 0 0 9 21 0 25 58 444 334 273 175 157 35 0 11 19 70 96 95 92 136 31 0 0 0 50 57 0 0 0 65 234 267 376 330 501 968 955 705 446 442 412 446 339 63 0 28 14
0 0 0 0 42 15 3 13 383 366 279 215 210 117 28 20 29 62 94 106 105 85 59 13 0 0 18 0 0 0 40 168 307 461 477 433 542 1006 1068 658 567 453 408 545 333 102 12 0 0
0 0 0 0 33 61 18 19 143 292 289 232 166 81 49 50 39 57 59 85 57 40 35 29 11 0 0 0 0 0 27 230 66 202 441 493 440 740 1152 1119 656 695 564 576 472 255 0 0 0
0 0 0 0 6 37 35 4 19 252 242 229 193 141 69 79 63 49 43 47 58 36 32 34 0 0 0 0 0 26 65 210 136 0 302 364 303 582 917 989 1002 858 722 681 550 399 196 0 0
0 0 0 0 0 45 54 23 0 133 159 273 268 269 161 85 77 74 50 35 99 20 15 37 68 1 0 0 0 15 50 107 42 0 0 319 292 408 933 934 958 809 747 720 832 639 521 114 0
0 0 0 0 0 5 5 22 0 34 219 283 286 277 252 158 89 88 65 35 7 14 3 0 3 89 15 0 0 0 5 33 8 0 0 57 306 385 729 1009 1017 926 920 817 963 865 634 420 160
0 0 0 0 0 0 0 24 0 0 223 261 256 270 264 312 125 113 82 68 44 0 0 0 15 23 41 20 0 0 11 9 15 0 0 0 183 381 550 798 915 1015 929 826 945 943 691 584 527
0 0 0 0 0 0 0 0 0 0 0 276 304 264 227 265 276 163 127 120 90 84 55 0 0 0 12 49 20 0 74 0 0 0 0 0 64 327 519 699 823 878 948 879 851 931 849 922 782
0 0 0 0 0 0 0 0 0 0 0 0 144 218 211 266 283 262 252 214 196 161 180 174 79 42 63 27 36 32 65 95 5 0 10 24 76 261 445 628 927 906 962 948 993 1355 1024 1051 992
0 0 0 0 0 0 0 0 0 0 0 0 0 48 144 205 249 244 224 246 232 240 238 203 265 195 152 136 76 106 115 121 77 39 10 45 125 368 503 570 795 989 1034 1015 1024 1304 1509 1159 984
0 0 0 0 0 0 0 0 0 0 0 0 0 23 84 122 121 116 130 161 184 158 206 224 231 288 245 220 165 130 168 126 117 120 58 65 120 155 360 583 579 899 1069 1142 1111 1345 1505 1426 1235
0 0 0 0 0 0 0 0 0 0 0 0 0 2 70 95 95 76 66 108 170 182 180 207 207 244 293 298 279 213 244 266 267 264 183 176 241 259 417 596 582 713 947 1047 1151 1218 1360 1419 1519

GFSSGP_con_mucape_045.txt.gz
CAPE
32 6 13 114 43 62 15 87 137 184 0 28 0 0 3 5 2 6 6 4 14 111 705 1173 1807 1897 1866 2025 1990 2194 2300 2105 2193 2180 2108 2284 1985 2000 1944 1831 1892 1857 1760 1722 1577 1511 1222 1403 1778
15 11 84 113 0 28 66 130 139 154 57 172 0 18 23 11 2 5 13 19 14 134 844 888 1724 2105 1910 2031 2270 2105 2166 1905 1982 2131 2176 1934 1912 1879 2000 1880 1712 1604 1552 1689 1424 1513 1602 1627 1752
20 16 148 129 57 0 52 42 81 296 353 59 12 49 55 29 5 1 1 27 87 383 938 1228 1661 1968 1781 1732 2126 2127 2094 2119 2101 2126 1958 1907 1783 1723 1744 1805 1713 1624 1399 1759 1418 1418 1177 1238 1095
12 95 196 276 113 0 21 66 57 304 168 93 65 51 58 74 0 2 30 42 212 644 666 1460 1538 1812 1944 2056 2019 1740 2067 2140 2081 2032 1994 1832 1930 1932 1862 1819 1712 1710 1691 1547 1328 1368 1247 1282 1259
112 382 184 311 92 91 70 339 364 498 319 223 64 77 108 27 0 13 68 109 254 397 836 1000 2054 2172 1790 1949 1723 2108 2067 1803 1834 1779 1959 1993 1997 1955 1930 1806 1759 1696 1619 1505 1404 1260 1269 1162 1222
346 95 42 34 39 64 326 263 374 609 113 62 89 90 57 15 18 47 75 165 337 360 773 1244 1700 1795 2016 1885 1873 1942 1953 1908 1990 2079 2097 2031 2056 2019 1901 1758 1611 1516 1572 1566 1460 1406 1361 1185 1436
401 102 5 2 28 120 374 197 473 605 108 77 91 80 53 0 37 54 114 269 428 470 768 1372 906 1624 1812 1781 1833 1864 1892 2063 2104 2226 2145 2110 2007 1952 1835 1614 1400 1315 1315 1293 1182 1266 1403 1376 1354
239 0 4 21 41 236 148 236 369 380 131 125 71 18 14 20 35 108 183 280 529 549 1022 1286 1025 1573 1593 1727 1852 1798 1911 2003 2234 2129 2041 2008 2030 1957 1862 2045 1820 1271 1086 915 997 1219 1185 1435 1712
168 83 119 14 23 145 65 353 374 218 110 31 20 0 0 11 40 118 201 392 683 712 1059 934 1354 1322 1814 1840 1784 1858 1860 2012 1920 1929 2185 1944 1851 1775 1326 1561 1374 1281 1220 1454 1453 1025 1196 1403 1628
385 139 55 0 1 57 148 682 626 285 71 26 0 1 7 18 17 84 136 221 431 680 1004 909 903 1051 1366 1469 1729 1809 1498 1311 1474 1761 1876 1925 1649 1455 1124 1160 1416 1387 1446 1361 1653 1768 1337 783 1208
265 128 19 0 0 25 156 658 582 320 157 64 0 4 3 16 39 35 58 134 235 546 984 1204 950 1404 1157 1369 1509 1564 1477 1471 1651 1699 1223 1495 1340 1350 1326 1125 1334 928 840 1035 1315 1404 1170 1410 849
355 340 224 186 21 22 45 199 319 445 402 201 4 0 2 7 37 65 51 146 229 385 723 1220 947 1328 1177 1407 1347 1444 1331 1341 1236 990 1055 1259 1056 1302 1351 1058 1176 1133 1096 1280 1246 1359 1010 802 994
192 333 289 244 179 157 175 180 136 313 320 172 133 8 10 0 1 17 25 93 308 466 693 1026 1062 1175 1292 1425 1195 1227 1272 1128 981 780 461 731 988 1492 1353 1212 927 1140 1267 878 1068 1084 710 869 555
0 79 192 88 114 101 113 87 105 380 171 181 117 55 35 0 0 6 75 90 181 288 422 896 1076 998 1169 1001 1299 1118 1097 955 842 713 299 702 1142 1462 1625 1912 1221 1446 1473 1240 1241 752 539 752 1040
0 0 17 89 93 95 17 49 224 197 225 194 173 127 22 6 0 6 83 141 136 202 381 778 966 911 1016 983 1006 770 655 670 927 1159 469 559 1103 1080 1442 1573 2036 1451 1356 1034 1491 1268 839 546 803
0 0 3 100 94 108 6 104 234 145 142 229 243 78 12 0 0 24 46 111 201 273 361 751 616 673 708 706 732 466 347 502 899 1115 1243 1124 1063 1078 1762 1618 1462 1424 1318 1239 1344 1187 630 475 397
0 0 41 109 69 62 48 113 369 180 206 117 121 32 0 0 1 25 70 117 228 428 453 538 690 625 539 571 511 363 338 481 725 883 1024 1286 1293 1295 1678 1525 1576 1675 1638 1639 1400 1478 1259 805 303
0 0 20 115 83 88 93 114 628 435 195 88 73 73 0 8 9 34 80 171 379 469 453 420 568 673 633 496 601 299 63 246 598 749 863 1128 1301 1383 1803 1562 1619 1552 1896 1447 1412 416 84 660 646
0 0 0 72 84 84 116 126 522 623 389 116 91 99 3 0 0 27 95 188 404 482 421 425 449 683 518 385 364 248 79 193 512 828 1154 1343 1361 1638 2002 1651 1546 1596 1593 1547 1423 490 261 93 107
0 0 0 35 67 59 66 99 137 630 598 423 87 84 100 1 1 35 121 151 281 471 440 458 429 681 684 428 674 234 468 639 911 1250 1399 1468 1423 1901 2127 1891 1652 1625 1472 1785 1431 1109 75 64 55
0 0 0 3 53 35 39 37 0 531 582 531 415 98 99 19 16 29 122 235 200 355 420 454 556 671 754 762 581 608 742 747 835 1147 1464 1489 1479 1864 2255 1946 1683 1674 2060 2382 1712 1157 331 46 137
0 0 0 0 16 44 33 8 14 38 605 582 528 447 230 112 12 16 113 223 213 267 303 600 632 633 681 930 794 1192 578 607 777 1004 1215 1565 1561 1638 2017 2288 1956 2148 1678 2021 1725 1475 734 291 163
0 0 0 0 0 0 0 1 6 83 177 493 611 552 462 310 142 92 95 206 196 240 219 196 684 975 1086 1172 1192 936 1017 657 858 806 1243 1728 1690 1629 1699 2035 1986 2236 2148 2030 1993 1923 1648 331 79
0 0 0 0 0 0 0 0 0 0 131 421 555 602 591 451 366 281 184 206 219 213 225 208 648 933 1059 1009 1012 1513 1674 1231 810 944 814 958 1310 1431 1625 1819 2113 2138 2024 2143 2087 2170 1972 1592 691
0 0 0 0 0 0 0 0 0 0 15 148 441 620 624 569 465 396 296 256 306 528 378 489 591 720 811 957 1125 1245 1592 1797 1449 1265 835 957 748 1191 1594 1928 2111 2054 2300 2231 2093 2234 1952 1961 1566
0 0 0 0 0 0 0 0 0 0 0 25 224 455 594 673 549 489 380 533 567 654 802 423 694 771 791 856 1183 1374 1575 779 757 1244 722 691 534 768 1422 1933 1927 2112 2230 2225 2196 1979 1986 1975 1947
0 0 0 0 0 0 0 0 0 0 0 0 32 279 587 733 662 581 491 527 713 683 735 786 840 811 771 543 1077 1279 1408 1365 990 1538 1246 747 1192 600 1326 1760 1886 1980 2083 2212 2292 2054 2301 2105 2270
0 0 0 0 0 0 0 0 0 0 0 0 0 88 406 624 768 691 640 606 748 633 686 748 773 864 867 760 882 936 1221 1322 1374 1376 1444 1406 903 991 990 1783 1893 2061 2097 2225 2394 2086 2313 2550 2347
0 0 0 0 0 0 0 0 0 0 0 0 0 0 107 471 703 765 902 910 777 553 685 772 667 908 835 847 882 1011 981 1012 1143 994 1094 1594 1159 1319 1550 1862 1947 2063 2133 2249 2476 2396 2245 2552 2633
0 0 0 43 0 0 0 0 0 0 0 0 0 0 5 189 495 755 816 799 818 999 892 766 840 634 821 869 968 975 964 1021 875 1264 997 1387 1669 1389 1620 1702 1908 2031 2060 2141 2333 2266 1998 2454 2522

GFSSGP_con_mucape_048.txt.gz
CAPE
13 7 17 92 320 268 139 254 582 541 212 137 2 10 63 97 240 490 174 214 2 159 477 1000 2031 1959 2256 2241 2071 2200 1939 1994 1993 2058 2333 2061 1999 2007 1748 1847 1872 1868 1895 1753 1572 1355 1542 1702 1184
7 2 53 214 68 181 240 393 407 382 290 45 54 13 93 150 31 72 170 89 121 94 183 702 1909 2146 1943 2103 2295 2294 2236 2220 2220 2099 1977 2109 1920 1669 1904 1991 1811 1799 1720 1593 1633 1747 1801 1849 1671
2 3 58 34 137 98 229 422 622 381 346 45 164 220 238 179 50 144 153 57 12 90 137 1304 1852 1983 2088 2117 2139 2148 1809 1972 1960 1874 1951 1994 1914 1898 1934 1856 1584 1526 1741 1564 1510 1283 1324 1228 1271
0 157 94 163 150 17 185 296 105 627 168 162 221 315 129 56 81 170 111 3 65 168 244 1360 1760 1883 1732 1955 2067 2003 2005 2040 2029 1950 1977 1888 1855 1728 1926 1840 1928 1791 1674 1448 1500 1293 1320 1394 1461
64 562 110 525 257 360 93 127 532 660 510 187 127 205 77 113 25 134 34 4 101 163 398 1140 1894 2290 1786 1920 1919 1981 1984 1998 2082 1952 1949 1697 1829 1978 1862 1838 1760 1787 1536 1467 1415 1274 1232 1394 1669
409 212 424 43 84 162 688 640 391 656 245 166 234 77 83 73 29 159 21 40 61 168 305 947 1559 1800 1725 1677 1916 2046 1966 1904 2009 2039 2045 2105 2094 2013 1888 1750 1685 1719 1667 1516 1396 1348 1212 1502 1837
688 649 490 177 46 126 613 541 634 574 261 303 111 164 113 82 74 156 73 35 70 180 415 714 1289 1622 1581 1993 1884 1909 1843 1927 2093 1925 2157 2194 2085 1863 1721 1555 1522 1462 1345 1188 1105 1236 1329 1397 1894
789 278 219 82 185 555 555 785 522 416 457 79 85 308 87 139 91 120 72 94 95 200 565 507 898 1092 1428 1505 1792 1861 2020 1871 2071 2153 2138 2104 2036 1839 1616 1934 1793 1173 990 1095 1234 1129 1281 1645 1780
512 411 413 92 196 649 410 388 303 227 72 143 86 46 123 103 117 67 119 99 138 196 625 284 756 1130 1407 1424 1722 1846 1859 2053 2053 2101 2188 1859 983 871 1343 1770 1411 1411 1292 992 979 1110 1338 1563 1749
345 241 109 120 92 265 423 416 583 615 358 117 43 36 89 63 103 118 121 147 89 203 488 365 1099 1065 1405 1158 1589 1699 1597 1385 1332 1496 1585 1183 1061 1059 765 1365 1437 1240 1236 1597 1605 1322 1205 1410 1261
245 181 197 106 67 362 898 973 1032 721 625 336 119 127 32 114 201 200 100 59 54 149 197 243 694 887 1329 1813 1524 1419 1031 1226 1474 1641 1426 1286 1008 531 796 1161 1228 1091 1240 1201 1386 1515 1098 1095 942
29 188 244 185 133 328 445 597 661 365 753 576 127 138 132 95 100 123 57 13 28 115 245 235 568 898 1061 1320 883 822 823 859 965 1105 1467 1456 1171 956 826 970 990 1100 1064 1115 1174 776 966 886 1309
0 155 441 173 194 184 168 380 209 520 679 455 131 95 79 42 64 74 43 12 65 135 312 285 552 1028 1132 1379 873 813 901 908 844 1043 1179 866 964 1219 1108 1201 1043 1030 971 813 843 758 854 1206 988
0 1 317 244 455 296 225 315 142 478 693 466 214 127 76 51 65 80 43 8 116 153 285 367 497 886 1110 1244 1273 1363 1133 1049 821 705 672 1235 1290 1794 1061 954 1182 1506 1145 974 794 684 375 164 492
0 0 37 88 112 268 207 176 209 764 604 517 390 186 110 47 81 87 65 56 117 145 319 426 503 637 1000 1156 1322 1038 905 747 992 954 1181 1573 1799 1905 1114 1118 1079 1401 1313 1365 1057 663 355 116 148
0 0 0 46 79 108 182 293 459 701 704 636 452 217 109 55 62 76 73 58 102 55 207 490 257 274 711 786 934 584 669 906 1080 1266 1352 1433 1686 1718 1696 1067 1155 1385 1035 790 341 120 446 400 82
0 0 0 3 95 255 260 338 793 606 703 704 526 297 126 65 56 62 77 58 17 72 230 495 426 259 378 652 518 552 785 970 1097 1152 1236 1859 1741 1829 1727 1300 1942 1474 1064 1088 454 234 304 149 74
0 0 0 8 80 346 384 337 815 629 725 758 609 417 206 91 63 53 51 51 60 99 217 470 497 479 528 479 523 361 651 990 1131 1199 1207 1747 1698 1854 2113 1553 1382 1242 753 967 959 529 314 202 87
0 0 0 4 18 195 373 364 518 878 714 688 658 518 291 167 62 47 48 42 94 176 425 440 562 744 706 397 183 371 604 683 901 973 1370 1914 1794 1971 2410 1870 1118 1258 795 862 1220 585 952 176 133
0 0 0 0 75 32 315 359 310 994 851 697 603 470 288 121 75 41 56 112 158 321 502 637 665 893 975 273 439 338 553 511 770 1234 1837 2006 1957 2198 2085 1594 1157 1449 1425 819 867 1161 220 111 101
0 0 0 0 1 76 80 290 293 410 917 843 637 464 302 131 138 109 108 164 219 468 620 776 906 943 1039 707 222 556 640 916 1199 1529 1541 1857 2027 2167 2243 1626 1430 1050 1192 976 1255 1352 681 113 222
0 0 0 0 0 2 20 140 202 229 712 831 946 649 382 231 137 189 234 311 268 450 664 826 1088 1101 989 879 796 1619 754 687 496 1046 1049 1642 2084 2062 2227 2307 1777 1503 1895 1309 1268 1243 404 728 137
0 0 0 0 0 20 1 14 121 216 254 797 858 904 584 358 251 238 326 428 354 338 602 857 1161 1594 1695 1298 1435 756 1000 101 304 719 1313 1832 2356 2136 1928 2287 1667 1683 1369 1729 1796 1868 1550 270 224
0 0 0 0 0 0 0 9 36 125 225 290 669 685 806 697 434 338 355 481 524 426 509 751 1638 1795 1564 1265 986 1739 1444 859 521 1118 898 978 1180 1839 2159 2227 2398 1705 1464 2030 1811 1748 2065 1383 666
0 0 0 0 0 0 0 0 1 23 82 189 332 595 733 831 851 577 441 476 629 639 522 555 1409 2193 1792 1137 1295 1128 1517 1801 1513 1331 1053 1410 572 819 1605 2403 2667 2297 2259 2170 2048 2069 2180 2104 1509
0 0 0 0 0 0 0 0 0 0 0 7 176 294 621 800 892 940 796 543 653 717 653 631 1173 1817 1837 1575 2257 2422 2191 967 978 1494 1062 834 541 546 877 2160 2208 2414 2371 2425 2527 2549 2147 2071 2077
0 0 0 0 0 0 0 0 0 0 0 0 0 98 212 672 896 1044 1062 867 690 813 1241 1360 1688 1749 1532 1136 2209 2423 2344 2152 1370 2390 1474 1063 1541 642 866 1173 1930 1920 2205 2440 2495 2037 2485 2298 2400
0 0 8 3 0 0 0 0 0 0 0 0 0 3 111 581 905 1044 1107 1086 870 824 882 900 968 1559 1342 1144 1292 1429 1461 2092 1981 1753 2192 1843 1234 1471 948 1358 1414 1604 2092 2312 2612 2125 2365 2612 2476
0 0 4 25 4 0 0 0 0 0 0 0 0 0 26 395 869 1063 1116 1135 1074 870 862 970 1047 1205 1362 1469 1710 1711 1429 1377 1615 1517 1629 1792 1766 1660 1930 1414 1365 1792 2232 2401 2644 2476 2122 2714 2755
0 0 7 13 19 2 4 9 0 0 0 0 0 0 24 124 577 887 952 1032 1111 1095 941 953 1026 1083 1236 1862 2306 1683 1770 1762 1350 1712 1629 1883 1967 1939 2036 1862 1740 1707 1867 2348 2690 2608 2041 2510 2636

GFSSGP_con_mucape_054.txt.gz
CAPE
1 0 2 40 77 215 464 376 458 289 308 106 105 262 237 303 213 487 4 186 234 301 404 1096 1804 2292 1992 2031 2281 2320 2336 2159 1963 2258 2249 2006 1867 1965 1960 1998 1774 1846 1643 1648 1822 1319 1404 2012 1894
0 1 35 357 513 176 349 327 566 338 141 125 197 265 228 181 116 19 124 102 340 312 618 884 1979 2107 2128 1846 2069 2005 1977 2014 2353 2153 2110 1936 1986 1963 1908 1930 1762 1859 1977 1850 1945 1869 1614 1488 1915
205 23 56 200 188 297 503 496 482 296 129 94 602 424 224 84 0 21 70 166 355 564 860 1321 2166 2521 2264 2341 2235 2593 2335 2228 2145 2167 1974 1724 1988 1916 1708 1740 1792 1713 1618 1567 1601 1448 1517 1610 1823
36 17 476 555 414 350 249 442 310 188 407 542 445 345 233 88 49 45 74 266 442 631 1044 2098 2513 2274 2282 2253 2313 2167 2134 2036 2097 2193 2130 1959 1841 1984 1962 1735 1702 1625 1693 1536 1620 1629 1568 1393 1555
11 573 559 329 477 306 475 362 610 566 672 462 638 315 95 79 153 0 46 177 84 576 720 1541 2592 2427 2389 2166 2156 2119 2121 2055 2067 2021 1896 1799 1906 1784 1800 1908 1337 1631 1609 1428 1511 1555 1544 1515 1601
178 334 556 287 204 410 201 575 747 467 300 476 400 231 176 106 62 24 112 125 373 335 461 1161 2037 2307 2408 1970 2025 2253 2010 2002 1987 1973 1919 2153 2188 2351 2234 1652 1634 1590 1455 1256 1429 1609 1712 1678 1619
83 596 631 189 162 525 123 321 371 206 192 237 205 191 198 368 33 95 65 93 94 84 562 909 1259 1764 2052 1926 1919 2000 1851 1910 2132 2348 2020 2596 2298 2089 1907 1869 1526 1137 1073 1299 1395 1555 1787 1553 1129
0 430 159 152 114 517 359 426 189 18 41 191 186 179 181 72 68 55 67 23 18 204 314 749 1105 975 1461 1533 1820 1730 1779 2298 1986 2050 2132 2450 1983 1552 1428 2066 1784 1292 1184 1231 1340 1570 1724 1709 1298
6 155 427 70 254 449 764 789 132 139 281 242 175 413 159 45 22 40 72 29 60 32 66 266 504 1008 1951 1817 1825 1787 1798 1853 2051 2019 2321 1817 1382 1598 1418 1889 1337 1000 1195 1310 1340 1493 1473 1561 1498
3 237 126 14 240 606 634 628 572 361 257 248 410 515 115 31 41 52 58 19 43 7 38 14 447 976 1420 764 1910 2044 1715 1567 1486 1409 1579 2198 1201 1898 902 1346 1581 940 997 1549 1985 1690 550 483 843
0 86 40 9 120 398 567 535 231 106 222 432 442 243 103 10 11 37 45 69 61 45 46 58 1053 994 1009 1335 1625 1505 1538 1555 1636 726 691 2052 1756 883 1036 1205 1213 434 1098 1172 1305 897 154 138 409
4 30 66 78 213 702 596 474 487 50 265 203 368 173 76 31 11 23 47 88 70 57 239 551 672 1239 1049 1128 1595 639 1560 1284 1280 956 1237 2189 2021 1158 1119 728 823 391 963 1664 664 857 381 928 839
4 15 18 251 274 575 912 417 251 164 257 163 267 118 76 55 33 24 63 87 79 45 63 659 1318 641 543 2096 1973 186 597 775 1338 1293 692 515 1848 1789 2278 484 324 1516 488 846 503 1649 1110 1133 900
3 15 16 152 365 401 619 242 245 317 288 359 195 113 91 131 44 89 132 115 101 52 94 412 1140 1599 1230 1330 1703 786 1308 677 1046 1013 1193 686 1655 2261 2606 2590 759 894 406 970 56 1547 1450 348 807
0 0 0 0 415 324 327 133 270 501 330 399 201 199 152 77 79 156 170 146 99 53 129 207 1205 919 1503 1241 2402 2148 299 877 1529 1599 2044 2386 2430 2707 2414 2519 598 240 1351 2376 2089 1593 75 1198 583
0 0 0 0 318 364 327 51 62 303 89 448 325 276 266 113 94 93 142 103 89 52 458 219 36 958 1606 1389 2198 1086 1262 1355 1888 1910 2151 2612 2347 2214 2052 1966 1999 1702 1695 324 23 66 997 326 917
0 0 0 0 45 285 360 345 421 189 261 612 527 280 208 203 166 140 77 123 98 327 642 364 867 961 1234 1370 1651 448 669 769 630 2391 1990 3121 2259 1722 1174 915 2335 309 594 832 1326 1142 724 1553 420
0 0 0 0 0 151 126 175 456 307 318 639 683 421 272 101 146 147 53 91 110 354 822 589 958 1741 1671 1926 2520 2234 1021 1614 1547 1444 2393 3107 2783 1674 1261 1337 2033 2356 243 194 1200 662 121 1078 333
0 0 0 0 0 132 169 101 58 53 395 525 727 537 395 163 143 195 91 66 138 92 563 1203 1479 2134 1481 1339 1386 1154 1256 414 573 1500 1726 2931 2810 2198 732 1251 1968 1804 1654 568 2552 1443 1357 1080 120
0 0 0 0 0 54 390 168 98 0 225 420 678 469 357 269 244 265 134 70 94 163 504 1287 1504 1931 1408 1468 1683 1931 844 1485 1213 368 2733 2719 2168 2876 2533 2086 2175 815 1785 2571 2372 1735 2171 696 1507
0 0 0 0 0 12 35 123 63 4 53 230 438 382 388 455 409 417 170 108 136 258 487 1055 1667 1789 1435 1830 1453 2680 2850 2110 1394 2433 2406 2707 2240 2781 2357 2431 2643 3004 2294 2353 2444 2391 1760 1535 551
0 0 0 0 0 3 3 26 83 203 127 6 241 482 402 481 481 512 310 234 101 352 450 1000 1600 2087 1427 2081 1197 1908 1518 1563 973 1643 1614 2521 3103 2521 3131 2825 2692 1881 1764 1682 2874 2456 1874 569 1707
0 0 0 0 0 0 1 5 0 608 144 5 123 839 543 545 459 518 364 384 149 389 435 705 1378 2157 1507 1517 1683 1354 1703 1416 2347 1572 2453 2698 3473 3457 2917 3136 3310 2922 2539 2901 2676 2675 2496 2738 1871
0 0 0 0 0 0 0 0 0 133 212 107 111 389 575 512 533 518 530 460 317 414 387 826 1151 1675 1967 1535 1737 1803 1375 2176 1621 1623 2021 2240 2554 2818 3224 2738 3514 3619 2674 2622 2680 2886 3043 2766 2517
0 0 0 0 0 0 0 0 0 0 520 278 102 0 288 812 583 614 609 559 511 354 521 836 1213 1249 1712 1816 1248 2210 1438 1505 2613 2759 1980 1751 1955 1749 2832 3118 3350 2883 3209 3041 2999 2989 3316 3095 2840
0 0 0 0 0 0 0 0 0 0 28 304 207 97 168 723 620 604 585 616 567 473 632 762 1417 1445 1507 2029 1329 1464 2130 983 1259 2149 1395 2169 1929 1830 2625 3166 2742 3324 3277 3199 3339 2713 2754 2954 3067
0 1 0 0 0 0 0 0 0 0 0 153 104 159 103 124 456 598 714 681 715 722 714 1073 1431 1685 1808 1462 1878 1168 1967 1786 757 1615 2109 2256 2074 1772 2696 2876 3369 3243 3213 2918 3410 2710 2901 3155 3278
0 0 2 0 0 0 0 0 0 0 0 0 63 9 8 91 138 345 776 822 1007 872 1026 1056 1552 1737 1959 1688 1740 1488 991 1543 1617 601 1661 1628 2803 2596 2857 3060 2878 3165 3395 3274 3465 2930 2992 3475 3007
0 0 0 0 2 0 0 0 2 69 0 0 146 95 2 104 155 154 378 1012 1063 1091 1297 1119 1400 1866 2135 2123 1659 1501 1263 1185 998 1587 538 2529 1910 3855 3283 3613 3248 2900 2952 3459 3681 3107 2973 3143 3321
0 0 0 0 0 1 0 0 0 29 1 0 0 6 280 467 328 111 387 399 1083 1184 1218 1315 1268 1882 2069 2188 1804 1581 1615 1224 1139 644 2176 1973 3313 2782 4287 3302 3819 3032 3009 3089 3202 3196 2062 2772 3186

GFSSGP_con_mucape_057.txt.gz
CAPE
4 1 2 5 3 23 108 133 111 146 80 60 111 97 155 186 204 44 1 101 199 142 472 1261 2046 1975 2149 2335 2345 2371 2089 1962 2184 2266 2399 1978 2141 1985 2079 1899 1808 1540 1953 1897 1223 1781 2053 1847 1924
1 2 9 45 53 206 78 240 106 157 89 130 193 31 47 30 74 1 53 140 219 258 760 1131 2005 1971 2018 2181 2385 2457 2119 2252 2219 2161 2219 2034 1941 1989 1875 1853 1995 1971 1935 1920 1831 1561 1669 1926 2127
7 48 4 63 66 106 93 228 267 141 372 397 287 141 11 1 0 32 36 189 90 495 764 1092 2255 2317 1991 1890 1953 2563 2378 2155 2106 2070 1882 2065 1896 1749 1785 1838 1679 1565 1650 1672 1529 1590 1612 1814 1771
141 76 60 34 64 305 247 389 270 232 550 206 88 4 0 0 0 2 112 131 211 558 1046 2092 2212 2072 2221 2184 2391 2206 2100 2133 2020 2132 1990 1830 1952 1877 1836 1512 1703 1688 1643 1712 1701 1596 1424 1416 1421
157 78 98 63 323 2 304 121 131 252 309 149 17 3 0 0 0 6 121 191 651 931 1453 1765 2623 2408 2076 2115 2108 2085 2045 2055 2072 2126 1807 1851 1789 1822 1920 1368 1664 1547 1540 1663 1575 1537 1479 1552 1276
2 59 272 21 4 155 433 264 484 358 234 68 17 29 2 0 0 42 146 413 547 799 1341 1587 2325 2200 2447 2080 2074 2039 2062 1990 2191 1759 2131 2077 1955 1952 1520 1644 1584 1492 1387 1561 1659 1660 1516 1495 1347
1 309 160 231 131 196 385 479 326 169 346 211 105 27 5 3 10 47 146 298 261 693 989 1258 1511 1745 1941 2123 2141 2004 1985 1975 1881 2003 2059 2296 1931 1596 1529 1495 1326 1256 1425 1487 1528 1681 1451 1143 936
6 28 156 174 109 227 283 451 171 79 130 89 96 40 0 6 17 12 121 77 309 536 598 1006 1289 1489 1402 1571 1843 1757 1903 1954 2000 1942 1873 1796 1674 1530 1501 1757 1842 1253 1349 1514 1478 1569 1588 1569 1374
102 0 98 152 67 314 286 398 100 77 179 322 119 70 0 0 18 26 40 57 201 269 512 729 745 1079 1036 1317 1384 1686 2027 1900 1948 1825 1820 1795 1024 899 1133 1438 1774 1326 1267 1396 1515 1559 1552 1442 1416
167 5 31 56 56 254 49 237 5 240 206 265 203 80 0 0 22 12 22 11 72 56 201 438 361 897 947 1200 1288 1310 1449 1392 1397 1352 1201 902 910 810 822 1304 1803 1212 1176 1400 1680 443 133 328 574
2 0 37 29 108 288 79 214 399 296 271 241 201 237 0 1 19 14 23 8 5 25 45 174 378 647 547 865 1244 1282 1269 1209 1032 822 722 830 857 610 376 670 780 828 1135 502 1169 8 15 279 365
0 0 0 44 462 523 438 275 266 236 160 351 247 120 9 22 11 24 9 24 5 2 5 127 338 619 520 730 1093 1085 995 930 492 79 473 847 440 400 330 567 145 182 407 61 556 7 10 335 442
0 0 17 118 231 656 301 505 347 153 6 231 289 83 25 22 10 4 15 30 18 83 127 349 334 417 627 774 833 714 900 769 485 420 451 414 800 736 767 530 479 481 503 677 444 144 154 318 572
0 0 3 23 407 615 334 299 313 179 95 247 128 44 0 5 10 1 21 38 79 122 186 220 173 184 282 640 495 30 327 530 727 439 25 350 732 967 635 244 653 374 107 331 347 387 67 347 618
0 0 1 0 107 307 263 107 136 296 244 280 79 23 0 0 0 0 40 44 38 226 191 48 7 0 179 618 227 364 516 656 388 381 315 568 627 1173 1169 605 246 356 602 826 1080 555 277 356 425
0 0 0 0 6 218 252 165 316 400 321 253 102 67 64 25 1 15 38 22 80 234 146 324 394 204 435 758 273 390 319 526 644 708 1012 1190 1262 1094 937 758 793 260 681 130 95 67 341 221 75
0 0 0 0 0 223 274 334 433 560 458 190 98 127 114 80 24 24 54 28 27 24 108 130 80 301 568 827 165 66 224 662 1035 836 1451 1207 1107 763 570 758 921 578 388 402 304 170 148 239 132
0 0 0 0 0 206 374 340 243 136 228 418 223 192 90 76 70 89 36 32 45 1 0 70 250 430 139 692 323 163 911 172 724 1343 1342 1174 898 646 105 536 931 583 323 78 461 579 69 325 37
0 0 0 0 0 55 348 641 526 158 268 588 486 307 194 113 136 139 33 13 55 0 0 135 402 249 874 752 748 779 352 489 437 1027 1646 1344 1278 923 520 511 880 332 92 62 629 118 104 235 72
0 0 0 0 0 1 187 424 188 276 116 341 231 308 230 224 221 65 30 16 58 15 0 249 610 316 725 452 562 586 501 243 284 1005 1310 1314 1099 785 405 637 1052 749 685 966 986 1093 485 377 40
0 0 0 0 0 28 215 161 136 157 180 254 52 189 182 172 118 115 21 3 31 97 84 350 747 390 517 200 351 949 395 578 430 638 1086 1372 1470 1227 1412 1139 1116 605 1027 872 854 936 962 178 60
0 0 0 0 0 0 212 200 172 147 224 352 259 262 221 187 88 149 22 0 6 34 154 384 741 475 649 208 127 571 633 791 303 428 1028 1505 1233 1325 1424 897 964 1192 1184 1160 1032 1256 931 86 443
0 0 0 0 0 0 0 0 109 177 174 84 173 114 203 190 206 176 65 1 37 54 54 492 730 494 286 693 113 268 308 689 622 772 1097 1296 1588 1515 1302 1307 1427 1090 703 647 981 1395 1347 1143 1149
0 0 0 0 0 0 0 0 0 178 207 70 49 0 263 216 290 278 204 31 70 77 95 391 926 426 341 299 735 103 213 403 620 850 593 1512 1728 1869 1908 1474 1408 1232 1141 1251 1121 1676 1259 1118 1385
0 0 0 0 0 0 0 0 0 194 332 218 138 103 150 609 359 314 258 164 64 106 125 280 631 794 296 280 458 834 112 203 424 902 1416 1315 1525 1775 1915 1460 1846 1892 1409 1165 1239 1620 1644 1580 1352
0 0 0 0 0 0 0 0 0 0 507 333 275 141 349 332 378 318 326 260 185 181 127 247 331 681 724 250 170 533 794 85 372 954 1374 1235 1367 1228 1803 1494 1660 1345 1672 1579 1552 1234 1417 1656 1306
0 0 0 0 0 0 0 0 0 0 122 208 147 318 567 366 366 313 418 313 273 228 195 223 317 322 852 658 99 264 1118 172 201 393 597 742 1283 1099 1245 1720 1502 1751 1797 1756 1781 1142 1597 1695 1785
0 0 0 0 0 0 0 0 0 0 0 251 201 465 462 518 521 501 479 438 243 259 245 267 420 336 704 761 526 101 360 1070 141 208 395 643 279 649 1378 2119 1568 2012 1711 1435 2069 1274 1700 1405 1807
0 0 0 0 0 0 0 0 0 0 2 292 282 310 526 395 419 291 350 478 444 212 225 332 698 524 561 547 825 325 124 741 816 271 61 528 430 1785 1936 1946 2164 2178 2077 1837 1669 1605 1838 1439 1721
0 0 0 0 0 0 0 0 0 0 2 81 338 440 447 498 416 283 194 205 414 421 360 348 556 825 801 734 639 829 263 236 604 561 155 0 613 667 1979 2009 1864 1847 1896 2083 2013 1919 1823 1702 1868

GFSSGP_con_mucape_063.txt.gz
CAPE
81 0 0 0 0 2 30 96 249 83 264 78 26 6 43 105 187 82 0 0 7 109 1067 1865 2394 2261 2394 2513 2047 1756 2069 2247 1981 2205 2225 2159 2101 2164 1653 1947 1861 1372 2101 1797 1669 1969 2228 2393 2608
3 0 0 15 6 77 70 139 220 150 171 85 135 148 159 97 113 7 11 10 0 366 1426 1812 2465 2639 2389 2358 2025 1877 2183 2120 1975 2199 1982 2039 1969 1882 2062 1945 2033 1764 1445 1900 1636 1730 1931 2298 2262
0 6 6 47 51 33 95 125 96 246 287 144 118 106 99 120 77 4 27 0 73 936 1327 1725 2444 2490 2265 2256 2036 2069 2402 2124 2075 2126 1943 1908 1881 1958 1985 1944 1821 1686 1550 1557 1875 1646 2010 1903 1924
22 64 33 24 78 88 150 5 106 375 183 74 57 55 62 58 42 36 10 0 560 912 1014 1963 2175 2295 2323 2321 2038 2028 2238 2067 2100 1995 1912 1846 1829 1717 1724 1646 1606 1736 1602 1408 1445 1694 1935 2037 1868
133 25 160 85 116 166 91 56 184 115 163 126 76 39 29 46 34 15 19 160 598 768 1261 1543 2365 1893 1745 1850 2263 2013 2185 1992 2012 1823 1895 1828 1816 1517 1713 1727 1748 1710 1689 1411 1366 1519 1789 1727 1602
33 60 173 95 95 338 150 217 148 171 149 113 73 63 20 33 14 21 66 334 493 1070 1347 1679 2232 1920 2123 2226 2092 2210 2141 2108 1919 1767 1819 1782 1687 1638 1629 1681 1679 1610 1412 1311 1351 1408 1541 1527 1766
47 226 78 180 185 151 220 101 432 173 137 94 63 17 20 29 19 49 178 514 846 1256 1553 1681 1862 2035 2103 2052 2187 2115 2081 1840 1963 1976 1821 1650 1470 1742 1643 1582 1543 1582 1437 1299 1485 1401 1187 1351 1743
128 34 59 130 83 260 59 43 130 75 164 68 13 0 29 39 20 238 452 642 1027 1299 1493 1523 1607 1700 1739 1730 2157 2040 1972 1911 1836 1890 1878 1586 1575 1494 1387 1790 1841 1569 1428 1400 1202 1103 1230 1743 1975
256 88 17 10 38 330 239 419 210 186 138 35 185 15 0 34 173 288 442 670 864 1088 1287 1373 1527 1550 1686 1592 1779 1939 1906 1846 1667 1489 1615 1680 1110 1026 998 1346 1492 1594 1544 1423 1096 1247 1526 1665 1495
239 165 80 131 242 278 411 368 131 206 176 165 61 41 23 77 167 236 320 308 568 805 1095 1189 1238 1333 1555 1439 1598 1574 1598 1361 1300 1264 1124 1013 896 763 987 1280 1367 1430 1593 1652 1138 1342 1368 913 818
109 133 35 28 139 370 408 308 100 117 164 245 23 45 65 56 143 233 258 254 327 575 901 1085 959 1108 1155 1231 1468 1473 1480 1317 1189 1111 825 800 779 910 980 1076 1042 988 1062 863 63 248 301 451 586
67 66 15 0 121 5 28 325 237 260 280 283 60 42 67 66 118 241 261 108 189 460 738 917 737 899 1029 1124 1270 1293 1107 916 636 519 712 598 670 624 584 640 368 295 195 137 106 122 328 395 491
69 40 1 0 13 75 73 24 211 315 578 212 37 62 86 91 99 194 230 101 131 220 253 423 518 568 847 929 973 1018 829 714 502 302 352 554 568 325 230 223 164 204 249 94 94 174 290 375 525
41 13 0 3 158 130 133 253 154 333 396 265 35 24 62 98 69 139 100 72 134 104 177 204 499 392 545 685 765 726 678 802 726 549 415 525 274 206 303 136 204 318 294 349 187 194 260 316 469
13 0 0 315 275 222 267 407 236 286 345 222 24 18 42 36 52 95 46 41 61 42 146 169 444 361 355 498 578 505 582 815 779 267 346 287 631 342 422 353 352 236 141 273 518 241 231 273 341
0 0 0 273 278 536 329 69 407 311 393 127 55 41 25 22 0 58 13 27 68 54 132 186 295 379 268 413 516 546 579 637 698 302 225 294 630 480 470 108 380 222 442 317 242 273 335 216 238
0 0 0 103 538 575 359 248 359 394 461 246 85 22 29 48 0 8 13 11 46 52 127 199 260 438 323 440 512 418 278 465 480 517 95 308 730 703 533 273 303 365 205 169 50 184 283 120 94
0 0 0 0 292 420 314 189 382 273 472 300 135 43 17 76 22 27 14 12 28 49 74 110 234 498 365 312 343 374 388 419 387 394 417 652 693 585 525 502 432 46 122 109 57 121 134 106 83
0 0 0 0 0 0 190 197 512 489 558 419 214 114 46 27 0 26 12 11 29 43 36 78 175 301 303 241 201 343 439 481 468 335 785 781 717 503 418 408 543 410 48 63 103 39 68 158 102
0 0 0 0 5 0 0 140 504 513 529 360 253 215 98 13 0 10 4 96 79 15 6 15 85 193 446 234 175 324 525 477 470 525 806 800 534 171 355 364 483 60 154 255 531 181 445 96 26
0 0 0 0 0 232 345 350 547 426 401 438 278 219 153 53 5 13 25 100 68 12 5 0 50 238 463 312 173 369 397 424 453 712 887 933 765 557 270 398 461 297 242 501 542 242 135 24 20
0 0 0 0 0 0 237 46 477 291 283 491 467 297 142 54 30 83 50 65 92 17 23 0 0 221 396 383 200 331 398 299 357 501 790 1064 1158 996 338 445 697 580 502 728 579 662 232 19 29
0 0 0 0 0 0 0 11 0 192 171 323 518 483 286 110 90 87 87 2 0 17 24 0 7 78 197 212 150 270 313 235 254 327 738 1007 1096 971 804 825 972 674 705 698 479 929 575 83 306
0 0 0 0 0 0 0 0 0 272 272 237 283 463 408 235 125 90 55 69 59 106 16 10 16 64 98 102 45 154 300 436 299 192 421 631 1063 1081 939 986 872 735 689 811 391 861 937 622 684
0 0 0 0 0 0 0 0 0 19 225 197 188 320 428 371 253 117 78 68 85 174 67 81 52 63 121 68 74 29 144 337 552 433 217 601 860 1183 1085 1083 848 854 703 708 472 966 718 520 771
0 0 0 0 0 0 0 0 0 0 3 75 139 145 186 48 55 229 151 91 78 169 82 219 92 61 129 120 66 41 0 110 415 409 473 404 779 1121 1165 1139 971 1141 693 838 823 1186 1112 1087 678
0 0 0 0 0 0 0 0 0 0 0 0 107 245 232 186 166 157 220 164 107 188 204 173 142 49 85 112 71 50 3 6 198 314 342 488 710 1010 1193 1192 1083 1167 1024 873 1057 754 1047 1045 1102
0 0 0 0 0 0 0 0 0 0 0 0 34 166 295 331 308 241 229 217 169 231 224 186 174 95 48 82 65 66 96 21 16 117 246 662 727 1005 1028 1262 1243 1181 1219 1171 952 878 1030 865 973
0 0 0 0 0 0 0 0 0 0 0 0 0 20 181 202 326 368 306 201 204 209 243 217 219 209 131 131 114 61 73 305 307 98 73 215 969 1124 1063 1097 1367 1316 1293 1254 1237 1100 953 982 996
0 0 0 0 0 0 0 0 0 0 0 0 164 5 44 99 205 335 278 242 264 209 171 207 252 261 266 230 149 73 18 7 300 342 237 86 51 477 988 1092 1117 1257 1359 1249 1160 1305 1274 1109 1071

GFSSGP_con_mucape_066.txt.gz
CAPE
28 0 0 0 0 0 15 130 306 121 261 45 0 0 1 1 14 97 0 0 0 194 1075 1610 2486 2347 1909 1870 1593 1816 2062 1834 2187 2138 2210 2222 2109 1758 1943 1529 1498 2104 1656 1709 2038 2077 2333 2297 2293
2 0 0 4 0 0 47 90 165 192 108 16 20 70 133 25 111 0 1 0 10 507 1362 1629 2229 2456 2261 1881 1759 2093 1985 1978 2380 2219 2193 2142 2024 2156 1999 2100 1553 1628 1614 1634 1759 2023 2142 2161 2405
0 0 5 33 32 0 104 93 137 43 67 46 44 92 100 78 14 0 0 0 167 1007 1405 1600 2316 2260 2109 2041 1928 2088 2110 1922 2194 2081 1995 2042 2123 2093 2074 1915 1786 1549 1644 1648 1650 1879 1876 2047 2104
24 45 22 33 18 36 71 56 2 106 173 84 62 48 27 29 52 4 0 69 615 1135 1401 2081 2149 2262 2251 2010 1989 2159 2128 2143 2118 1984 2103 1801 1780 1686 1658 1695 1691 1608 1474 1652 1800 1909 1922 1943 1860
64 46 42 139 99 165 89 36 146 211 195 124 99 39 37 38 0 0 14 314 660 969 1313 1731 2400 2183 2281 1963 1930 1888 2001 1945 1808 1865 1961 1929 1486 1691 1615 1622 1397 1520 1379 1465 1648 1563 1562 1584 1829
52 86 112 82 118 358 126 102 185 194 203 122 54 40 23 23 0 0 88 365 547 876 1316 1671 2024 1731 1664 1983 1952 1906 1973 1883 1789 1852 1729 1846 1572 1492 1566 1671 1662 1393 1377 1540 1404 1440 1722 1918 1993
74 146 166 98 111 138 141 177 316 142 153 66 17 36 31 4 0 11 177 331 748 1081 1210 1408 1179 1582 2085 1938 1950 1673 1829 1830 1771 1705 1892 1522 1615 1474 1482 1650 1593 1291 1283 1612 1486 1477 1761 1975 2130
161 37 31 63 8 196 94 83 146 172 147 57 12 0 59 11 25 85 262 547 970 1192 1343 1585 1595 1561 1589 1759 1936 1854 1730 1963 1994 1838 1472 1643 1680 1459 1569 1721 1817 1291 1410 1530 1506 1422 1814 1923 1922
225 50 27 19 0 278 82 336 142 359 64 25 22 12 0 19 78 171 353 587 812 1125 1124 1311 1385 1430 1461 1618 1632 1814 1756 1577 1549 1474 1487 1361 1101 1027 1056 1532 1656 1500 1197 987 1141 1538 1717 1778 2166
220 133 74 56 176 298 238 366 278 239 82 45 50 0 4 120 112 121 151 187 647 644 993 1177 1226 1286 1373 1447 1545 1387 1453 1165 1125 1189 997 909 807 770 1077 1459 1592 1583 1333 996 1250 1375 1591 1037 1250
104 86 59 33 367 344 346 250 194 155 133 20 6 10 77 112 116 138 129 102 357 484 862 1051 1069 1220 1217 1291 1324 1293 1227 1146 1109 1006 752 699 686 808 948 1083 1192 1257 1290 480 661 870 399 541 857
65 24 19 0 32 122 222 204 181 127 173 85 11 20 77 99 144 163 104 110 208 648 555 826 857 1030 981 1127 1187 1199 1164 950 861 743 670 647 439 495 548 640 497 529 341 441 47 206 450 519 633
58 8 0 0 0 13 92 174 305 300 394 120 56 24 40 70 133 144 130 111 173 364 557 702 596 752 776 966 1071 989 793 593 367 458 489 437 568 355 264 355 150 224 89 207 121 273 427 494 678
8 0 0 0 0 30 27 41 183 546 270 104 80 54 19 34 119 129 145 52 82 202 398 581 438 562 689 795 867 809 554 497 369 261 260 417 549 309 172 195 216 265 343 307 208 220 306 417 503
10 0 0 0 160 112 378 258 126 578 244 20 49 56 43 18 104 137 131 91 19 80 170 265 319 290 519 589 585 559 487 551 646 584 439 336 478 287 226 379 284 311 188 339 522 362 326 387 431
0 0 0 107 231 341 145 89 311 521 215 61 40 59 62 39 109 134 151 35 5 0 58 0 283 205 264 374 367 238 269 526 674 632 210 249 189 515 327 223 354 353 440 268 298 280 477 329 345
0 0 0 0 290 445 201 119 259 582 274 131 64 41 58 36 77 115 111 32 15 0 18 62 248 207 214 200 253 301 399 509 481 586 403 165 291 532 430 166 299 296 368 287 107 241 361 220 286
0 0 0 0 332 409 284 193 364 471 410 193 50 57 48 27 76 73 75 10 23 22 41 58 192 196 239 153 252 363 313 249 332 444 413 259 469 527 422 338 214 360 139 82 80 186 214 171 188
0 0 0 0 0 0 0 0 266 249 577 419 119 71 41 25 42 64 75 14 22 36 46 57 112 287 194 205 344 346 244 322 314 330 391 509 501 487 382 468 226 152 104 90 80 81 148 206 96
0 0 0 4 0 0 0 40 157 271 617 500 244 93 39 17 28 38 5 0 4 19 36 61 66 249 232 274 239 243 288 322 367 332 509 641 585 280 238 352 404 283 87 363 242 101 421 162 53
0 0 0 1 0 19 174 171 420 607 511 510 364 152 19 45 3 60 29 5 0 3 1 20 38 105 317 188 170 186 239 286 316 331 480 754 657 334 114 275 353 64 179 405 462 224 218 46 21
0 0 0 0 0 0 56 0 91 429 490 560 412 294 176 104 31 50 29 18 6 25 7 0 13 42 233 157 123 143 281 350 404 385 542 786 820 755 470 210 390 379 514 479 403 559 319 28 32
0 0 0 0 0 0 0 0 0 181 538 500 498 402 276 233 101 53 30 0 30 0 29 0 0 10 100 254 112 130 226 293 228 345 519 683 921 965 681 525 668 425 482 638 550 794 456 90 162
0 0 0 0 0 0 0 0 0 146 219 238 382 492 377 274 241 168 55 15 8 8 1 3 10 0 42 228 253 125 164 169 183 217 348 575 849 946 843 818 693 452 511 699 551 653 798 660 533
0 0 0 0 0 0 0 0 0 0 0 0 57 231 478 396 303 195 104 77 40 50 46 32 0 0 9 138 329 151 105 155 139 122 159 250 505 833 899 867 883 585 575 556 632 714 819 577 887
0 0 0 0 0 0 0 0 0 0 0 0 2 106 333 459 401 215 142 95 79 37 28 43 72 0 0 51 164 181 52 116 182 187 191 141 403 739 885 940 931 733 719 598 498 687 937 733 607
0 0 0 0 0 0 0 0 0 0 0 0 0 25 199 326 426 359 172 151 92 84 89 93 195 51 0 40 49 78 3 6 187 350 303 336 405 627 906 914 821 835 867 651 738 683 749 814 1008
0 0 0 0 0 0 0 0 0 0 0 4 109 14 38 257 280 362 371 238 157 95 89 108 190 145 18 79 51 11 38 0 7 138 286 293 326 528 853 1012 937 879 1041 915 725 775 773 736 814
0 0 0 0 0 0 0 0 0 0 0 69 264 147 0 227 232 182 67 88 182 172 85 79 132 252 92 91 85 52 37 0 0 0 110 210 325 494 637 981 953 899 883 1069 1085 815 828 789 837
0 0 0 0 0 0 0 0 0 0 0 33 391 234 100 141 285 346 313 95 62 147 211 151 126 190 154 174 131 86 61 36 0 0 0 8 150 462 906 990 1005 966 1019 1004 1093 1085 1146 883 908

GFSSGP_con_mucape_069.txt.gz
CAPE
2 0 0 0 1 3 64 133 210 356 30 27 0 0 0 0 13 313 0 0 103 428 1211 1536 2600 1860 1754 1616 1936 1934 1847 2254 2211 2395 2405 1970 1853 1799 1472 1618 1925 1610 1813 2229 2165 2205 2273 2363 2353
0 0 0 104 39 37 166 115 254 90 76 7 14 0 34 19 157 0 0 28 128 445 1154 1435 2620 2293 1788 1624 1891 1865 1792 2396 2298 2308 2227 2026 1892 1924 1824 1674 1892 1740 1773 2000 1954 2129 2221 2348 2365
0 2 33 271 54 34 109 89 154 74 27 84 105 158 167 23 2 0 0 49 250 783 1126 1529 2211 2460 1823 1783 2083 1990 1819 2169 2103 2067 2015 1863 1997 1847 1645 1700 1629 1859 1601 1864 1995 2073 2245 2238 2081
10 53 78 72 67 9 62 0 86 119 28 197 78 133 12 7 0 4 0 91 390 845 1064 1923 2131 2103 2106 1887 2257 2010 2059 2180 2019 1945 1801 1866 1801 1770 1704 1634 1644 1587 1689 1990 2064 2064 2131 1827 1882
101 178 171 268 242 224 120 39 70 65 212 172 101 26 34 1 21 0 17 217 421 831 1143 1480 2446 2222 1991 2010 1948 2051 2111 1961 1914 2007 1879 1644 1807 1682 1515 1398 1422 1403 1721 1914 1770 1675 1711 1876 2053
113 53 305 283 216 437 126 36 72 50 204 40 45 36 28 25 0 3 63 254 386 730 1073 1523 1955 2009 1900 1936 1840 1853 1834 1824 1973 1772 1920 1720 1455 1378 1162 1287 1414 1439 1733 1562 1693 1833 1843 2018 2209
131 329 319 192 121 187 198 169 50 218 257 137 42 48 55 8 0 17 120 313 419 713 1111 1653 1456 1430 1713 1887 1847 1659 1839 1676 1674 1935 1651 1651 1484 1533 1593 1613 1328 1449 1712 1684 1739 1946 2070 2331 2318
139 88 86 58 35 201 128 138 402 184 154 29 12 29 12 8 0 51 146 357 558 738 1049 869 841 1699 1643 1693 1635 1702 1666 1909 1641 1490 1571 1629 1527 1714 1616 1890 1829 1619 1659 1702 1560 1903 1979 2172 2274
292 202 69 3 10 336 135 299 208 352 63 44 4 26 0 3 3 16 140 490 661 741 1038 1135 1501 1514 1725 1507 1739 1632 1805 1599 1704 1414 1824 1503 1326 1360 1442 1926 1595 1365 1275 1368 1644 1620 1785 2026 2350
353 362 107 34 140 285 337 294 175 251 15 12 11 18 1 7 3 27 104 281 376 545 930 1097 1408 1356 1468 1432 1716 1573 1299 1346 1546 1672 1680 1375 1407 1645 1716 1763 1569 1224 1072 1370 1484 1863 1421 1404 2126
220 261 59 14 198 345 363 380 383 217 34 16 7 12 4 7 3 28 53 130 178 266 599 1046 1397 1514 1318 1744 1366 1266 1209 1337 1519 1558 1524 1519 1269 1502 1673 1790 1472 1708 1055 767 1107 893 1094 1470 1744
140 70 10 0 92 210 280 392 357 196 259 17 12 0 0 3 1 7 80 132 152 199 574 1055 1137 1469 1364 1493 1127 1359 1106 1310 1046 1286 1504 1456 827 1152 1415 1140 1405 1243 784 852 606 876 1471 1555 1512
41 11 0 0 0 4 113 202 232 299 145 34 4 4 3 13 9 23 77 127 277 145 469 928 1068 1519 1480 1681 1502 1202 1089 1060 1091 1164 1256 1285 1126 1081 1117 1068 900 1070 875 795 764 1293 1271 1497 1463
0 0 0 0 0 2 48 142 237 333 115 53 24 15 4 18 20 72 146 185 193 232 401 680 901 1178 1221 1372 1488 1260 1026 981 918 858 1013 1343 1415 1353 1016 907 997 1124 1197 1043 1041 1088 1302 1409 1375
0 0 0 17 45 110 256 194 216 138 136 44 33 26 6 35 67 204 181 182 193 214 341 594 636 865 1078 1310 1293 830 727 773 938 1184 1191 1125 1418 1407 989 1321 1101 1177 1184 1521 1539 1400 1315 1292 1173
0 25 0 130 255 249 267 206 394 177 75 25 16 40 53 73 100 210 253 305 193 101 347 622 296 585 901 978 1133 660 787 1003 1171 1203 912 1029 1063 1437 1471 1263 1632 1256 1362 1204 1202 1189 1217 1200 1141
0 36 0 0 505 485 302 233 584 229 125 68 25 31 56 105 160 248 231 323 221 110 268 457 452 488 700 942 841 806 900 1055 1214 1218 1104 1077 941 1547 1340 1204 1350 1337 1162 795 858 1266 1254 1067 1020
0 4 0 0 212 493 293 191 560 862 325 162 64 34 58 86 139 249 207 279 207 73 126 206 448 639 737 738 883 701 833 956 978 1183 1201 1071 1100 1539 1384 1169 1393 1322 1017 908 1008 1403 1105 1051 947
0 0 0 0 0 0 0 10 32 736 785 277 145 78 81 92 128 227 111 237 167 28 124 252 539 804 735 616 550 880 965 884 945 1040 1305 1268 1463 1502 1561 1738 1281 1181 940 1124 1192 1032 1292 995 871
0 0 0 0 0 0 0 0 577 401 828 659 218 77 79 105 123 106 160 184 171 113 189 382 589 865 892 608 741 894 1034 1012 1236 1302 1418 1391 1547 1434 1391 1577 1293 1306 737 1445 1356 1200 1175 993 561
0 0 0 0 0 1 188 190 539 614 705 822 636 176 85 61 89 87 131 129 167 190 263 376 630 888 1042 729 785 867 969 1009 1212 1391 1384 1436 1551 776 1093 1488 1383 1246 959 1359 1622 1310 1465 707 552
0 0 0 0 0 0 0 0 155 629 604 778 845 547 242 148 66 83 98 72 106 205 290 421 573 780 1067 956 846 965 948 967 1049 1334 1239 1543 1730 1374 1024 1389 1485 1346 839 1584 1643 1652 1266 685 674
0 0 0 0 0 0 0 0 0 263 591 710 869 739 349 249 146 59 58 94 34 148 253 347 495 675 1048 1109 1054 979 1153 1008 1243 1328 1807 1754 2206 1834 1455 1320 1568 1607 1652 1794 1850 1982 797 892 653
0 0 0 0 0 0 0 0 0 0 0 33 490 798 604 365 196 141 82 144 137 188 253 269 421 766 890 1056 1016 1094 1178 1221 1119 1212 1502 1491 1757 2564 1897 1640 1857 1863 1786 1925 1811 2071 2161 1908 1714
0 0 0 0 0 0 0 0 0 0 0 0 0 75 804 582 364 196 167 128 259 288 325 329 395 587 755 910 992 1011 1114 1448 1521 1563 1280 1545 1556 1856 2102 2148 2289 2067 1853 1989 1939 2044 2156 2060 1779
0 0 0 0 0 0 0 0 0 0 0 0 30 10 448 753 558 380 254 249 355 365 440 438 429 538 614 776 1214 1353 1136 1014 1057 1390 1089 1234 1312 1544 2111 2235 2207 1981 1900 1742 1819 1838 1754 1788 1753
0 0 0 0 0 0 0 0 0 0 0 0 174 239 269 684 759 572 373 317 370 437 495 508 563 589 566 623 1069 1072 1107 1101 1215 1262 1352 1132 1481 1356 1933 2203 2228 2053 1981 2009 1944 1596 2049 2257 2191
0 0 0 0 0 0 0 0 0 0 0 39 118 225 98 354 799 753 535 349 334 447 491 496 603 675 687 603 743 755 789 989 1106 1288 1489 1385 1495 1673 1643 2012 2194 2241 2218 2110 2101 2001 2009 2131 1896
0 0 0 0 0 0 0 0 0 0 0 40 71 84 295 561 390 703 669 458 364 324 372 418 537 626 627 591 900 789 629 617 814 862 1244 1572 1684 1791 1922 2067 2085 2279 2256 2356 2320 2108 1938 2127 2076
0 0 0 0 0 0 0 0 0 0 0 206 222 141 198 359 365 445 558 334 393 320 299 302 435 489 519 802 1069 816 900 676 578 690 816 1328 1645 1730 2003 2066 2222 2354 2287 2343 2425 2296 1868 2012 2062

GFSSGP_con_mucape_072.txt.gz
CAPE
0 0 0 10 414 210 451 494 381 224 90 49 1 0 0 16 284 610 106 116 404 610 1055 1513 2375 1844 1716 2370 1983 2110 2438 2408 2588 2440 1874 2018 1811 1528 1723 1847 1622 2007 2167 2383 2297 2298 2547 2534 2287
3 0 49 485 561 251 219 150 210 83 99 21 0 0 50 386 208 54 99 193 409 563 855 1206 2338 2189 1643 2201 1880 2008 2403 2360 2430 2168 2057 1971 1982 1852 1849 1991 1781 1943 1973 2044 2281 2366 2412 2295 2397
5 3 465 553 223 184 224 118 22 27 29 47 211 188 463 213 27 11 93 221 415 760 928 1914 2327 2224 1753 2256 1885 1935 2293 2195 1938 1991 2011 2079 1813 1750 1697 1793 1906 1641 2052 2063 2215 2220 2113 2093 2399
55 497 600 280 278 50 47 72 20 23 139 316 283 394 73 22 0 31 87 164 486 703 883 1990 2349 1847 1840 1955 2045 1851 2084 2046 1823 1797 1848 1762 1792 1689 1679 1716 1831 1753 1990 2118 2041 2236 1809 1868 2298
324 560 637 561 508 509 243 47 73 9 57 402 331 190 8 9 14 29 126 210 476 674 977 1652 2374 1944 1832 2141 2129 2189 1983 1820 1734 1847 1725 1705 1682 1643 1526 1544 1551 1845 1819 1909 1867 1859 1923 1922 2226
230 255 574 369 486 523 48 70 74 39 142 138 122 2 53 33 0 59 183 336 451 536 851 1406 1988 2045 1948 1765 2015 1975 1852 1847 1882 1710 1679 1567 1461 1358 1655 1594 1528 1793 1736 1880 2005 1946 1952 2249 2396
452 619 430 190 430 534 214 69 33 70 452 305 33 242 75 11 2 88 261 390 448 526 945 1102 1677 1833 1838 1877 1725 1948 1830 1802 1762 1665 1676 1569 1547 1540 1580 1382 1670 1698 1815 1801 1711 1858 2272 2076 2408
241 559 306 118 400 522 199 187 137 333 208 149 142 231 44 31 11 152 315 310 374 548 1151 909 577 784 1371 1637 1696 1849 1749 1738 1578 1643 1551 1644 1654 1513 1421 2103 2024 1755 1753 1814 1940 1934 2229 2257 2175
515 672 267 187 505 392 119 258 606 427 322 165 158 82 0 21 65 214 275 322 473 760 869 179 876 1511 1660 1504 1806 1669 1544 1634 1476 1425 1332 1342 928 1076 1081 1794 1592 1547 1660 1823 1762 1853 2256 2371 2197
557 567 174 169 222 512 380 334 519 154 92 102 107 75 14 11 116 147 191 332 441 645 595 301 1054 998 1403 1439 1564 956 803 731 849 1067 1157 993 1235 1784 1072 1489 1294 1348 1586 1681 1910 1368 1510 1926 1876
662 336 239 115 185 192 579 186 145 289 66 216 152 56 25 22 65 101 159 232 364 605 247 674 892 1123 1244 1542 678 508 648 961 1307 1275 1056 1151 1012 879 746 1259 1358 1178 1263 1380 1460 1531 1673 1781 1433
444 363 220 53 2 171 212 451 531 231 200 40 195 26 28 20 56 101 130 200 372 476 184 518 966 1144 1237 1002 370 621 811 871 868 1188 1166 1201 849 919 899 967 1206 1018 1008 1117 1214 1660 1924 2001 1687
223 256 85 1 1 0 20 230 469 568 219 150 80 8 11 25 46 112 107 170 330 237 288 481 852 1152 1286 831 528 633 755 699 838 952 1253 1032 1001 1287 1112 1232 1078 1000 1040 1145 1545 1658 1790 1835 1563
56 51 10 0 0 6 117 355 506 641 400 132 37 5 12 15 44 95 128 232 368 110 388 525 740 1212 1316 886 942 905 704 832 798 885 1389 1598 1186 1394 1303 1266 1168 1186 1080 1274 1450 1749 1567 1292 1342
2 60 0 0 0 33 228 604 416 665 386 157 62 12 7 23 40 103 213 137 95 91 248 493 655 952 1087 968 1062 723 727 680 885 1114 1582 1636 1552 1786 1511 1414 1282 1157 1574 1718 1760 1653 1526 1058 1221
0 7 40 59 33 140 646 501 794 590 200 126 94 32 27 57 73 145 182 147 107 71 256 479 355 685 848 738 1043 846 951 865 1047 1113 1081 1420 1537 1164 1289 1055 1054 1394 1441 1261 1214 1298 1094 984 1062
0 25 51 109 179 335 704 527 1082 673 141 103 40 71 86 94 89 205 125 306 257 123 261 501 460 699 815 987 637 890 1095 1072 1091 1100 991 1510 1347 989 901 1013 1219 1750 1223 1056 967 1149 1046 980 886
0 4 71 11 347 371 435 505 1010 848 515 234 33 160 200 141 146 137 294 543 511 200 196 396 496 727 943 1077 1121 930 956 1135 1192 1211 1330 1430 1376 1571 1338 1030 1373 1385 908 984 1083 1171 1067 947 824
0 1 21 0 174 126 9 0 177 726 936 636 70 325 386 186 159 158 480 462 562 249 103 302 473 881 914 954 877 961 1107 1117 1165 1305 1568 1607 1551 1616 1855 1413 1407 1257 841 1388 1615 1241 1176 601 851
0 0 10 0 0 0 0 0 155 218 769 1050 378 255 510 328 221 220 551 581 396 205 0 266 466 1077 990 555 744 911 1068 1094 1235 1356 1683 1297 1625 1578 1399 1370 1419 1110 793 1474 1457 1346 480 505 768
0 0 17 8 0 0 0 2 397 442 507 837 725 725 617 463 288 405 679 578 287 212 145 346 731 1096 934 595 963 1599 1568 1805 2164 1713 1578 1585 1896 1731 1701 1916 999 1770 1177 729 1459 1289 1362 270 617
0 0 0 0 0 0 0 132 170 779 678 968 740 658 540 621 541 429 545 554 322 258 290 452 921 1203 1164 1251 1107 1413 1026 810 938 1333 1311 1773 1854 1574 1542 1903 1885 1982 1100 1319 1520 1389 1222 1475 174
19 0 0 0 0 0 0 5 131 251 723 648 905 896 691 317 237 583 479 578 399 359 397 547 1092 1352 1334 1548 1226 1426 1500 939 1205 1116 2282 1891 2297 1643 1587 1867 2035 2026 1620 1699 1523 2046 1718 852 162
10 0 0 0 0 0 0 0 10 43 1 29 824 1197 1023 819 393 455 554 556 499 462 567 628 1098 1594 1625 1838 1997 1629 1401 1400 834 1239 3047 1227 2055 1708 1830 1710 2124 2044 1737 1866 1672 2015 2034 1481 960
4 0 0 0 0 0 1 0 2 0 0 6 40 134 1260 1062 900 706 661 612 566 451 604 737 1100 1542 1628 1689 1807 1836 1799 1807 1675 2115 795 1433 1551 1230 1893 2014 2012 1720 2077 1617 1451 2348 1733 2290 1320
0 3 0 0 0 0 0 0 0 0 10 350 432 146 151 1247 1071 878 798 718 693 600 694 820 1104 1515 1535 1541 1781 1967 1862 1563 1456 1380 806 1183 1153 1360 1720 1967 1628 1797 1767 1668 1679 1622 1329 1441 1735
0 6 3 0 0 5 0 0 0 0 39 72 300 430 458 1164 1202 990 907 849 806 860 832 1020 1156 1618 1617 1470 1639 1919 1963 1788 1189 1266 1411 1138 1225 1204 2083 1545 1496 1513 1952 2082 2284 1786 1811 1672 2015
0 0 0 0 0 0 0 0 0 0 3 26 39 394 640 785 1117 1233 1000 970 871 935 959 1084 1199 1539 1707 1599 1573 1646 1775 1885 1707 1583 1720 1411 1107 1611 1635 2226 2015 1682 1987 2395 2501 1508 1936 1919 1548
0 0 0 0 0 1 9 4 0 0 0 0 61 425 636 644 1043 866 1158 890 926 1010 1057 1087 1182 1304 1585 1610 1567 1563 1548 1579 1767 1685 1730 1784 1522 1653 2127 2219 2316 2188 1921 2210 2768 2080 1686 2362 2063
0 0 0 1 5 0 16 0 0 0 1 110 133 241 474 661 527 924 669 1183 740 877 983 1060 1177 1185 1331 1439 1634 1627 1673 1531 1350 1610 1563 1624 1719 1709 2158 2562 2368 2460 2174 2516 2576 2086 1656 1880 1929

GFSSGP_con_mucape_075.txt.gz
CAPE
0 0 12 116 408 478 591 451 341 210 140 101 61 43 156 712 772 720 393 863 993 838 899 1359 2239 1740 2382 1808 1914 2114 2309 2119 2023 1834 2108 1817 1602 1996 1737 1704 2245 2348 2489 2403 2534 2617 2480 2444 2301
5 0 66 388 488 556 409 324 150 153 107 40 1 24 452 526 404 181 515 728 601 353 445 640 2188 1866 2059 1791 2061 2129 1832 1860 1892 2049 1923 2083 1964 2099 2126 1867 2097 2148 2261 2414 2404 2457 2333 2443 2301
362 9 334 583 572 590 325 39 67 42 73 91 65 485 622 147 143 210 462 569 429 248 506 1285 2196 1825 2109 1797 2050 1916 2076 1916 2022 2090 2071 1893 1790 1730 1934 1970 1764 2141 2225 2318 2291 2284 2302 2291 2402
44 255 616 866 488 490 332 12 71 204 384 238 361 332 266 134 177 275 339 463 316 734 903 1623 2033 1694 1977 2111 1838 2151 1953 1872 1877 2032 1871 1825 1789 1844 1863 1953 1849 2127 2227 2185 2093 1967 2109 2404 2282
98 784 984 799 674 565 217 22 25 245 459 309 280 279 120 110 167 223 305 547 547 829 1166 1700 2376 1900 2008 1948 1910 1878 1958 1866 1941 1839 1794 1750 1765 1697 1653 1839 1966 2108 2071 2034 2065 1781 1903 2360 2119
705 587 632 316 612 319 68 40 20 37 410 427 338 161 194 128 143 201 278 402 491 432 954 1398 1844 1903 1953 1698 1801 1814 1811 1845 1733 1630 1689 1521 1542 1788 1667 1746 1911 1934 2071 2100 1969 2073 2144 2276 2208
622 1195 485 405 717 375 91 33 21 101 428 306 264 318 162 109 128 181 262 437 363 787 682 1169 1554 1790 1778 1765 1694 1745 1858 1821 1777 1651 1642 1565 1711 1442 1489 1907 1873 1663 1741 1670 1649 1770 2379 2377 2345
719 631 329 596 440 606 59 47 32 217 534 347 543 225 115 127 149 244 285 363 396 682 547 1010 926 719 1323 1547 1580 1709 1786 1644 1739 1637 1656 1764 1661 1464 1902 2214 1710 1825 1755 1945 2111 2263 2215 2199 2101
837 749 349 390 635 513 377 289 424 398 349 302 302 307 50 61 144 255 288 305 370 615 462 149 429 1170 1785 1510 1607 1388 1582 1548 1608 1322 1315 1490 1512 1339 1272 1969 1800 1925 1873 1946 2237 2399 2302 2201 1889
878 608 368 357 558 192 446 580 760 503 242 293 262 146 37 75 145 210 179 231 277 394 86 324 863 950 1318 724 1692 1127 981 1291 1196 1211 1826 1291 1376 1154 1248 1689 1786 1865 1940 1834 1875 2314 2472 2258 1269
687 346 164 330 641 654 441 348 527 292 485 256 261 97 49 113 144 152 145 114 209 157 115 813 946 1643 1055 850 519 499 599 380 555 1428 1400 1368 800 926 786 1479 1489 1829 1876 1606 1511 2030 2024 2060 1041
727 412 269 220 390 614 780 520 279 433 551 317 178 104 52 134 116 136 138 100 135 153 155 516 622 1619 1396 569 411 1061 756 671 997 1411 1509 944 623 908 1601 1479 1185 1884 1801 1377 1175 1495 2244 1265 1051
758 426 287 46 2 19 300 747 780 264 84 158 315 108 52 139 150 147 135 112 135 73 146 523 770 2175 1842 512 673 1260 462 750 469 1096 1737 1685 1311 1623 1939 1770 1250 1625 1328 1228 1590 2151 2099 1552 1529
612 533 223 69 4 5 248 538 585 792 290 327 259 111 87 112 155 173 167 99 93 22 177 506 861 1549 1143 960 1217 1756 1162 419 1111 1129 1381 1671 1152 2317 1154 1206 1384 1582 2081 2407 2220 1979 2124 1595 1196
171 449 171 18 0 17 507 599 804 734 600 200 175 120 105 125 176 159 151 132 56 30 235 407 774 1017 1132 865 820 1409 1190 808 1033 1465 1417 1259 1793 1591 1320 948 1600 1488 1862 1706 1620 1414 1692 1453 1302
45 212 338 118 9 135 532 629 918 945 575 217 152 131 127 133 164 170 191 91 30 12 255 338 335 744 682 761 809 1448 1046 1120 1312 1650 1629 1486 1325 1544 2039 1182 1485 1079 1653 1590 2219 1805 1711 2043 1433
0 132 158 143 35 155 488 709 882 927 744 306 122 111 106 117 104 183 181 45 34 31 293 351 426 662 582 868 827 1683 1607 1410 1342 1885 1522 1595 1498 1503 1488 1335 1418 2342 2782 2160 1227 1595 1579 1382 1365
0 21 118 177 112 211 583 544 1072 816 421 402 175 138 117 104 125 179 115 147 205 217 224 408 427 854 833 843 997 1039 716 1416 2237 2078 1963 1585 1804 1355 1483 1374 1350 2517 1844 1273 1712 2195 1029 1514 1445
1 2 72 109 145 187 253 647 742 1062 624 688 171 134 265 139 173 269 130 382 308 248 179 417 544 1267 931 901 715 811 1316 1998 1943 2205 1670 1527 1829 1444 1635 1185 1373 2339 1852 2044 1301 1179 1358 747 709
0 4 85 51 157 177 69 31 418 589 1032 1029 331 123 396 208 166 214 143 471 396 341 222 335 583 1299 1036 987 1677 728 1290 1503 1618 2032 1573 1499 1555 1633 1583 2253 1628 1915 1275 1581 1227 2122 2475 853 790
0 17 132 55 0 58 30 61 162 117 467 1239 700 475 547 338 172 214 322 455 514 343 141 314 675 1308 1340 1219 1035 1103 1230 1921 1747 1839 1300 1531 1616 1528 1671 1993 2661 1267 2303 1076 1541 1261 1906 1904 221
3 0 63 44 10 10 5 71 193 204 225 1342 746 716 551 520 286 220 309 518 416 223 1 258 586 1193 1153 1332 1700 2375 1308 1470 766 1678 2034 1592 1752 1614 1682 1646 1733 1720 1616 2322 1126 763 2415 1519 584
9 0 6 73 4 51 57 78 46 424 588 1136 826 933 924 688 374 318 497 586 313 184 181 447 1106 1809 2043 1862 2259 1649 2097 1063 1107 1812 2107 2327 2022 1712 1574 1893 1900 2025 1952 1732 2123 1956 1887 540 709
25 31 4 9 16 8 40 1 448 323 422 963 877 808 869 713 642 368 526 517 394 213 217 593 1497 2089 1817 1550 1737 1945 1899 2156 2133 1227 1564 1389 1236 1545 1695 1781 1984 2079 2515 2060 1516 1767 1756 2153 1970
73 58 16 18 9 14 8 8 117 34 5 27 498 443 1086 804 806 665 424 626 418 485 192 484 1430 2005 1903 1827 1882 1833 1871 1682 2233 1747 1305 1083 2209 942 2466 1940 2309 1876 1981 1552 2051 2445 1932 1269 1717
69 53 23 4 4 9 60 69 22 27 391 446 421 264 1103 1025 850 697 805 644 581 652 273 441 1296 2192 2056 1999 2279 2687 2424 1598 1226 1593 1605 1325 1704 1041 3035 1932 1633 1725 2089 1784 1836 1829 1345 2523 1506
58 44 16 87 57 53 111 7 0 110 205 283 665 612 183 1179 814 900 641 1000 564 665 643 661 1826 1898 2132 1953 2238 2597 2612 2393 1577 2537 1702 1506 2317 1122 2014 1866 1781 1761 1773 1987 2437 1585 2173 2662 2046
4 25 76 77 65 79 87 9 33 81 95 130 261 398 478 574 688 605 652 777 749 693 765 481 910 1773 2083 1979 2016 2099 2246 2383 2085 1587 1909 1709 2042 1443 1366 1940 2027 1778 1698 1846 2244 2598 2505 2008 1605
0 0 27 95 41 118 103 28 0 36 37 12 141 260 405 516 638 644 465 385 503 489 900 946 1006 1396 1955 1988 1999 2109 2099 2163 2277 1847 1771 1909 1588 1752 1735 2864 2198 2143 1980 1936 2756 3138 2086 1944 2309
0 7 1 43 32 13 88 8 19 8 0 71 532 376 418 359 395 587 405 408 403 387 502 563 1071 1208 1479 1734 2399 1951 2030 2103 1980 2193 2029 2325 2458 1825 2050 2121 2199 2248 2192 2502 2685 2136 1509 1978 1999

GFSSGP_con_mucape_078.txt.gz
CAPE
0 0 0 143 119 418 356 293 363 369 70 54 74 311 456 384 305 590 526 719 677 832 1100 1587 2436 2332 1780 2036 2137 2227 2120 1985 1821 2162 2032 1721 2018 1553 1932 2326 2312 2534 2449 2478 2547 2638 2408 2365 2465
0 3 4 229 258 208 179 163 76 80 77 62 293 367 291 232 252 549 613 639 725 703 877 844 2402 2607 1825 2196 2238 2178 1999 1805 1968 1948 1978 2188 2164 2053 1983 2141 2212 2494 2471 2424 2454 2533 2486 2371 2350
188 11 455 753 367 236 214 88 61 92 122 98 444 350 133 111 337 469 598 594 346 217 335 1149 2402 2420 1769 2150 1740 1989 1855 1843 1954 2075 1906 1847 2328 2136 1792 1950 2142 2306 2318 2320 2168 2517 2366 2258 2198
146 483 337 753 674 368 191 10 8 197 271 281 220 94 83 166 343 310 324 32 64 408 426 1876 2164 2107 1922 2015 2004 1961 1959 1986 2099 1991 1914 1813 1733 2003 1891 2031 2058 2165 2231 2076 2119 2210 2345 2155 2094
135 572 673 644 573 472 47 22 22 228 329 333 144 57 50 176 142 258 217 350 695 367 526 1342 2464 2469 2356 1927 1849 1913 1911 1983 1964 2061 1855 1838 1790 1811 2085 2024 2150 2207 2133 1964 2016 2211 2198 2036 1992
500 669 567 455 552 167 18 48 68 165 270 152 65 70 69 142 128 263 378 632 916 424 400 1007 2109 2056 1864 1649 1880 1893 1824 1772 1702 2082 1618 1666 1695 2065 1926 1902 1985 2166 2156 2138 2124 2265 2239 2090 2040
608 988 398 534 357 161 27 32 71 484 254 210 136 46 42 94 97 243 380 503 284 759 1038 1202 1236 1796 1764 1764 1798 1791 1918 1816 1644 1722 1575 1994 1995 1963 1891 1885 2056 1923 1870 1727 1848 2266 2247 2225 2256
554 881 367 391 477 55 13 19 19 213 409 368 336 64 36 147 57 210 237 96 591 674 668 986 1102 935 1072 1453 1696 1731 1679 1720 1655 1621 1594 2113 2131 1864 1487 2077 2412 1855 1822 1944 2177 2264 2169 2072 1998
658 592 545 459 443 260 25 53 95 311 413 313 427 49 31 27 65 173 258 576 285 653 716 406 917 1201 1813 1625 1620 1704 1546 1691 1595 1484 1120 1757 1578 1306 1421 2099 2375 2044 2066 2124 2200 2164 2080 2001 1908
548 635 282 334 230 202 400 159 346 442 221 236 178 24 10 54 70 172 172 464 260 297 260 560 1210 1248 1213 387 1565 1381 1199 1159 1535 1510 689 1258 1840 1463 1530 1991 2333 1933 1999 2240 2414 2337 2055 1877 1337
234 557 229 566 521 478 676 732 781 346 151 181 56 13 10 52 107 100 108 87 34 175 792 933 1701 1354 1217 1412 1683 1242 1241 1080 1692 1891 1818 1494 1206 1315 1449 1897 1677 1936 2052 1441 2186 2522 2152 1888 2123
703 485 270 666 596 447 471 549 322 377 511 115 94 2 25 55 75 71 77 81 65 629 672 762 1319 586 749 1321 897 595 1190 978 1182 1405 1787 2253 2157 1268 868 2067 1792 2368 1063 680 1153 2224 2343 2005 1451
461 562 378 147 961 679 447 546 388 168 162 130 82 10 23 66 78 81 72 70 98 370 635 1184 1309 2040 2436 796 1780 731 732 891 1064 1579 2005 1974 846 2242 1489 888 1946 724 1002 951 1728 1599 2461 1285 1375
583 318 242 106 60 140 533 636 546 163 137 351 80 33 54 79 68 93 100 89 75 55 503 1375 1301 1585 1786 1398 347 909 287 1006 1166 1604 2296 1856 947 2568 2178 988 2290 2171 738 2209 1179 2417 1468 1621 1557
221 699 317 106 24 104 599 739 676 227 198 601 111 56 85 101 110 153 112 116 38 47 807 1121 1355 1373 1807 2027 1743 352 1488 1190 506 1748 1291 1165 1858 2016 1133 2187 1079 1533 3157 3033 1843 2495 2892 1560 1465
42 202 330 133 19 87 525 552 761 625 396 346 156 76 100 88 106 185 109 78 46 18 837 774 638 727 1640 1691 2147 1965 1505 939 1374 1848 1907 977 1561 1737 232 1774 1336 1738 2710 2568 597 2044 775 1991 703
1 120 109 69 15 200 379 538 608 583 265 268 248 91 85 124 86 238 116 67 16 257 821 592 846 882 1288 2117 1930 1407 1086 971 1734 741 1319 2459 2506 2457 2052 1545 817 1663 2228 2272 726 1743 1872 2147 1754
0 18 124 153 65 162 498 69 10 762 383 212 169 101 109 95 65 154 90 58 4 404 742 820 1122 1511 2044 1470 2385 1620 1559 365 629 1009 704 1881 2294 2107 2320 1296 3049 2938 2769 1592 1696 2085 1289 793 615
0 0 43 255 120 105 805 321 685 689 591 263 115 186 37 51 118 141 89 44 19 302 570 1045 1960 2061 1724 1406 1410 909 1518 1737 1702 2400 1762 1370 904 2597 2443 2713 2563 2123 1362 540 3235 2745 1972 2362 1429
0 1 1 11 90 584 262 193 542 747 595 377 347 218 100 87 71 184 121 191 167 357 582 1314 1913 2257 2058 1462 2134 867 2239 2082 1388 1567 2313 1864 1969 2577 2248 1774 2391 1888 2173 2891 2667 2402 2019 2279 1220
0 0 24 135 6 174 206 512 507 913 652 782 519 216 185 142 101 159 117 265 198 254 566 1150 1991 2119 1890 2481 2303 1545 317 650 324 443 1943 2379 2413 2442 2450 2642 2915 766 2630 2762 2656 2100 1106 2627 1241
0 0 23 59 51 77 90 147 429 541 794 870 318 145 292 388 54 94 308 381 327 159 588 1125 1741 2005 1578 2482 1937 2531 1994 1304 2055 2114 2200 2398 2321 2302 1899 2888 3026 2419 875 1025 2980 2145 1943 1904 2165
0 0 1 36 48 0 0 39 104 116 945 1113 615 322 435 394 268 91 115 420 447 182 270 897 1292 2287 1660 2181 2558 2283 2063 1655 1101 1447 1016 1877 2682 2302 1805 2612 3006 2021 916 533 1839 2729 2883 2918 1990
0 6 4 6 21 0 7 22 466 229 82 409 1127 702 788 601 371 340 132 442 356 187 11 725 1304 2315 2536 1963 2358 2673 1991 492 234 1682 788 2379 2073 2487 2122 2057 2982 2319 1013 1445 1109 2674 2303 3361 3609
0 28 3 0 14 13 0 26 277 119 102 102 785 1232 816 947 696 481 230 573 482 45 117 1045 1755 2266 2099 1880 2078 2325 2248 2169 1074 1190 643 2019 1296 1823 2602 3403 3449 2295 2660 2163 2564 3193 3159 2425 2816
9 41 53 3 0 0 3 50 96 123 219 352 574 704 1182 1005 646 651 489 826 435 171 225 1220 1993 2258 2359 2248 2613 2526 2665 1995 1633 713 1731 1120 326 1303 2102 2417 2930 2915 2650 2695 2911 2856 2748 2969 2598
36 76 67 58 12 27 119 178 190 217 433 760 682 373 272 717 513 354 756 940 456 568 284 1275 2252 2597 2599 2383 2800 2718 2545 2294 2486 2568 3304 1543 635 1724 1524 2138 2569 2709 2001 3076 2801 1935 2514 2486 2390
29 16 65 33 7 68 139 181 239 264 312 402 384 232 118 414 467 295 323 450 340 747 380 1303 2217 2571 2611 2417 2584 2731 2769 2979 2838 2997 3087 2817 951 386 343 534 1529 2784 2104 2290 2609 2735 1292 2114 1701
5 20 2 14 59 111 177 106 373 249 123 53 221 143 76 115 263 267 270 315 343 366 327 164 1933 2534 2677 2628 2545 2543 2605 2780 2827 2833 3232 2870 2394 1007 434 91 663 1419 2734 3045 2972 2205 1847 2275 2392
2 5 0 74 71 30 31 6 149 59 25 0 7 127 182 190 200 43 0 27 298 251 185 309 267 866 2215 2439 2574 2634 2798 2771 2920 2873 2868 3315 3148 2959 971 733 1104 1454 2456 2515 2862 2413 2095 2093 2568

GFSSGP_con_mucape_081.txt.gz
CAPE
0 0 0 0 18 136 7 20 200 114 67 57 107 248 235 214 281 321 401 467 561 776 1279 1701 2492 1899 1669 2033 2375 2077 1900 1828 1959 1999 1870 1944 1510 1962 2314 2281 2301 2387 2515 2549 2476 2332 2298 2094 1920
0 0 0 22 33 99 19 183 99 119 141 209 98 70 175 236 326 333 350 450 624 903 1239 1718 2356 2289 2226 2218 2287 2003 1809 1908 1846 1983 2097 2111 1866 2149 2047 2182 2231 2156 2304 2332 2492 2423 2145 2003 1979
1 80 123 256 209 9 16 151 101 148 311 268 107 36 225 258 362 312 348 483 658 751 1091 1783 2592 2376 2035 1733 1924 1671 1664 1819 1934 1757 1774 1945 1994 1747 2036 2145 2101 2350 2304 2177 2414 2345 2087 2014 2009
61 189 87 341 368 189 84 64 58 275 313 162 6 38 184 224 237 225 359 328 278 359 1248 2241 2399 1786 1849 1927 1813 1862 1884 1986 1804 1832 1662 1568 1922 1800 2015 2093 2230 2215 2056 2250 2377 2257 2067 1991 2067
86 327 203 370 249 130 19 27 82 259 229 110 2 96 121 159 181 262 23 63 214 607 1103 1760 2595 2124 1929 1815 1743 1832 1897 1843 1695 1836 1745 1738 1915 1838 2042 2169 2112 2055 2085 2207 2395 1923 1956 2117 2200
194 265 279 343 224 0 30 13 91 234 184 35 0 0 6 150 59 12 110 97 368 577 1069 1305 2034 2258 1773 1834 1851 1847 1719 1593 1742 1593 1489 1580 1817 1932 1938 1935 2125 2104 2047 2197 2264 1959 1950 2135 2120
265 249 321 424 151 40 10 72 125 244 48 0 1 0 19 58 29 301 229 207 81 519 904 1485 1459 1401 1657 1839 1723 1759 1640 1677 1645 1531 1727 1704 1737 1912 1946 2074 2147 1999 2266 2326 2245 2149 2049 2130 2198
520 226 333 451 107 0 6 60 214 426 132 9 0 0 2 37 120 408 341 184 308 629 783 1049 1342 1135 1298 1380 1669 1775 1694 1629 1583 1561 1471 1668 1727 1682 1777 2572 2560 1840 1845 2060 2247 2127 2037 2081 2144
553 286 285 252 4 7 8 63 105 332 312 103 14 0 6 42 128 98 257 409 584 596 734 582 735 755 1089 1170 1310 1446 1648 1495 1586 1238 1124 1586 972 1053 1377 2236 2479 1933 1960 1991 1983 1882 1838 1814 1829
151 190 257 262 151 29 58 156 444 58 390 258 2 4 18 43 54 130 167 251 352 421 386 519 677 853 829 1074 1206 1225 1123 738 532 263 714 916 802 816 1388 1907 2302 2100 2120 2214 2068 1980 1833 1839 1067
11 234 328 75 65 101 184 170 402 269 173 21 6 0 4 63 192 155 86 0 170 235 580 460 415 676 492 641 918 844 737 777 515 436 558 666 1060 1412 1471 1666 1773 1609 1765 1446 1730 1558 1605 1639 1457
385 348 332 320 414 371 626 660 325 458 416 20 2 0 2 36 120 102 67 42 101 274 634 698 687 594 613 809 973 572 692 668 690 818 974 851 804 829 788 1092 1237 1430 868 763 1066 1295 1840 1758 1758
344 166 382 565 437 595 654 614 378 314 120 27 16 0 9 45 77 79 41 78 214 306 648 312 0 239 480 573 784 599 676 417 705 646 972 637 638 375 675 807 948 1369 572 772 1003 1238 1619 794 747
106 179 354 461 378 336 365 320 129 96 10 11 18 2 16 52 51 62 53 157 154 419 445 346 604 786 404 112 208 253 463 306 591 1090 683 818 817 673 176 586 1059 768 800 958 992 1349 1017 909 542
546 19 160 263 626 468 487 321 444 94 145 168 39 6 24 54 51 45 44 107 362 433 514 568 597 654 509 129 37 92 469 501 673 794 277 751 1116 923 952 746 1021 841 1068 662 826 1131 1560 869 1011
244 155 111 190 105 738 381 286 346 80 175 71 66 9 20 36 45 55 48 41 317 447 348 436 513 685 474 624 35 688 364 551 817 1072 285 480 1105 368 452 1097 645 1137 1377 523 741 856 819 723 734
0 5 198 184 136 561 351 325 299 259 344 148 118 13 40 40 52 59 33 25 227 245 252 245 0 492 174 457 874 373 556 646 428 570 726 1111 1346 921 1034 1473 720 1431 1409 1216 583 896 1052 1193 947
0 3 11 70 18 597 461 270 375 195 293 182 108 24 35 48 40 46 28 1 20 53 26 284 119 516 114 358 444 641 448 316 642 402 335 1045 1497 1349 1129 1059 1038 1237 1186 1004 691 944 755 433 657
0 0 55 132 146 202 220 54 0 289 315 226 310 27 17 33 60 62 24 12 12 144 27 508 300 668 90 404 767 680 601 121 427 499 311 1009 708 1404 1315 925 1270 1029 866 708 718 1337 732 1273 503
0 0 2 180 476 422 208 53 41 85 440 181 37 5 10 33 65 48 33 17 11 63 42 543 629 525 152 136 698 543 425 767 651 784 675 913 502 1460 1324 1061 846 437 858 1474 1434 1144 1285 1147 572
0 0 0 118 82 277 256 353 163 374 401 135 47 115 13 39 46 45 22 0 27 80 142 584 506 776 383 272 757 543 621 501 339 414 699 1122 1057 1281 1351 629 1159 718 1409 1301 1124 764 526 1342 147
0 0 0 97 73 96 304 109 267 654 398 209 90 107 43 69 49 62 15 28 8 77 175 512 747 779 519 1054 675 521 388 430 377 123 700 1269 1389 1140 1440 1607 1137 747 981 790 1536 1639 1339 1409 1050
0 0 1 67 42 48 113 115 242 558 495 312 295 207 88 53 102 89 125 52 71 80 211 291 1025 743 121 691 999 572 339 683 629 934 1031 1144 1107 1321 1253 1153 1252 858 436 543 709 1366 1368 1641 1568
0 0 0 4 4 21 6 73 281 557 403 546 257 251 247 313 361 93 104 109 75 78 180 255 1111 694 346 463 1056 894 364 311 346 647 548 969 1269 1444 1298 1420 1169 1117 845 785 710 1093 1225 1105 1613
0 0 0 0 30 6 18 28 265 458 591 425 183 24 211 307 284 108 106 200 204 113 178 253 653 1113 1015 654 1043 912 487 266 13 357 565 897 1134 1246 955 1240 1412 1346 1129 775 835 1570 1193 1366 855
0 0 0 0 0 2 39 244 121 139 317 88 33 169 436 507 364 182 141 256 240 123 211 285 350 1182 1139 976 963 825 887 489 534 505 216 668 657 883 1168 1489 1402 1140 1048 1227 1211 1038 1368 1378 1039
0 0 3 14 0 1 385 290 141 17 8 23 129 263 497 526 214 401 234 266 295 174 108 341 599 920 1279 1015 1194 1136 936 874 573 286 289 651 151 791 1232 1231 1377 1362 1231 1206 1484 904 1217 1272 1084
0 1 48 5 27 32 481 355 324 316 331 429 317 429 548 438 300 320 236 179 375 205 165 738 1007 1103 1369 1600 1516 1664 1724 1360 1131 1058 922 933 708 755 760 759 1029 1200 1285 1524 1454 1109 983 966 661
1 0 7 25 13 1 79 66 308 236 210 277 371 324 395 434 273 279 252 163 366 221 167 387 602 831 1264 1494 1568 1615 1653 1513 1303 1385 1411 1093 734 554 465 582 245 709 1156 1322 1303 1009 1190 1029 935
1 22 28 9 21 33 83 22 112 173 150 89 193 304 291 236 344 268 254 89 91 148 143 146 155 446 500 751 1111 1548 1851 1815 1699 1645 1281 1590 851 916 622 152 422 922 917 1331 1375 1246 1114 1013 1152

GFSSGP_con_mucape_084.txt.gz
CAPE
14 0 0 5 29 0 25 5 121 101 157 57 15 11 11 15 77 101 91 444 435 843 1457 1793 2306 1721 1884 2226 2164 1888 2191 1928 1951 2122 1695 1949 1953 2222 2387 2385 2430 2430 2616 2466 2237 2110 2076 2017 1781
0 0 0 27 1 0 0 113 27 121 116 89 141 161 166 237 233 229 268 388 510 1040 1455 1647 2162 2333 2332 2172 2160 1948 1980 2000 2199 2285 2096 1860 2166 2186 2300 2320 2307 2349 2607 2501 2258 2146 2092 1689 1497
4 1 27 104 119 0 6 76 140 159 207 45 126 207 236 259 285 237 303 494 712 1175 1510 1393 2217 2575 1987 2071 1828 1798 1948 1965 1843 1929 2118 1961 2016 2162 2267 2171 2380 2348 2369 2821 2327 2218 2071 1898 1729
64 113 130 228 112 6 5 96 74 84 146 86 111 125 165 219 180 254 382 576 797 1235 1556 1975 1971 1813 1973 1764 1739 1903 1985 1904 1909 1769 1917 1823 2098 2197 2229 2386 2344 2347 2460 2488 2163 2184 1987 2080 1894
90 219 136 332 199 39 8 18 79 142 206 163 107 101 141 160 223 282 397 464 682 1283 1600 1529 2363 1954 1954 1744 1803 1876 1831 1717 1814 1850 1838 1927 1863 2155 2256 2205 2147 2263 2439 2395 2020 2034 2134 1805 2768
245 200 242 302 15 50 26 55 51 214 76 80 34 0 6 131 183 220 305 164 538 1161 1576 1492 1829 1807 1794 1705 1941 1738 1682 1767 1685 1573 1734 1976 2050 2136 2150 2163 2162 2241 2428 2362 1959 2105 2256 2000 2379
249 277 392 317 12 38 32 47 100 28 61 12 0 42 61 155 41 63 116 81 514 1006 1215 1518 1436 1505 1771 1760 1663 1587 1737 1577 1553 1576 1571 1830 1872 1961 2036 2249 2314 2255 2400 2240 1998 2009 2100 2263 2519
377 265 406 272 101 26 11 101 348 17 18 0 0 22 83 0 0 30 35 264 476 841 1141 1132 1102 1272 1377 1432 1736 1716 1644 1515 1502 1343 1698 1769 1811 1864 2065 2578 2522 2233 2259 2121 2035 2031 2133 2233 2425
473 267 158 175 1 4 57 123 275 381 0 14 10 0 0 16 0 17 26 138 401 651 958 1098 1037 1164 1165 1237 1271 1612 1563 1475 1354 1362 1751 1516 1186 1394 1473 2248 2094 1889 1995 2038 1994 1958 1963 1928 1901
274 129 142 100 8 21 58 160 300 282 24 34 3 27 139 112 86 57 155 329 373 510 622 787 668 875 941 1139 1116 1097 887 771 650 796 861 712 847 1102 1630 1951 2031 1981 1931 1873 1877 1706 1700 1738 1034
42 258 178 177 1 46 97 176 153 67 63 20 0 0 23 116 100 153 293 351 413 463 338 432 516 699 765 1003 887 869 524 408 335 535 778 610 739 1324 1460 1492 1690 1676 1692 1386 1517 1109 1225 1428 1267
29 81 207 51 33 60 248 212 18 405 264 46 4 21 7 60 96 205 190 224 395 352 343 445 507 423 428 487 732 697 673 582 355 435 535 733 843 830 876 915 1148 1319 916 935 943 981 1390 1667 1725
208 169 500 272 247 321 530 471 253 320 293 28 4 35 44 43 71 90 155 192 276 311 373 374 406 372 317 596 458 598 623 598 669 762 667 647 450 461 561 901 958 1194 419 759 982 1167 1322 816 591
354 63 604 459 454 795 370 309 210 185 107 34 16 19 45 88 86 15 44 82 269 421 435 341 547 295 578 642 594 352 453 397 481 633 686 412 331 373 580 648 833 959 633 633 979 1222 933 581 596
57 55 180 318 474 540 438 281 252 145 112 23 9 25 32 50 73 31 125 148 344 447 465 132 409 475 303 512 504 364 305 359 747 487 548 704 601 360 441 640 797 541 870 1005 849 1103 888 748 574
242 58 95 248 487 441 243 135 286 102 51 19 13 15 45 34 49 88 99 132 336 259 190 531 356 97 63 84 243 276 372 575 607 187 550 624 925 639 670 792 816 971 1285 765 762 890 832 648 647
113 97 64 274 622 571 259 131 368 130 240 34 14 25 47 62 39 85 257 241 254 196 254 535 394 234 204 45 396 251 546 616 813 607 513 646 778 220 552 892 719 1278 1200 528 605 704 800 1010 690
65 6 73 236 623 713 295 159 197 254 326 38 32 19 54 36 19 43 256 299 243 199 212 372 291 158 516 587 370 423 419 415 450 494 643 881 1252 1254 1139 930 842 1281 975 1011 815 882 833 580 634
15 6 40 163 376 240 281 80 116 222 346 158 37 18 35 46 42 20 181 275 229 173 144 130 174 68 233 428 381 301 256 382 604 368 173 525 936 1152 596 831 807 812 733 958 793 564 596 810 517
21 23 41 467 342 221 211 209 128 233 299 252 64 27 49 64 45 22 134 179 166 234 231 214 180 54 0 307 540 526 404 314 444 527 509 529 488 1134 1159 998 834 691 679 749 1113 959 970 841 648
0 45 13 192 409 245 138 94 67 23 277 275 127 77 57 47 38 25 6 39 68 67 292 258 323 105 7 68 636 599 491 455 544 626 715 836 722 1106 908 759 786 436 1166 1016 949 495 674 770 270
0 27 3 194 130 78 188 2 184 16 148 286 107 85 80 58 48 32 40 41 101 60 352 305 389 161 103 345 366 553 501 411 436 436 624 1083 993 977 878 820 893 682 874 699 1147 1416 1123 917 783
0 10 0 26 77 174 105 89 77 139 383 220 160 105 90 69 83 53 28 63 69 122 302 259 344 306 328 792 609 472 470 442 464 447 434 1154 1023 1043 1162 975 718 648 571 646 773 1047 1002 1399 1168
0 22 56 95 88 46 79 117 100 385 344 310 319 172 95 78 75 62 52 62 72 134 211 530 324 329 336 638 750 709 453 403 659 626 513 942 1030 1162 1305 1066 884 778 512 720 501 1058 926 875 1156
0 9 0 41 47 14 12 63 61 337 497 343 362 304 149 104 139 47 55 52 69 137 210 626 438 364 225 200 671 749 637 367 499 637 604 840 921 1061 1097 1133 934 668 559 399 642 1086 1134 969 477
0 0 0 0 32 4 14 20 59 365 537 487 353 211 136 134 289 165 159 94 105 93 244 310 692 489 399 301 564 718 686 469 182 261 548 537 825 848 1092 1032 1047 958 984 729 680 1057 953 996 1244
0 0 0 15 0 13 178 87 197 440 461 476 455 189 113 175 346 336 205 167 170 120 257 238 701 646 506 611 567 693 704 469 380 529 389 351 779 642 799 1066 1223 1035 865 746 1167 909 845 980 992
0 0 19 37 0 0 185 77 12 243 546 454 400 125 254 230 345 399 292 247 303 167 178 290 290 790 746 714 825 741 763 830 408 476 473 351 545 743 792 1214 1102 1051 1125 819 1039 1165 752 668 699
0 0 29 50 4 0 89 74 78 111 327 251 199 215 318 543 416 377 272 201 262 266 180 280 337 397 510 827 769 1039 1140 923 862 835 828 887 779 690 759 839 726 993 1015 1142 1244 1127 822 923 739
0 2 58 86 43 86 59 50 343 195 83 126 291 336 354 296 339 401 213 181 188 232 201 259 241 161 204 205 431 646 756 995 1110 1142 1143 1162 1041 682 590 541 529 319 652 942 1208 1081 952 1021 894

GFSSGP_con_mucape_087.txt.gz
CAPE
27 0 0 7 1 0 0 28 58 148 30 0 0 2 19 0 31 28 85 451 646 1184 1588 1831 2199 1491 1844 2053 1852 1910 1672 1617 1560 1982 2096 2188 2314 2400 2278 2326 2181 2302 2659 2058 2159 1913 1875 2020 1730
0 0 0 52 1 0 0 57 96 145 134 1 25 61 221 336 380 80 342 410 835 1294 1493 1686 2178 2268 2058 2024 1760 1872 1827 1891 2052 1665 1982 2028 2271 2455 2335 2315 2388 2414 2556 2267 2100 1714 1555 1657 1613
0 0 9 78 0 0 3 64 125 280 76 8 68 293 407 432 215 249 402 493 1031 1360 1397 1351 2008 2198 1887 1885 1878 1918 1966 1892 1893 1951 1924 2102 2195 2265 2339 2468 2576 2586 2428 2217 2130 1846 1569 1536 1330
0 13 168 158 0 0 7 93 172 242 187 201 206 173 219 294 243 412 386 770 1112 1305 1097 2015 1991 2006 1933 1804 1843 1965 1745 1797 1749 1808 1762 2015 2176 2257 2391 2394 2389 2440 2274 2242 2267 2110 2012 1885 1751
95 153 164 209 6 5 20 56 83 180 228 250 124 161 187 277 357 414 471 774 1080 1287 1366 1745 2133 2023 1940 1892 1849 1848 1772 1689 1762 1769 1939 2070 2218 2272 2376 2232 2465 2492 2346 2257 2189 2000 1993 2131 2386
263 305 210 54 79 9 34 53 84 170 120 59 91 93 195 269 360 398 463 775 1213 1420 1352 1725 2026 1959 1769 1871 1977 1765 1878 1899 1845 1868 1924 2047 2200 2260 2210 2300 2452 2457 2155 2056 2247 1946 2129 2371 2225
236 378 342 159 39 42 39 53 88 66 40 26 35 63 183 229 315 264 421 733 1128 1507 1312 1441 1583 1634 1864 1956 1561 1705 1711 1536 1606 1742 1930 2029 2189 2115 2269 2215 2100 2440 2072 2074 2270 2158 2136 2512 2373
303 296 384 121 1 32 26 80 90 41 46 45 19 59 130 161 211 254 231 644 1110 1294 1409 1309 1392 1501 1408 1368 1669 1689 1522 1645 1622 1666 1900 2071 1998 2194 2362 2078 2521 2505 2157 2019 2014 2040 1937 2210 2584
555 336 175 233 0 3 41 140 294 341 42 35 46 40 67 76 132 5 213 513 850 1064 1146 1040 1217 1338 1302 1414 1464 1479 1509 1386 1475 1714 2044 1591 1607 1511 1782 2089 2079 2074 2037 1987 2023 2056 2083 2183 2515
137 101 113 98 0 2 121 274 333 51 20 82 43 29 3 23 47 28 50 281 520 788 906 954 996 1123 1179 1224 1340 1094 1252 874 1131 1292 875 1152 1166 1614 1893 1896 1969 1908 1944 1865 1802 1749 1853 1485 1482
162 176 225 2 0 59 57 140 129 9 65 44 34 14 0 12 47 1 0 98 197 531 769 843 804 863 987 1101 975 660 486 485 687 793 754 642 1072 1610 1748 1782 1599 1564 1476 1475 1337 1473 1280 1136 884
79 88 278 19 93 134 134 169 137 75 217 28 83 45 0 0 87 95 222 176 301 372 372 502 500 651 788 779 746 567 490 376 538 607 627 664 919 911 1045 1026 1148 1151 890 781 885 1032 1072 1401 1306
95 317 554 52 82 248 229 224 97 292 503 51 130 114 40 25 97 232 295 223 335 299 324 423 523 428 363 545 540 610 652 448 603 492 596 661 516 469 631 883 945 1132 504 694 935 1166 830 620 777
132 454 439 297 121 550 457 131 258 202 161 19 42 30 97 95 153 239 245 238 318 274 357 460 386 378 214 565 517 629 607 641 567 808 704 498 214 326 649 757 822 958 961 675 923 1046 783 530 455
257 255 146 394 525 452 518 177 209 256 57 22 30 52 72 92 166 238 208 264 292 316 380 427 363 457 437 458 425 409 479 484 582 513 516 423 496 423 572 712 827 676 807 995 891 1075 628 480 524
99 224 121 207 477 461 164 228 206 143 121 28 22 65 58 87 116 130 161 217 308 334 388 341 459 336 445 520 602 428 327 572 582 500 575 663 682 606 564 745 745 943 1107 761 761 701 712 532 484
188 129 75 450 467 419 181 218 365 230 162 0 23 66 99 97 167 89 122 216 333 324 370 344 428 272 166 261 305 257 346 493 483 96 556 588 781 562 731 748 840 1019 1166 555 622 695 715 836 591
35 83 117 315 538 323 192 156 202 231 321 10 2 27 18 73 135 67 142 266 285 323 186 422 125 64 104 373 259 394 470 565 590 492 624 689 953 355 753 1009 703 1256 985 915 678 691 697 602 592
4 13 3 167 548 385 205 170 256 266 362 41 11 27 28 23 132 107 201 238 219 231 360 227 11 143 114 377 317 329 390 420 389 441 513 705 880 979 714 648 912 817 819 853 668 595 628 710 536
14 32 49 322 419 230 236 158 154 172 367 163 59 34 36 55 62 190 195 198 177 166 293 306 183 328 279 217 244 261 219 299 449 455 352 337 652 705 739 628 594 697 677 711 809 1098 786 659 570
10 39 27 180 245 125 169 93 128 149 275 262 357 85 41 37 30 140 174 195 171 172 221 277 144 136 295 304 339 388 384 306 221 490 618 521 692 602 999 766 764 638 961 699 921 592 520 428 501
9 80 44 331 254 128 134 44 42 65 200 270 266 239 44 30 15 69 166 162 186 175 139 158 117 38 119 263 429 424 361 413 332 453 474 616 891 923 761 606 978 498 677 790 937 1432 1015 698 807
0 84 47 201 197 97 145 7 4 5 64 30 191 202 87 54 43 50 78 153 209 161 184 121 132 64 72 189 334 374 402 358 303 358 319 701 967 867 888 548 672 606 621 654 788 887 945 1088 945
0 8 63 17 47 59 36 11 3 83 54 170 265 197 108 71 63 57 36 55 126 112 233 222 175 137 103 218 206 255 405 464 431 421 221 592 984 943 853 869 549 651 572 453 540 1162 775 711 1259
0 0 24 59 39 40 26 19 0 86 195 250 322 211 99 91 87 55 39 44 71 75 267 262 223 167 191 515 522 462 469 397 354 482 290 637 835 935 1014 920 796 694 598 614 503 605 1126 809 408
0 0 2 10 79 29 3 1 0 205 439 415 327 217 127 141 67 99 81 49 50 59 249 318 203 170 227 463 487 500 636 494 373 538 507 619 721 787 977 988 941 759 596 468 597 989 1117 899 1046
0 0 0 0 0 0 18 8 65 304 583 494 350 283 217 152 263 109 90 53 94 85 153 410 327 206 202 143 201 500 533 569 399 207 328 458 521 670 703 917 988 868 822 738 787 668 792 712 712
0 0 0 0 0 0 75 25 9 145 577 519 361 292 255 225 198 280 141 163 79 80 221 249 558 352 275 281 208 376 519 492 406 270 432 340 249 534 580 692 897 1055 910 820 583 952 828 722 658
0 0 0 0 0 0 80 52 48 126 447 458 358 297 271 88 159 370 311 285 252 144 237 251 287 423 469 478 482 463 498 520 540 373 288 425 178 356 481 571 896 962 907 924 872 975 1012 880 532
0 0 0 0 2 9 15 21 83 117 306 323 304 276 128 160 123 226 274 253 303 304 241 280 285 199 157 238 535 636 718 704 774 573 597 735 927 820 589 515 794 791 764 806 952 1133 1112 852 768

GFSSGP_con_mucape_090.txt.gz
CAPE
79 0 1 65 13 20 61 35 45 0 0 0 0 0 0 50 29 0 59 321 853 1338 1402 1507 2147 1359 1628 1556 2081 1730 1370 1547 2041 2129 2297 2241 2256 2261 2381 2068 2187 2569 2580 2200 1667 1868 1834 1896 2097
3 0 0 80 0 0 47 79 74 119 0 0 9 1 229 383 243 104 287 571 1102 1345 1480 1450 2123 2133 1809 1909 1817 1890 1916 1909 1858 1991 2161 2244 2356 2432 2350 2213 2078 2738 2193 1875 1729 1905 1760 1630 1297
0 0 20 53 0 0 0 63 191 125 13 12 39 324 454 349 44 196 323 776 1112 1315 1226 1348 2039 1982 1905 1699 1887 2020 2028 1938 1826 1937 2100 2068 2267 2387 2287 2182 1923 1904 1973 2133 1855 1741 1610 1623 1634
0 17 202 18 0 0 61 94 228 303 0 0 222 229 309 287 78 353 536 943 1111 1095 1004 1918 2125 1952 1860 1868 1943 1749 1906 1851 1793 1919 1788 2201 2304 2418 2230 2300 2293 2332 2203 1951 1988 1923 1867 1749 1606
28 153 131 41 1 7 79 121 165 190 340 267 156 197 184 333 322 353 750 974 1004 811 1687 1654 2222 1823 1783 1701 1694 1769 1727 1826 1837 1869 2083 2088 2196 2220 2216 2253 2376 2298 2374 2239 1997 1982 2011 2081 2272
248 163 209 70 18 2 50 83 140 133 211 135 67 87 226 279 257 422 700 906 1003 1115 1505 1553 1807 1818 1875 1798 1623 1646 1747 1779 1701 1821 2041 2058 2226 2199 2335 2406 2487 2306 2232 2190 1920 2150 2154 2133 1815
269 324 229 140 49 22 74 60 101 134 99 69 70 48 247 220 273 413 696 1023 1214 1195 1399 1508 1552 1516 1749 1596 1507 1520 1588 1703 1741 1840 2164 2179 2292 2144 2342 2514 2476 2090 2116 2049 1945 1943 2002 2092 2133
753 319 288 26 27 38 35 84 192 57 4 6 9 1 180 197 207 346 698 1016 1198 1137 1156 1356 1444 1426 1284 1299 1753 1582 1669 1543 1653 1837 1954 2158 2239 2139 2032 2781 2649 2166 2120 2104 2020 1921 2429 2371 2248
362 204 154 84 6 35 41 101 203 160 14 10 33 46 85 167 132 257 550 799 1063 1160 1113 1199 1322 1155 1220 1352 1336 1301 1373 1530 1746 1514 1922 1593 1407 1521 1744 2443 2339 2138 2080 1905 1988 2088 1984 1917 2291
90 71 125 116 0 46 102 112 201 42 10 26 23 45 78 90 135 121 235 527 705 949 953 926 1093 969 1196 1241 1172 1149 990 1102 1296 933 1209 1195 1570 1964 2042 2037 2061 2078 2004 1908 1852 1878 2002 1412 1548
120 143 208 44 0 94 353 283 91 21 18 1 22 37 63 91 5 0 46 274 409 604 792 775 848 808 1014 955 846 847 397 786 786 680 681 970 1578 1699 1718 1596 1499 1270 1557 1342 1224 1211 1267 1080 969
91 152 224 7 64 210 182 293 32 128 71 0 8 31 46 23 0 0 0 81 144 448 679 644 646 635 786 762 453 310 290 495 641 688 603 681 1007 1058 929 1025 1078 1006 668 669 676 999 1098 1138 1428
98 347 111 151 98 156 258 178 54 55 36 17 16 37 23 7 0 0 4 14 165 282 332 379 396 446 518 560 476 414 348 375 385 449 624 646 561 487 682 860 964 1094 586 685 826 999 903 480 831
142 395 157 184 284 343 294 216 30 36 97 44 35 31 30 52 36 92 156 130 197 184 238 320 349 243 190 300 412 521 542 596 603 649 601 412 409 450 686 718 830 935 713 668 881 1100 461 407 432
192 359 363 168 261 382 308 211 174 161 93 86 41 29 40 42 83 160 129 128 198 201 260 297 285 245 124 327 400 477 504 531 540 650 620 384 396 462 568 701 746 589 804 848 808 667 539 425 390
330 203 208 395 418 344 185 93 355 238 113 71 82 82 75 79 122 183 138 155 236 224 271 283 215 258 198 317 322 329 418 414 470 414 459 522 633 641 582 685 815 911 1005 658 718 656 584 450 426
92 41 75 329 424 415 245 85 480 118 46 40 71 92 93 103 89 161 179 171 245 239 261 283 231 334 439 430 490 438 296 488 462 394 552 676 767 599 682 692 745 934 947 541 696 636 711 691 538
56 68 73 188 139 456 385 87 212 210 34 29 54 88 86 100 97 89 166 166 239 258 267 273 287 362 212 351 334 211 297 419 445 179 471 493 759 319 608 786 619 1110 1011 849 698 575 685 517 443
72 18 52 157 281 468 356 80 142 147 171 17 40 73 107 126 135 114 57 173 248 278 281 260 312 264 109 162 184 242 360 344 454 408 489 674 828 798 844 683 716 710 754 719 646 821 549 725 616
55 23 170 330 577 201 41 103 114 174 287 34 11 31 65 122 132 136 127 178 205 249 286 285 213 64 182 194 170 197 228 322 409 355 378 459 621 709 577 408 594 562 586 693 861 813 715 579 391
0 29 87 145 207 176 94 93 154 114 190 232 167 5 3 9 47 101 113 152 179 192 194 316 51 0 58 238 202 212 203 210 277 416 417 397 559 487 883 716 457 576 637 602 732 560 750 505 605
1 46 57 295 216 70 102 14 67 85 111 153 233 97 36 23 35 128 121 140 146 149 147 299 81 160 104 156 218 259 290 342 188 274 423 518 771 623 668 682 560 543 740 662 825 1340 906 654 888
50 27 64 190 170 110 109 75 0 60 100 132 190 226 57 28 46 146 128 152 164 136 106 209 203 106 194 211 289 246 266 273 303 315 348 457 801 800 782 439 788 344 509 421 649 924 988 987 930
73 36 24 40 84 74 75 118 0 27 18 78 161 170 165 52 53 125 153 150 140 128 78 108 190 100 61 178 243 278 268 342 281 309 273 290 860 768 689 603 429 406 425 373 493 951 610 630 1109
17 11 6 1 9 0 0 58 0 10 35 5 77 200 189 122 39 47 116 78 117 122 153 111 90 84 6 46 125 190 180 326 363 335 236 287 692 836 753 737 623 413 522 408 367 644 1005 547 456
0 1 0 0 9 13 7 3 0 7 179 229 114 192 159 159 101 46 68 39 81 87 186 160 119 68 32 115 149 122 155 338 319 258 428 300 493 748 731 839 808 661 550 316 338 676 821 894 911
0 0 0 0 0 29 8 3 0 39 366 423 311 272 243 175 117 76 87 63 58 34 71 164 187 141 116 134 338 374 360 376 355 278 219 366 488 565 651 807 756 734 665 572 424 594 799 672 618
0 0 0 0 0 2 41 7 0 66 353 524 445 369 289 197 164 108 92 78 88 58 59 208 186 175 144 117 305 394 377 401 435 331 204 165 307 358 491 570 618 646 644 680 601 645 551 558 603
0 0 0 0 0 0 16 1 7 33 225 523 500 406 298 250 225 170 143 90 74 75 166 233 415 379 156 42 160 149 257 381 394 349 285 217 284 130 126 369 582 733 687 701 685 583 656 728 612
0 0 0 0 0 0 2 0 75 51 186 559 485 342 283 215 185 184 214 260 130 102 215 184 218 186 189 117 232 318 395 470 452 435 329 368 338 423 372 374 401 541 770 768 799 828 951 815 750

GFSSGP_con_mucape_093.txt.gz
CAPE
6 0 0 46 0 90 94 124 76 0 0 0 0 0 6 99 95 0 99 544 955 1145 1313 1622 2010 1456 1542 2044 1909 1350 1693 2230 2189 2224 2265 2332 2335 2158 1968 1949 2251 2262 2314 1852 2038 2091 2006 1939 1853
0 0 0 91 1 54 80 115 0 0 0 0 0 0 129 537 199 151 492 719 1065 1118 1324 907 2288 2182 2084 2034 2037 1934 1685 1980 2029 2151 2295 2289 2214 2163 2203 2034 2334 2311 2271 2177 2019 1808 1558 1232 760
0 3 125 54 0 24 79 162 234 13 1 2 26 328 554 382 76 311 430 954 1088 1343 778 1765 2141 2032 1948 1761 1803 1878 1907 1697 1954 1870 2091 2240 2280 2113 2167 2023 2032 2251 2509 2452 1887 1920 1965 1859 1735
0 108 506 0 0 12 33 149 198 0 3 24 272 469 265 275 146 426 692 938 1067 722 760 1997 1955 1999 2031 2093 1934 1905 1961 1842 2010 2062 2041 2227 1998 2273 2113 2318 2325 2320 2052 2017 1845 1781 1851 1773 1443
12 415 2 0 0 5 138 210 267 0 0 0 312 197 148 351 488 468 834 745 491 436 1755 1783 2135 1829 1830 1871 1867 1797 1732 1784 1810 1971 2154 2287 2292 2297 2296 2311 2271 2337 2288 2088 2105 2209 2238 2191 2140
208 318 260 38 0 6 157 167 260 212 81 97 181 68 60 418 391 576 751 775 187 1201 1049 1310 1725 1537 1861 1647 1663 1753 1811 1865 1971 2046 2027 2218 2040 1982 2031 2131 2359 2436 2171 2114 2200 2153 2144 1941 1859
224 438 234 22 58 8 128 153 229 255 242 182 103 33 120 299 379 659 916 718 280 896 1267 1282 1100 1790 1575 1403 1566 1735 1722 1888 1960 2067 2198 2225 1966 2004 2220 2252 2278 2290 2108 1952 1975 2072 2072 2202 1485
73 402 206 79 38 34 102 64 191 180 136 69 19 20 40 243 441 777 887 606 384 968 1066 1449 1553 1519 1269 1333 1621 1525 1638 1747 1929 2024 2164 2108 2153 2055 2235 2439 2548 2174 2074 1958 2013 2038 2066 2228 1928
277 420 388 62 22 110 96 132 123 61 8 48 76 1 72 314 370 555 773 451 453 821 1025 1202 1038 1240 1645 1436 1479 1488 1531 1693 1969 2121 2037 2082 2028 2055 2237 2430 2308 2108 1894 1939 2071 1995 2025 2212 2356
122 343 117 52 25 87 175 120 50 44 85 109 108 125 208 254 285 336 367 442 466 749 994 1191 970 1126 1347 1336 1438 1752 1705 1791 1648 1814 2044 2127 2223 2423 2014 2237 2157 2048 1908 2013 2067 2146 1913 1567 2359
144 247 295 57 44 163 130 118 30 32 16 24 86 107 190 195 235 241 77 393 458 785 790 1016 1011 1365 1431 1661 1263 1062 1241 1265 1373 1463 1724 2180 2115 2025 1926 2060 1681 1706 1618 1377 1428 1423 1438 1618 1449
82 125 235 28 175 273 111 96 0 0 41 25 24 129 171 171 158 47 0 223 394 618 703 716 734 1217 1292 1126 846 817 924 1042 1069 1208 1538 1840 1619 1738 1824 1800 1829 1480 1352 1725 1901 1895 2015 1914 1912
86 305 106 137 261 135 169 42 31 90 8 28 80 133 103 30 0 0 0 100 207 331 598 488 659 1069 1173 1039 940 819 806 876 968 1233 1460 1474 1287 1533 1722 1825 1872 1641 1253 1628 1946 2135 1609 1330 1185
194 363 205 227 260 146 53 44 32 53 9 34 59 44 55 58 46 0 0 0 143 181 295 374 478 855 992 1044 1219 1216 1013 1163 1063 1163 1220 1322 1159 1527 1521 1639 1765 1782 1532 1514 1973 1871 1578 1301 1573
402 359 348 309 319 217 190 74 47 78 31 22 16 52 72 104 116 24 0 0 155 234 274 327 392 563 849 1053 1190 1184 1128 1090 1392 1392 1483 1016 1366 1257 1392 1610 1470 1477 1784 1765 2044 1575 1579 1288 1072
291 413 384 315 273 210 145 152 162 130 75 60 60 62 81 123 197 119 32 13 248 300 495 474 182 465 585 1028 1166 1052 1040 1246 1148 1392 1349 1372 1589 1573 1579 1568 1726 2083 1645 1564 1675 1540 1536 1281 1231
124 318 251 322 318 257 157 2 310 126 165 93 110 108 95 175 239 329 173 213 349 490 587 576 628 696 714 1026 1002 1013 1153 1248 1111 1269 1387 1766 1707 1546 1834 1609 1663 2117 1258 1517 1647 1575 1776 1570 1404
98 95 197 343 379 321 130 260 238 156 211 165 142 146 165 143 268 344 333 260 452 562 685 675 693 885 942 804 1080 958 1061 1446 1110 1149 1473 1427 1487 1332 1998 1861 1653 2207 1925 1730 1713 1944 1796 1687 1645
54 42 59 103 330 303 205 319 214 127 177 178 188 185 175 163 271 271 300 361 461 624 699 795 842 927 694 816 970 1023 1029 1370 1351 1051 1459 1652 1989 1517 2022 1694 1924 1798 1941 1760 2210 1902 2156 1646 1694
17 29 38 411 369 252 167 123 91 275 159 204 217 230 184 264 306 188 247 374 473 688 770 867 928 902 783 870 947 959 1148 1002 1255 1344 1303 1404 1649 2034 1692 1853 1864 1763 1674 1932 2351 2216 1562 1501 1446
34 45 343 250 189 51 19 0 76 175 508 193 204 218 248 265 268 265 265 378 474 649 805 885 963 874 771 768 899 958 972 985 1233 1350 1266 1131 1536 1558 1968 1657 1564 1807 1797 1629 2026 1882 2200 1520 1747
48 22 49 466 251 173 74 0 7 144 314 414 154 138 180 263 275 320 371 443 418 568 705 833 915 733 650 897 965 1220 1326 1643 953 1167 1416 1440 1531 1440 1779 1890 1756 1976 1864 2091 2269 2185 2133 2081 2097
38 0 19 383 181 242 50 13 0 173 270 534 513 193 78 97 209 308 376 507 430 516 580 703 783 683 550 794 1041 1038 1584 1040 991 1036 1504 1717 1966 1763 1667 1691 1993 1883 1451 1964 2220 2422 2665 2218 2060
55 12 10 90 127 17 149 77 0 253 424 404 437 439 197 33 122 296 154 377 465 450 459 524 797 708 844 810 972 1230 1142 1440 1172 1242 1162 1268 1654 1826 1889 1606 1819 1745 1510 1825 1904 2348 2236 2253 2183
80 74 11 1 5 2 12 215 54 192 100 170 202 443 480 98 91 322 299 364 448 402 338 133 708 922 630 747 973 1094 1139 1337 1461 1310 1227 1071 1703 1999 1763 1894 1827 1502 1632 1498 1726 2543 2350 1863 1605
70 57 8 0 2 0 25 10 45 44 40 230 356 343 529 257 123 218 436 306 100 123 337 301 528 853 700 534 786 1056 1113 922 1095 1193 1239 1174 1747 2423 1864 1852 1871 1734 1720 1639 1728 1511 1839 2166 1914
0 0 10 6 2 0 55 107 98 118 240 323 327 281 463 316 222 197 477 469 326 50 306 577 631 774 591 542 659 885 989 1012 1087 1206 1229 1292 1472 1255 1727 1786 1709 1957 1821 1667 1504 1277 1896 2113 2018
0 0 0 22 4 5 101 120 217 286 199 412 298 243 223 278 261 203 291 423 419 130 43 279 219 612 832 549 677 1061 1224 1113 1032 857 779 1009 1197 1377 1508 1613 1711 1781 1897 1800 1738 1624 1643 1944 1760
0 0 0 0 0 3 14 43 177 356 283 385 460 337 290 256 277 185 194 215 240 116 31 268 434 691 510 165 374 643 1067 1040 1072 1113 1159 1135 1077 920 1200 1377 1354 1703 1738 1748 1780 1700 1795 1736 1821
0 0 0 0 0 22 29 27 0 60 222 247 503 484 429 392 322 256 188 194 312 225 202 271 630 751 712 524 234 232 758 805 1146 1338 1153 1267 1120 1041 1035 1026 1272 1293 1258 1709 1877 1755 1273 1690 1754

GFSSGP_con_mucape_096.txt.gz
CAPE
0 0 12 490 412 327 135 103 0 0 0 0 0 0 9 327 75 80 259 670 740 697 1036 1461 1714 1335 1657 1825 1327 1777 2244 2402 2330 2306 2362 2355 2167 1878 2122 2168 1586 1988 1981 2035 2059 2058 1996 1597 997
0 0 171 320 163 170 209 0 0 0 0 0 0 36 207 435 6 108 561 801 603 960 1274 545 2156 1789 2035 1983 1716 1670 1987 1993 2098 2270 2380 2266 2255 2368 2652 2234 2019 2020 2203 2058 1593 1459 877 1269 1370
0 16 746 13 69 144 187 0 0 0 0 0 0 518 808 30 20 340 727 867 856 1039 470 1585 1862 1980 1867 1816 1986 1921 1838 1901 2094 2163 2275 2340 2177 2338 2420 2224 2077 2059 2024 1742 1956 2099 2000 1796 1615
7 515 1 29 182 182 139 11 0 0 0 11 288 678 343 8 271 563 912 947 1099 618 1090 1830 1789 1675 1584 2010 1999 1948 1904 2030 2183 2237 2191 2177 2295 2321 2193 2288 2176 2062 1964 1849 1912 2020 1994 1618 1945
236 164 1 1 135 203 208 41 0 6 13 494 586 645 40 251 454 782 860 908 582 542 1068 1596 1870 1834 1994 1946 1884 1796 1836 1938 2114 2168 2246 2270 2239 2168 2332 2396 2249 2226 2274 2244 2317 2369 2342 2407 2035
326 445 20 157 49 131 292 259 0 0 2 250 312 102 79 378 613 792 721 476 297 586 853 1279 1755 1847 1752 1729 1880 1895 2043 2007 2100 2138 2165 2028 1957 2136 2256 2388 2408 2145 2285 2335 2329 2266 2116 1844 1634
392 566 533 66 28 63 214 522 232 2 11 14 129 100 222 355 681 668 629 178 325 403 947 1054 1282 1572 1658 1689 1843 1895 1954 2131 2226 2050 2020 2084 2112 2203 2341 2504 2327 2174 2049 2107 2139 2172 2287 1458 1126
372 559 146 44 39 52 231 480 351 303 437 303 204 114 167 501 647 688 526 86 215 691 1010 927 1112 1177 1166 1334 1692 1741 1952 1906 1992 2287 2046 2735 2073 2095 2152 2684 2662 2105 2030 2248 1979 2146 2285 1965 1367
317 719 214 209 8 254 323 508 544 398 402 259 237 0 156 451 659 632 277 82 305 633 752 485 567 1185 1475 1427 1582 1705 1916 2035 2186 2220 2093 2114 1877 1963 1704 2327 2186 1945 2001 2140 2156 2155 2311 2438 2096
461 735 278 489 65 486 408 525 452 377 390 274 0 61 223 372 504 365 139 112 202 542 516 217 574 635 803 399 1446 1426 1453 1667 1551 1898 2066 2183 2139 2098 1654 2143 1957 1906 2049 2138 2191 2234 1896 2054 1755
524 432 609 280 192 376 440 479 282 393 387 298 114 171 259 330 359 165 100 124 152 509 303 212 728 1116 760 683 654 1110 1220 1216 1708 2023 1896 1723 1382 1254 1178 1436 1576 1625 1877 1644 1843 1745 1670 1851 1696
266 479 442 269 454 332 432 352 206 246 100 158 90 152 223 277 214 65 28 106 235 470 192 263 680 1183 1071 854 570 669 855 1062 1045 1275 1411 1489 1227 1284 1372 1391 1609 1544 1554 1890 1930 1920 2125 2062 2161
422 520 321 417 553 203 300 127 96 125 44 92 1 121 185 181 103 32 0 70 229 251 63 274 712 1359 1394 972 796 875 964 704 617 1171 1461 1314 1457 1805 1679 1997 1664 1514 1477 1801 1977 1765 1775 1663 1732
463 376 366 441 417 138 123 78 103 107 64 15 42 113 85 72 50 17 0 12 171 87 25 366 758 1274 1225 1292 1269 1082 719 778 901 1209 1737 1681 1491 1793 1710 1896 1764 1515 1430 1688 1815 1911 1474 1273 1296
466 456 403 660 326 187 135 120 214 84 45 53 62 49 48 44 0 0 0 130 130 49 77 529 751 1011 1224 1419 1409 1087 946 900 1035 1328 1695 1637 1652 2163 1828 1734 1574 1597 2085 2170 1841 1560 1385 1004 933
660 633 560 471 569 337 53 207 102 80 45 13 29 81 92 94 25 0 0 89 100 69 230 456 322 748 1043 1244 1341 1220 1305 1167 1097 1145 1382 1749 2084 2156 1933 1537 1566 1972 1758 1625 1451 1282 1089 1088 1034
283 544 527 581 300 287 117 101 548 90 61 36 67 104 149 95 41 52 50 133 184 329 428 479 519 656 977 1424 1131 1206 1575 1417 1365 1414 1331 2018 1976 2131 1699 1581 2070 2173 1505 1552 1311 1427 1516 1353 1231
120 477 787 774 405 39 165 0 371 134 100 106 84 124 166 133 102 166 206 298 258 445 694 713 880 1108 1208 1395 1513 1124 1235 1466 1280 1420 1515 1868 1821 2187 1846 1804 2064 2042 1681 1532 1593 2048 1662 1572 1461
77 58 494 614 573 130 145 108 188 168 159 119 112 148 153 173 210 279 259 343 440 390 683 966 1114 1480 1688 1564 1094 1086 1165 1339 1122 1327 1880 1873 1880 1774 2120 1589 2042 1962 1924 2252 2250 1631 1949 1110 1180
69 344 373 546 712 356 122 182 227 260 184 300 93 112 143 188 253 333 389 408 530 751 631 878 1232 1744 1548 1374 1396 1023 1060 1198 1273 1339 1774 1741 1746 1990 2019 1835 1751 1932 1826 2218 2456 2501 1413 1106 1809
8 230 133 540 322 209 197 101 60 66 171 248 188 156 210 288 357 430 478 477 555 874 1119 1148 1382 1612 1608 1215 1343 1524 1847 1560 2104 1663 1681 1604 1699 1780 1990 1946 1708 1979 2237 1744 2114 2111 2450 1104 1744
1 16 247 709 335 155 62 23 0 0 99 290 272 339 205 399 473 555 539 620 610 766 1161 1298 1502 1709 1630 1610 1177 1217 2102 1444 2096 1343 1370 1577 1674 1482 1596 2049 1926 2227 1656 1909 2260 2051 2063 2766 1564
2 2 39 209 283 213 178 87 14 1 9 496 719 373 232 272 357 524 652 671 697 703 1023 1259 1562 1735 1277 1638 1260 1050 738 1819 745 1209 2003 1759 1913 1745 1473 2040 2046 2364 1803 2417 2260 2445 2606 1791 1929
2 21 5 164 256 263 135 43 0 51 70 124 692 705 486 335 359 449 610 722 876 735 921 1104 1579 1812 1548 1487 1570 1464 1072 833 1943 1885 1461 1486 1564 1877 1727 1835 2121 2202 1928 2062 1992 2473 2470 2455 2241
71 15 0 13 106 94 244 103 21 7 304 239 647 722 701 426 372 455 645 749 983 936 958 1040 1496 1707 1513 1410 1294 1440 1301 1127 1007 1291 1941 1174 1977 1634 1918 1976 2084 1865 2224 1914 1723 1909 2169 2056 1842
67 7 21 0 119 67 16 157 137 371 357 407 727 682 877 824 432 376 637 421 676 1044 963 666 1276 1643 1580 1426 1582 1607 1609 682 1141 1062 913 2129 1632 1141 1621 1330 1391 1729 1784 1975 2155 1748 1465 1656 1754
0 16 1 31 34 83 68 47 317 327 489 729 855 685 771 1059 741 488 710 900 1027 793 778 507 501 945 1487 1338 1439 1492 1664 1492 888 1009 1060 2793 1919 1541 1363 1081 1101 1160 1442 1837 2007 1346 1951 2105 2004
0 0 45 3 93 48 119 102 44 573 647 619 935 907 822 1024 1069 731 739 893 632 336 296 279 797 953 1117 1063 1207 1213 750 736 686 1092 1261 1378 1420 1930 1406 1329 1184 1192 1307 1785 2262 1405 1657 2133 1837
0 0 0 37 47 82 87 124 625 712 884 740 611 563 762 1048 1007 785 899 1079 1012 438 175 176 266 377 1085 1069 1198 1078 926 705 734 729 901 944 1372 1775 1961 1542 1137 1312 1134 1231 1755 1648 1556 1924 1724
0 0 0 0 43 38 85 325 480 791 923 778 416 366 312 388 412 435 802 869 820 847 321 129 173 200 411 1188 1079 738 906 826 729 781 845 1190 1085 1793 1617 1561 1630 1614 1328 1545 1565 1497 1297 1666 1451

GFSSGP_con_mucape_099.txt.gz
CAPE
0 2 136 690 917 622 219 5 2 0 0 2 0 34 188 270 251 284 369 644 513 705 886 1467 1389 1136 1646 1477 1812 2205 2291 2331 2377 2371 2204 2038 2087 2156 2338 1995 2066 2097 2108 2046 1907 1708 834 935 1712
1 46 576 730 614 210 42 0 0 0 0 0 1 264 74 45 199 317 572 447 587 745 1005 509 1805 1720 1668 1320 1729 1975 1940 2218 2375 2427 2354 2254 2370 2340 2083 2118 2137 2380 2401 1683 1313 1252 1460 1434 1726
14 237 1008 103 63 193 13 0 0 0 0 0 329 473 2 152 235 512 470 793 939 829 464 1767 1774 1790 1737 1730 1812 1907 1864 2193 2251 2402 2375 2264 2114 2276 2072 2105 2173 1746 1728 1860 1781 1800 1821 1593 1730
109 594 13 526 189 59 0 0 0 0 0 104 460 31 6 182 478 418 502 731 773 712 762 1444 1690 1656 1708 1958 1882 1815 1922 2220 2309 2353 2212 2232 2355 2244 2179 2038 2027 1863 1888 1969 2065 2155 1814 1902 1795
268 4 83 137 148 23 43 0 0 0 115 320 276 7 78 287 483 687 525 572 538 567 706 1072 1683 1827 1766 1757 1827 1903 2056 2246 2197 2307 2199 2236 2387 2440 2167 2059 2128 2192 2344 2335 2289 2518 2353 1687 1674
311 151 180 231 100 62 60 0 0 459 320 391 170 16 307 520 451 548 652 496 417 604 689 995 1771 1756 1661 1857 1830 1973 1943 2182 2249 2128 2115 2208 2056 2426 2265 2269 2330 2347 2374 2352 2291 1843 1470 1485 1255
425 556 613 254 163 92 180 3 12 48 35 358 210 145 325 484 398 461 217 212 175 505 607 718 1088 1594 1840 1762 1896 1963 2053 2184 1970 1952 1976 2294 2374 2389 2549 2351 2293 2164 2220 2107 2296 2254 1449 1153 1056
527 149 205 119 222 239 254 135 0 6 30 150 148 174 367 532 469 365 70 73 496 411 418 584 1072 1393 969 1407 1855 2004 2104 2167 2151 2046 2100 2442 2323 2460 2534 2697 2532 2192 2239 2015 2208 2370 1859 1527 1257
550 751 302 108 147 240 307 284 262 386 387 363 329 83 340 320 440 226 45 53 589 663 236 500 600 1018 1210 1020 1648 1959 2071 2303 2182 2039 2080 2111 1853 1657 2131 2426 2105 2111 2202 2266 2207 2351 2425 2204 1933
554 970 258 415 160 421 480 399 338 383 310 350 35 102 270 322 353 155 28 50 263 183 146 520 740 860 1118 541 1678 1536 1458 1703 1844 2166 2175 2896 2111 2267 1281 1919 1944 2097 2226 2372 2403 2295 2789 2886 1950
544 625 643 614 540 559 522 385 476 245 252 75 104 181 250 318 302 122 40 47 206 128 13 599 1105 315 210 1031 851 1503 1453 1135 1949 2335 2622 2753 1055 1169 1142 1679 1832 1974 2233 1974 2299 2059 1773 1228 1679
343 503 521 469 439 594 518 567 340 158 249 146 155 174 204 228 175 53 52 65 153 74 14 612 759 787 381 401 663 1036 817 1054 1950 1799 1448 1402 996 1527 2132 1926 1359 1976 1988 1862 1957 1571 1854 1356 1402
404 541 431 383 390 537 419 227 145 249 139 163 106 166 190 168 89 51 40 36 235 10 19 697 1134 1239 977 505 551 937 701 797 996 1350 1256 1128 1707 1695 1812 2199 2082 1876 2334 2501 1662 1328 1480 1408 1196
744 531 385 459 642 650 310 143 92 80 37 107 106 150 174 142 96 44 26 25 179 7 104 677 874 1163 1625 915 977 862 775 590 865 1037 1486 1703 1963 2466 1842 1801 2442 1416 2512 2690 1406 1752 1102 1396 608
555 442 412 453 544 187 120 138 106 46 72 76 115 145 148 110 94 24 12 209 118 15 257 657 719 802 1650 1594 999 1067 567 711 1200 1403 1763 1697 1788 2261 2144 1946 2158 1765 1753 2060 1928 1279 1056 552 371
1004 409 367 437 441 296 243 233 119 47 72 97 117 115 90 83 55 11 77 201 127 27 342 364 356 497 889 1636 2134 2076 1132 1239 1619 1339 1552 1985 2210 1937 2352 1529 2224 1404 2454 1036 1412 800 725 703 784
823 327 414 496 403 255 217 294 315 84 75 102 107 87 92 92 46 16 88 137 150 184 361 337 523 696 1352 1002 1441 1825 1560 1913 1524 1591 1949 1981 1936 2120 2574 2921 2004 2753 1761 1239 1699 709 1758 932 749
325 113 557 695 456 267 13 23 140 129 85 82 100 120 110 64 41 52 76 142 200 352 442 370 395 1611 1723 930 1086 1538 1567 1753 1677 1829 2029 1855 1846 1922 2586 1726 1683 2653 2465 1395 1779 3346 1093 1478 1259
47 2 122 574 97 29 102 0 107 108 32 181 115 105 118 61 71 102 120 142 212 413 523 597 1772 1325 1365 1397 1047 1701 1554 1510 1316 2029 1688 1800 1774 1880 2316 2196 1978 2192 3085 2770 1612 1741 2219 717 826
106 113 0 85 167 4 78 38 110 73 0 81 224 122 128 117 99 134 135 161 149 329 588 836 1519 1850 1918 1425 1944 1991 1463 1802 1727 2003 1690 1764 1671 1954 2072 2538 2078 2584 1903 2205 2140 2468 2201 718 958
31 219 0 0 210 46 49 74 149 122 60 69 257 254 117 136 158 142 165 132 250 455 508 803 1135 1837 1592 1458 2128 1704 2050 2209 1598 2018 1771 1758 1691 1758 2150 2206 2166 1923 3153 2194 2256 1773 2397 1921 964
22 124 27 0 402 546 92 50 173 50 17 91 354 125 112 102 93 166 193 224 235 753 853 1084 1152 1684 1673 1215 2304 1235 1897 1806 1383 1365 1772 2257 1674 1562 1770 1879 1940 2422 2686 3898 2683 1698 3403 2691 1165
6 2 370 242 247 282 196 93 145 101 35 0 413 192 77 163 174 252 233 308 248 647 900 1153 1387 1559 1605 1546 2000 1338 1329 1884 1302 1391 1977 1536 2064 1658 1362 1760 1888 2215 2081 2089 3511 2452 3053 1736 2639
39 0 22 338 385 141 105 87 125 42 26 0 76 161 244 197 234 477 203 437 378 611 1213 1125 1671 1906 1579 1690 1570 1368 1194 1254 1998 1163 1806 1542 1893 1614 1649 1770 1982 2227 2307 2269 2163 2384 2402 3597 3315
53 5 64 100 168 164 59 75 36 88 14 70 124 399 310 112 213 225 313 296 798 911 1258 1564 1858 1973 1757 1649 1368 1124 1324 1377 1346 1736 769 713 887 1294 2415 1953 1880 1963 2285 1899 2072 2358 2451 2230 2752
12 42 99 106 86 101 146 130 58 39 32 53 235 493 771 540 164 251 572 449 862 1122 916 1272 1843 2158 1762 1552 1520 1375 1229 950 801 1222 2211 936 884 852 2699 1745 1679 1631 2025 1960 1821 1586 1555 2527 1823
0 77 79 20 60 24 53 314 311 129 113 302 507 512 724 747 372 422 516 879 1309 1109 1349 1439 1949 2232 1793 1473 1566 1645 1527 1424 1481 1387 1473 1377 1790 1855 1402 1208 1248 1443 1571 1776 1840 1453 1507 2131 2198
0 20 113 85 101 71 84 134 150 456 526 572 616 930 979 872 941 578 1064 1036 720 460 1545 904 812 1402 1684 1575 1438 1579 1477 1275 1012 1073 1234 1390 976 1395 1608 928 1096 1165 1223 1455 1833 2307 1952 1867 1849
0 0 34 93 88 89 158 265 336 747 916 983 1055 1125 994 1071 1217 1545 1300 1235 1446 1203 1054 824 1346 1387 1534 1582 1540 1907 1391 1623 1426 965 836 1057 1145 1466 1219 1452 1348 1344 1455 1529 2215 2473 1836 2103 2066
0 0 0 26 105 69 31 336 458 844 1087 1264 1266 1283 1511 1681 1604 1380 1208 1501 1153 1047 383 418 207 308 286 960 1253 1418 961 1163 1397 914 907 916 1273 1352 1373 1507 1602 1719 1499 2032 2196 1743 1478 1775 1637

GFSSGP_con_mucape_102.txt.gz
CAPE
0 0 63 633 863 949 80 30 13 14 17 5 90 122 157 174 73 111 293 377 374 672 1062 1531 1805 1263 1470 1554 1993 2078 2263 2251 2299 2407 2225 2082 2078 2244 1611 1968 1868 2013 1881 1729 894 1160 1483 1684 1839
0 77 297 748 515 130 39 8 4 3 0 279 179 17 131 92 222 323 329 563 621 690 540 272 2222 1704 1211 1838 1933 1890 2066 2270 2287 2182 2316 2182 2139 2644 2107 2124 2050 2492 2138 1451 1562 1572 1521 1790 1563
0 160 961 48 38 142 0 5 1 0 0 402 444 57 80 99 218 269 567 792 501 622 647 1630 1853 1798 1696 1828 1750 1853 2018 2243 2223 2262 2200 2198 2047 2190 2045 1952 1837 2032 1869 1912 1961 1701 1650 1527 1530
102 509 59 42 21 49 0 0 0 0 139 239 99 37 255 279 256 494 563 255 569 703 1082 1914 1855 1842 1912 1924 1834 1890 2153 2282 2511 2366 2157 2175 2092 1949 1991 1833 1834 2065 2066 2112 1999 2039 1661 1389 1259
182 40 155 92 98 5 0 0 0 2 369 71 9 14 293 505 524 597 414 557 491 529 839 1194 2037 1795 1935 1945 1994 2091 2155 2251 2366 2453 2397 2168 2021 2116 2016 2067 2302 2243 2247 2358 2356 1862 1487 1264 1148
236 12 59 181 36 22 0 0 7 284 362 282 2 35 306 510 225 134 522 355 450 546 699 1164 1926 1856 1842 1866 1997 2037 2207 2242 2265 2644 2288 2515 2580 2803 2296 2468 2609 2304 2167 1887 1461 1319 1253 982 1017
264 529 516 136 37 12 0 0 224 170 49 6 47 88 258 368 247 493 175 266 599 412 533 866 1220 1769 1908 2046 1822 1992 2132 2108 2067 2243 2351 2840 2536 2350 2714 3066 2461 2087 2116 2225 1575 1280 1057 889 926
468 211 262 131 72 38 0 33 160 89 99 35 26 219 284 273 414 391 222 360 372 430 490 973 1239 1132 1334 1452 1932 2093 1979 2035 2188 2227 2438 2890 2783 2330 2214 2774 2839 2034 2030 2177 2156 1651 1295 1172 1035
545 107 72 47 98 104 18 2 54 73 96 92 174 145 194 61 58 61 471 409 52 462 688 909 667 1075 1707 1792 1925 2090 2164 2149 2408 2101 2482 2486 1892 2092 1981 2513 2552 2128 2111 2155 2353 2238 1922 1498 1277
651 345 72 12 77 75 122 57 148 212 250 164 49 120 82 116 70 51 57 202 204 424 475 627 755 630 790 842 2112 2255 1607 1723 2047 1965 2109 2338 2544 2366 1380 1886 2173 2111 2097 2243 2641 2731 2336 1662 1854
303 158 290 249 223 77 305 141 257 181 255 144 31 29 63 81 60 49 65 86 89 232 590 500 783 1375 827 1623 1980 1374 2057 1891 1612 2220 2682 2848 1579 1292 1335 1790 2016 2051 1977 1720 2178 2643 2371 1221 1249
201 377 568 508 482 167 253 311 171 196 117 19 111 46 22 57 61 63 60 56 47 289 721 315 985 1801 1079 1321 1457 1694 1801 1629 866 1364 2046 3161 1568 2256 1035 1779 719 1311 1811 1375 1843 2194 2656 1479 1371
226 301 405 181 322 248 375 463 327 168 72 13 114 93 44 77 62 66 63 37 9 92 784 462 1256 1705 1990 1270 1121 1502 1131 1355 1863 1978 2067 2114 1571 2940 1741 789 923 753 795 1401 2339 1945 2106 2289 1606
496 414 388 395 224 416 309 107 141 106 53 9 107 80 60 67 60 63 67 99 13 216 1036 620 708 1498 1767 2517 2837 843 763 1304 1692 2427 1512 1759 1294 2119 1239 641 1745 1499 1393 2518 1437 851 973 2070 1073
273 523 449 622 661 438 122 104 125 31 47 34 64 73 84 72 70 61 46 64 9 67 890 819 823 808 1740 1954 2066 1896 986 1317 1697 1816 1788 1152 2574 1449 597 1138 1929 2556 2538 2194 3024 3033 2021 1394 1178
558 534 515 394 493 111 98 170 159 32 50 62 73 90 100 88 43 44 71 67 48 225 932 758 639 829 1268 2092 2145 1300 1221 557 1653 1993 2544 2816 2749 2036 1689 2306 2411 3177 3668 3533 2181 2432 2425 1834 1902
771 653 525 456 396 391 317 208 172 60 47 78 101 98 97 113 30 42 142 113 96 509 610 196 945 1015 1171 2829 1317 2225 1289 1756 1774 2252 2185 2820 2715 1491 2933 1634 2288 2743 3335 868 1319 1621 2182 2200 1323
314 434 463 431 248 145 164 145 113 175 108 111 96 70 88 70 45 28 133 76 198 434 518 756 1037 1792 1936 501 1170 1938 938 1204 1362 2039 2766 2899 2420 2588 2751 2980 2895 2105 3068 1156 3062 2728 1719 3245 963
43 249 344 37 115 66 63 73 49 141 171 138 59 70 89 71 36 55 113 171 192 396 895 1119 1114 2020 1418 1911 1033 1534 1531 1566 1907 1369 2841 2991 2621 2338 3529 3123 2948 775 1919 2883 2986 2818 3154 3110 2792
74 29 90 9 56 55 43 23 23 90 69 54 107 18 110 69 58 81 89 135 82 479 945 1926 2298 2454 2332 2243 2325 1811 1076 2048 2022 2554 2857 2499 2095 2783 2753 2745 2750 848 2033 3435 3156 3568 3724 2228 2364
148 130 9 8 1 2 40 67 188 117 84 48 46 30 133 97 49 107 121 63 210 754 1163 1229 1273 2718 2517 2196 1068 1813 494 1972 1072 2279 2583 2446 2094 2564 2020 2445 1737 2343 1581 2196 3388 3557 3727 2870 2031
268 84 6 0 0 0 108 0 115 0 0 4 26 50 125 88 136 174 103 82 83 489 909 1993 2007 2403 1885 954 1354 1982 1797 392 1505 1750 733 1066 2771 2305 2584 2552 2201 2052 899 1093 2856 3400 3708 3829 3066
6 152 102 30 0 1 45 83 4 127 19 2 9 50 108 107 133 70 105 61 269 345 523 1240 2295 2660 2486 2608 1966 2239 1924 1849 1545 1328 838 1096 2247 2595 2069 2793 2717 2642 1995 1561 1026 2603 4183 3740 3339
13 132 106 17 0 36 137 159 130 125 86 62 12 56 143 122 89 55 125 87 637 562 825 1396 2339 2706 2903 2598 2507 2227 1800 1500 1547 345 1169 1210 1969 2367 3000 2071 3182 3059 958 1432 2766 3246 3377 4160 3764
89 81 128 101 89 132 117 107 204 117 80 56 15 96 124 206 161 162 122 177 442 808 1021 1519 2267 2429 2515 2170 2080 1947 2089 1538 1932 2622 909 1554 583 609 1032 2820 2361 2690 2466 2431 2535 2843 3434 3772 3474
88 152 14 0 107 205 124 112 258 92 8 0 64 108 139 140 221 219 202 71 702 1189 1497 1431 2165 2553 2381 2018 2433 2631 3015 1877 1867 2532 1527 322 410 147 1117 2037 2149 2592 2586 2752 2764 2726 2589 3066 3142
58 10 27 17 13 121 122 148 246 9 1 7 59 117 42 30 73 195 157 272 219 367 968 1180 2069 2018 2402 2043 2557 2432 2059 2214 1924 1906 2727 2048 581 147 355 678 1638 2277 1832 2097 2149 2656 2538 1119 724
5 23 7 114 54 81 104 101 144 131 104 110 141 108 0 58 122 91 97 104 59 1 195 1212 2327 2014 2067 1515 2071 2095 2137 2528 2145 2366 1699 1395 639 189 7 301 958 2149 1843 2402 2727 2286 2077 2100 979
0 0 0 20 198 27 137 170 286 435 254 333 501 484 314 742 436 166 111 538 36 0 1032 1444 1667 1754 2024 1489 1061 1951 1603 1861 2013 2154 2105 1760 691 294 467 819 1877 1761 2613 2534 2724 2699 2184 1405 1547
0 1 2 23 33 32 37 224 185 227 599 611 1103 865 1584 936 565 186 100 16 835 911 1521 1051 743 847 1117 1015 1341 1430 828 1094 1555 740 436 1471 1720 2078 2267 2652 1972 2208 1810 1920 2331 2318 2038 1949 2051

GFSSGP_con_mucape_105.txt.gz
CAPE
0 40 102 344 443 476 23 18 11 85 88 47 53 66 101 122 67 93 276 343 533 1002 1294 1576 2110 1397 1458 2033 2254 2327 2160 2345 2238 2253 2611 2080 1562 1794 1801 1969 1937 1848 1674 796 1212 1572 1671 1453 1585
0 184 251 142 157 81 26 12 51 130 71 15 14 193 185 178 129 110 167 400 681 963 1135 1033 2183 2015 1690 1939 2005 2153 2168 2325 2166 2167 2084 1991 1999 2237 2093 1847 1588 1689 1657 1421 1277 1761 1485 1365 1452
43 219 243 13 16 82 2 0 0 163 38 38 58 14 127 139 327 304 336 461 807 371 1080 1487 2251 2154 1919 1907 1938 2022 2165 2248 2194 2169 2089 2117 1991 2160 2127 2084 1953 1909 2042 1973 1793 1532 1385 1352 1585
206 252 59 7 75 139 0 0 23 135 11 34 40 161 98 276 389 362 276 447 648 1073 1489 2192 2054 1771 1856 1810 1938 1953 2161 2197 2180 2150 2162 1925 2190 1699 1663 1812 1995 2058 2103 2014 1711 1452 1164 1205 1399
40 65 83 110 227 27 0 0 111 86 35 20 116 265 349 216 378 193 349 567 806 1125 1442 1672 2413 2128 1886 1745 1852 2012 2195 2202 2257 2320 2182 1974 2214 2007 2013 2053 2228 2301 2393 2096 1510 1355 1008 1072 1362
98 12 74 129 130 10 0 0 211 116 8 79 267 216 282 330 214 378 403 463 608 805 1177 1421 1962 1982 1925 1951 1953 2143 2172 2277 2194 2206 2262 2447 2416 2624 2570 2307 2326 1854 1734 1450 1301 1136 972 965 1053
146 107 151 137 12 0 0 37 209 126 12 84 272 187 154 85 228 377 235 356 553 805 1130 1258 1427 1646 1905 1919 2070 2266 2144 2147 2271 2268 2413 2530 2230 2283 2349 2323 2295 2143 1558 1261 1128 923 830 831 879
354 211 204 156 19 0 7 232 151 9 3 49 36 65 34 106 227 235 215 297 366 656 787 1082 1300 1369 1454 1620 2063 2031 2032 2025 2180 2383 2496 2585 2370 2204 2222 2943 2760 2102 2132 1772 1252 934 831 706 682
335 35 31 66 24 0 108 116 212 50 21 77 82 33 20 105 89 128 167 207 275 503 636 855 906 1008 1255 1512 1801 1916 2079 2144 2280 2363 2487 2425 1795 1643 1659 2401 2595 2037 2078 2052 1724 1454 1283 1223 1244
279 99 7 41 105 126 45 209 202 137 63 108 40 4 34 104 74 47 181 88 402 490 617 653 817 782 1160 1316 1649 1605 1806 1364 1233 1140 1323 1532 1594 1465 1602 1988 1967 1819 1699 1776 2235 2051 1946 1123 1077
237 63 44 16 53 219 121 207 213 75 51 75 7 0 29 30 61 100 66 214 355 496 477 343 481 549 570 1105 1388 1394 1296 1325 1123 713 1165 1404 1568 1486 1388 719 403 196 493 899 1228 2307 977 655 433
148 143 49 49 222 250 219 251 176 143 65 9 10 6 20 20 8 27 47 97 145 55 61 362 599 507 782 1140 1354 1306 1241 768 891 1162 1497 1529 848 685 645 0 167 13 48 400 932 1318 1653 1732 1350
458 356 198 61 35 113 196 293 217 177 37 11 23 14 12 14 11 33 25 165 199 80 202 378 785 790 611 932 958 1104 1296 207 464 1096 1530 1267 1266 564 578 32 42 330 488 572 1060 1150 1050 1230 490
376 267 441 170 393 256 274 192 122 91 44 27 15 0 20 20 12 38 19 134 230 178 268 397 573 658 1269 614 837 966 872 975 1255 738 904 1170 1128 657 524 619 391 462 628 814 449 434 838 981 529
325 338 509 286 379 466 200 191 102 84 57 16 0 0 14 17 19 15 1 204 395 192 224 220 285 646 761 739 743 637 659 1104 1268 588 509 1344 806 221 520 750 677 937 787 1125 404 770 804 588 498
268 394 221 486 268 266 186 110 136 54 18 17 24 13 26 19 10 15 1 31 323 196 271 93 102 407 428 581 1009 767 813 716 1020 1042 1264 1866 1205 622 1121 1110 1065 1315 1872 1764 2032 1514 1389 713 679
455 207 172 382 414 252 206 155 191 83 24 35 37 37 25 27 17 18 3 0 137 92 135 246 116 280 707 1026 1224 801 740 1225 1142 1112 1387 1417 1906 1175 1595 1570 1249 1946 1686 657 1388 885 1194 882 785
111 104 281 170 18 21 223 142 210 278 39 47 50 47 37 21 37 25 6 25 6 209 117 427 358 328 671 504 572 508 453 959 1386 1530 1573 1730 1731 1552 1736 1848 1301 955 1375 1247 1686 1630 2066 1816 787
161 225 32 11 3 93 135 128 101 96 118 99 74 57 32 26 15 45 13 7 0 10 62 721 409 558 454 314 826 679 433 781 1031 1217 1722 1370 1540 1779 1709 1571 407 531 1453 1675 1741 1887 2116 1935 1710
101 47 34 0 0 6 44 108 50 59 67 96 49 71 38 35 20 45 16 16 2 104 138 657 680 442 868 761 1001 846 564 1092 1059 1244 1587 1656 1141 1424 1826 1361 1190 981 1350 1855 1815 1732 2472 1567 976
179 143 41 16 0 0 15 14 63 64 75 75 56 32 69 26 24 30 17 13 11 233 638 786 1069 984 982 702 732 527 573 889 920 1092 1079 1266 1646 1482 1429 1216 821 1037 1084 1275 1486 2153 2324 2394 1853
188 157 82 42 0 0 11 3 66 3 45 51 43 15 72 22 40 36 50 66 71 134 401 713 1030 923 927 999 562 603 343 373 603 598 602 920 1268 1484 1501 1043 635 1150 371 296 1354 1856 2511 2310 2077
282 137 48 15 0 0 0 0 0 2 0 0 30 26 52 39 26 45 38 54 98 329 244 373 642 859 897 507 699 649 446 379 695 629 485 600 865 1316 1336 1579 1358 1261 1010 1017 1382 1227 2209 2218 2052
211 105 46 51 12 0 0 0 56 0 1 0 0 12 32 83 85 38 94 76 204 298 766 488 709 713 1092 669 649 554 582 594 587 487 500 758 680 821 1332 1317 1313 1223 902 725 938 1738 1932 2198 2008
221 140 58 6 0 0 0 0 0 79 82 2 0 9 37 70 81 85 72 65 134 201 665 1042 925 976 1187 836 571 459 877 614 469 124 350 777 658 602 774 817 1289 1075 880 459 1036 1210 1324 1904 1902
268 118 31 0 6 0 79 77 40 89 45 62 4 10 53 48 73 76 25 64 167 243 536 690 1189 1269 959 1361 1067 948 922 868 887 896 557 302 314 327 432 685 970 1065 1148 1137 1286 988 1302 1290 1450
24 58 96 52 0 23 32 2 82 197 107 25 20 28 36 42 73 91 130 84 343 521 914 1339 1285 1260 1383 955 1176 681 1065 893 874 992 778 639 465 297 266 439 688 846 1013 1279 1351 1041 877 1145 806
9 16 0 81 9 1 100 7 147 81 58 31 0 8 44 44 62 86 177 149 263 340 884 1249 1567 1505 1391 1130 1358 1177 981 1149 1082 939 509 563 390 177 465 316 505 542 957 996 1038 1303 1034 989 838
0 3 18 44 1 35 67 72 64 71 50 87 54 21 1 0 10 56 129 107 95 131 438 389 994 1169 1443 1368 1065 970 959 941 980 872 812 590 426 184 0 13 527 875 1068 1194 1020 981 945 722 892
0 0 3 0 0 16 4 370 496 340 163 78 73 74 26 9 36 106 101 78 151 42 106 42 78 831 1039 1111 767 577 734 719 766 546 515 491 488 438 547 710 1259 965 1031 1014 1239 1304 1293 1178 798

GFSSGP_con_mucape_108.txt.gz
CAPE
0 60 118 442 289 268 21 44 25 35 23 41 39 118 46 65 52 46 202 370 534 930 1431 1648 2190 1642 1740 1992 2099 2118 2192 1883 2529 2059 2264 2031 1757 1804 1961 2033 2068 1471 1261 1735 1690 1690 1711 1459 1025
11 207 83 90 59 17 52 72 19 17 62 82 82 83 94 122 164 219 291 475 800 1184 1308 1480 2123 1767 2057 2141 2244 2073 2008 1982 2175 2052 1955 1903 1896 2074 2101 1953 1182 1097 1191 1586 1724 1480 1498 1467 1024
111 167 39 30 24 54 28 94 38 19 81 78 130 129 170 95 133 180 229 566 863 1179 979 1409 2033 2063 2047 2050 2257 2267 2286 2324 2274 2063 1957 2050 1920 2119 1959 1440 2011 1851 1792 1936 1536 1454 1580 1772 1579
248 125 27 9 1 109 10 86 26 25 89 156 134 185 231 229 205 128 419 625 789 888 1264 1884 1637 2021 2028 2062 2160 2264 2305 2242 2158 2132 2018 1993 1871 1817 1842 1871 2018 2021 1822 1538 1421 1355 1580 1617 1815
28 36 25 93 73 28 56 73 41 103 228 137 109 128 219 204 234 244 353 476 976 1283 1584 1684 2246 2064 1954 2049 2047 2231 2253 2249 2302 2093 2053 1993 1918 1975 2100 2132 2173 2154 2014 1690 1304 1090 1316 1422 1695
61 1 52 67 55 3 85 89 42 194 199 219 120 113 99 143 295 336 559 743 1042 1386 1572 1788 2150 1967 1858 1992 2202 2331 2312 2368 2418 2274 2186 2160 2167 2199 2155 2112 2025 2348 2234 1270 1145 998 1004 1109 1449
91 42 14 81 0 4 56 73 36 186 179 140 84 91 73 208 277 406 483 651 937 1179 1331 1472 1609 1705 2039 2102 2250 2325 2221 2377 2397 2383 2139 2282 2308 2295 2224 2197 1775 1323 1194 1026 869 734 778 896 1038
252 74 87 108 0 6 64 238 53 147 245 95 76 95 57 168 242 314 410 526 788 1095 1280 1332 1480 1655 1697 1889 2264 2211 2303 2309 2398 2461 2333 2416 2435 2222 2136 2632 2426 1855 1438 1104 926 818 779 671 755
188 36 49 102 9 18 153 223 72 150 171 29 70 10 53 184 147 255 324 410 594 726 1061 1317 1441 1467 1631 1840 1893 2208 2274 2402 2481 2370 2444 2277 1655 1776 1809 2203 2079 1955 1819 1536 1273 1000 880 1020 1188
341 27 26 43 114 101 167 163 39 110 121 59 15 48 91 141 100 210 204 278 377 607 779 977 1009 1309 1544 1834 1685 1712 1770 1875 2057 2031 1851 1410 1308 1214 1523 1704 1873 1946 1627 1526 1909 1842 1922 1769 857
182 66 34 22 55 66 176 96 172 39 124 45 49 93 80 62 122 181 197 240 356 507 625 753 931 1024 1328 1646 1548 1611 1205 1075 1031 1198 1264 1300 1250 1207 660 355 212 542 708 741 909 952 1833 481 704
178 107 69 84 73 223 320 335 116 165 99 66 6 47 75 64 86 104 88 296 369 549 537 629 520 758 870 1200 1290 1210 1202 1087 608 948 1068 1081 1064 818 427 250 153 99 408 693 506 577 858 1371 1478
258 143 90 74 70 91 150 269 154 141 126 47 3 60 33 115 54 79 147 294 337 257 318 352 314 497 884 1201 1159 1181 923 635 698 977 1115 872 339 569 415 0 201 353 328 422 566 726 944 1194 860
523 405 202 90 39 141 210 321 131 119 80 58 12 24 16 20 21 99 117 142 31 185 347 527 461 529 827 998 1035 1147 1132 406 832 949 785 962 593 488 392 213 258 393 508 529 467 508 755 828 407
590 323 148 27 209 140 285 154 70 75 77 43 28 19 28 16 63 86 97 8 80 150 345 426 557 1090 730 790 815 1022 776 758 665 570 862 915 624 408 482 625 668 674 549 829 872 570 707 620 398
517 277 183 66 64 75 282 53 48 34 58 44 42 39 16 21 37 100 99 89 37 152 147 231 411 447 422 632 618 833 777 1066 701 302 937 891 294 219 561 850 746 365 319 1290 1321 1391 1426 1006 486
393 93 82 218 86 183 133 25 76 51 66 44 33 19 16 18 16 76 196 113 119 108 57 97 139 347 681 927 670 698 815 954 669 1037 1448 1125 1381 1110 1408 1347 1177 954 1039 879 1591 1123 1412 980 651
24 124 38 83 19 80 66 68 181 93 73 43 49 45 30 13 21 126 188 102 92 7 0 0 71 596 602 656 548 539 784 943 798 1092 1232 1416 838 1291 1688 1244 976 837 1349 1666 1684 1720 1868 1825 673
177 77 66 43 4 16 0 47 82 114 74 42 31 61 24 28 21 50 160 65 99 70 134 49 171 499 348 565 544 292 538 950 950 1285 1370 1035 1330 1570 1432 1443 397 888 1161 1827 1739 1689 2173 1354 874
104 59 45 51 7 0 0 25 64 80 61 33 45 38 29 58 38 41 33 56 78 102 148 138 118 292 276 519 627 606 640 889 720 887 1318 1439 1011 1235 1206 1214 1056 1004 1079 1232 1624 2229 1969 1862 1989
86 154 36 19 13 1 0 0 23 93 90 59 45 45 57 34 28 3 21 28 23 150 306 201 167 269 648 553 438 466 681 783 719 1018 985 1052 1290 1287 1096 911 801 766 823 930 1348 1757 2123 1639 1634
256 192 85 23 1 0 6 0 0 53 24 35 69 26 46 19 32 16 17 28 74 110 237 216 223 459 552 386 370 324 464 433 520 706 635 734 800 1182 1216 911 782 987 329 531 1055 1315 1921 1695 1527
255 161 51 6 0 2 10 0 0 2 9 20 25 57 36 28 18 22 53 26 84 176 237 321 339 505 596 361 339 320 270 288 505 445 434 563 678 992 1438 798 836 1001 707 778 1202 1639 1705 1798 1347
194 119 53 9 6 0 1 0 0 0 1 15 31 53 53 73 24 53 42 31 57 127 265 336 310 352 507 381 395 477 273 310 482 407 515 382 511 739 1178 1303 1169 775 968 569 691 1424 1526 1708 1565
201 116 24 48 0 0 9 0 0 0 10 30 40 38 64 108 130 68 51 76 50 62 169 292 249 283 480 355 510 408 494 444 397 369 299 533 524 527 737 883 986 884 662 111 440 1142 1040 1273 1344
211 112 8 4 0 64 54 0 48 22 36 27 9 78 72 124 126 85 18 86 94 270 196 263 220 216 709 579 329 303 620 485 396 135 133 536 537 459 429 531 941 920 920 952 1056 1005 894 1034 882
255 91 58 38 15 21 0 19 6 0 57 57 27 23 58 101 127 120 65 90 161 280 527 445 352 360 762 505 335 437 460 529 583 586 633 386 232 270 233 513 580 722 800 907 1012 990 849 802 853
290 158 78 80 37 0 6 0 0 0 5 36 28 31 60 51 104 142 128 217 218 308 468 1026 554 596 667 814 667 718 753 558 651 749 575 548 382 153 183 426 403 503 645 802 946 922 785 736 772
0 0 10 3 53 60 0 0 0 0 17 86 51 43 64 30 54 174 203 333 386 484 600 565 854 839 876 701 856 490 943 854 794 622 312 361 258 211 188 327 87 377 611 820 819 774 747 662 398
0 0 18 2 0 51 37 20 65 18 0 33 45 25 30 22 64 189 197 262 154 190 190 119 352 691 973 965 913 888 774 715 760 672 573 530 295 264 108 25 333 702 849 872 768 743 1055 738 845

GFSSGP_con_mucape_111.txt.gz
CAPE
27 83 150 368 142 18 5 17 23 2 11 21 33 36 41 98 44 1 135 236 268 395 1161 1661 1924 1874 1860 2199 2222 2165 2027 1941 2065 2011 2137 2015 1948 1805 1896 1919 1837 1927 1751 1768 1892 1786 1419 1319 1374
82 222 65 19 0 12 24 39 16 85 159 34 101 81 140 149 315 286 234 341 386 944 1447 1532 2290 1907 2021 2186 2203 2203 2111 1751 2023 1823 1945 1997 1845 1920 2007 1032 829 1033 1671 1685 1749 1682 1418 1373 1547
107 117 68 22 3 7 11 18 47 110 113 131 180 212 181 185 317 227 398 634 1043 1326 1295 1412 1609 2086 2115 2265 2215 2183 2245 1878 1947 2106 1934 1969 1727 1290 1383 1660 1571 1567 1981 1561 1640 1783 1898 1733 1687
195 124 39 31 23 28 24 11 36 148 167 208 200 268 247 198 198 261 534 868 1059 1184 1118 1764 1623 2097 2068 2216 2126 2056 2190 2221 2221 2109 2118 2107 2159 2082 2130 2157 1958 1825 1655 1604 1649 1884 1802 2009 1600
45 54 23 86 73 8 34 25 78 226 269 197 179 247 254 235 249 422 605 682 950 988 1383 1402 2144 2090 2135 2277 2213 2235 2269 2252 2198 2159 1988 1889 1840 2017 2084 2189 2062 2133 1876 1435 1444 1577 1653 1830 2074
96 4 6 47 45 24 40 55 169 171 183 187 210 177 201 232 278 388 541 742 1018 1372 1627 1666 2029 2014 2151 2116 2294 2312 2303 2235 2147 2151 2170 2096 2096 2151 2098 2327 2376 2171 1637 1221 1245 1302 1332 1712 2473
58 9 45 40 0 36 37 90 133 170 123 177 151 159 204 220 263 447 670 960 1193 1535 1693 1730 1724 1698 2029 2242 2215 2283 2374 2325 2229 2217 2316 2405 2417 2299 2233 1647 1411 1230 1018 972 927 957 1045 1223 1548
64 14 57 62 0 34 39 108 163 136 210 153 119 138 200 264 467 540 657 934 1116 1297 1412 1556 1532 1748 1841 2049 2398 2356 2437 2479 2394 2180 2325 2386 2330 2153 2129 2376 1935 1494 1228 1026 866 839 914 1052 1164
98 22 18 59 3 58 120 111 170 237 134 141 139 93 140 240 341 403 536 756 970 1111 1349 1452 1628 1643 1805 1948 1964 2257 2356 2395 2401 2175 2275 2202 1756 1864 1724 1964 1832 1859 1745 1490 1290 1074 1029 1218 1640
211 51 22 99 82 72 194 95 119 118 22 19 78 91 158 234 247 321 392 524 727 932 1190 1317 1284 1487 1708 1828 1656 1705 1950 1993 2017 1906 1696 1294 1293 1338 1742 1885 2077 1787 1046 884 1739 1864 2150 557 270
127 121 54 37 73 65 89 198 124 31 59 5 88 141 177 190 213 224 220 281 385 729 1048 1105 1190 1408 1640 1709 1470 1584 1759 2011 1869 1679 1039 1142 1188 1052 626 502 517 552 537 324 358 350 473 1293 1127
240 137 76 41 50 46 117 298 88 73 120 48 96 127 202 179 196 161 213 289 325 545 701 793 947 1258 1487 1490 1378 1281 1006 893 823 1013 1133 1212 1124 534 329 203 28 86 252 307 359 523 787 977 1108
240 119 76 66 98 120 131 191 234 78 74 124 89 110 137 148 223 219 225 296 364 480 555 711 653 893 978 1117 1115 1021 1010 854 699 909 1021 1013 992 468 258 12 49 94 204 311 410 562 642 709 570
334 216 162 187 79 83 207 238 182 178 68 83 100 114 113 133 213 223 257 316 365 382 443 507 447 420 700 937 963 963 730 511 710 894 1046 643 329 360 236 143 336 541 474 674 690 499 670 658 431
521 334 249 125 107 167 296 191 135 59 69 86 41 131 146 119 134 177 239 247 233 244 278 262 316 425 770 771 857 881 878 466 706 677 840 728 435 378 293 358 438 401 366 897 1057 1105 932 1044 730
565 284 109 101 189 80 191 128 102 93 90 60 40 88 127 104 77 121 219 203 187 205 280 254 611 392 667 772 736 855 617 598 542 496 680 716 425 252 656 657 665 262 589 754 946 883 968 1135 507
247 56 89 117 100 64 174 93 99 98 94 68 48 49 43 68 39 71 154 33 150 263 307 448 610 682 451 563 529 655 618 846 539 625 848 465 384 913 1171 846 707 624 997 1484 1398 1685 1544 926 483
44 93 51 40 76 84 18 36 71 62 73 61 49 3 0 36 27 61 73 77 116 164 182 224 299 521 599 483 410 592 608 820 401 805 1003 1073 1047 1177 1295 953 468 918 1238 1609 1544 1784 1516 1423 610
170 128 77 38 10 0 0 0 66 76 94 58 74 9 0 12 62 82 115 53 76 62 72 115 382 392 460 391 432 576 575 636 676 933 1043 1271 1028 1235 1109 962 408 855 1225 1414 2054 1826 1349 1298 1079
225 120 48 48 13 0 0 0 0 44 91 83 35 6 0 1 28 149 102 63 59 0 13 47 335 300 355 345 240 399 564 714 689 864 1057 1034 1105 1225 890 973 777 765 963 1306 1831 1954 1546 1502 1522
181 121 60 32 25 9 0 0 0 35 78 92 73 52 27 0 13 154 115 61 31 27 35 38 284 229 248 340 458 402 590 635 651 820 873 976 1150 1330 1016 846 705 689 697 1060 1345 1764 1539 1316 1310
149 276 184 51 6 0 1 0 0 0 53 62 87 37 30 5 21 122 100 53 72 47 91 15 191 167 322 328 358 434 415 455 520 668 787 782 835 957 1119 894 624 598 380 800 1049 1372 1591 1138 1090
291 285 166 35 0 0 13 0 1 0 33 46 73 28 43 16 17 98 87 59 69 98 138 56 119 323 327 297 289 255 317 362 381 447 486 509 663 831 1152 836 675 810 564 721 1166 1393 1438 1330 737
310 163 106 33 0 0 31 7 0 18 14 14 38 52 37 34 58 63 95 75 63 81 166 103 130 379 346 265 236 219 217 278 399 406 381 356 500 640 1096 1128 827 771 774 586 863 1300 1403 1280 1029
218 131 28 15 2 4 5 2 0 0 19 13 25 34 45 62 42 70 85 60 83 130 196 173 127 236 351 249 294 309 275 224 209 323 306 385 327 379 643 976 1104 766 614 342 147 975 897 1082 1166
322 141 9 0 7 26 32 15 0 9 0 0 17 27 67 97 41 73 104 97 83 130 189 214 164 166 261 270 263 395 315 258 276 339 323 232 400 335 444 576 1034 703 491 428 819 894 813 941 766
454 236 78 62 47 11 9 52 8 1 0 38 43 24 28 22 56 96 117 121 94 74 180 202 169 108 247 245 344 386 326 405 405 346 98 222 455 432 287 384 701 780 754 773 845 920 610 627 681
430 280 195 131 61 33 6 0 1 0 34 104 83 50 7 16 94 57 106 149 137 141 146 196 189 141 168 424 441 242 273 461 429 481 524 435 277 213 128 255 411 500 561 597 839 919 772 594 577
259 157 70 52 57 72 7 0 15 0 2 112 92 46 8 57 62 86 33 165 180 242 256 321 268 223 309 573 513 319 427 418 460 624 594 423 391 240 59 160 376 296 381 453 715 684 720 644 397
123 49 71 22 0 13 25 5 76 1 0 41 77 37 11 34 82 104 160 257 241 257 316 451 494 544 563 563 651 628 620 618 665 681 531 230 218 183 3 34 235 7 438 770 703 698 670 620 510

GFSSGP_con_mucape_114.txt.gz
CAPE
9 147 99 250 52 2 2 11 3 0 31 19 10 39 40 182 91 1 54 86 132 204 811 779 1293 1209 1924 2381 2241 2033 2071 2142 1913 1770 1882 1872 1885 2020 1959 1767 1661 1705 1749 1768 1728 1644 1566 1596 1637
67 150 31 9 1 0 8 16 13 52 11 13 88 153 136 204 386 151 55 214 197 724 1170 1111 1698 1748 2294 2380 2224 2100 1990 2149 2099 1844 1969 2020 1941 1891 1161 1053 1521 1772 1765 1750 1733 1638 1629 1559 1678
73 88 56 9 4 0 28 46 83 44 94 85 257 238 146 176 210 139 240 614 881 1201 1338 1652 1776 2052 2153 2156 2128 2003 1707 2010 1911 2200 2062 1894 1927 1659 1386 1449 1489 1936 1737 1701 1951 1643 1679 1725 1967
181 142 27 16 7 0 38 70 139 198 221 253 132 271 214 231 191 335 660 787 987 1216 1227 1472 1735 1907 2040 2053 2126 2191 2032 2237 2164 2099 2142 2159 1901 2092 1834 1844 1970 1739 1632 1715 1952 1987 1992 1905 2210
76 76 0 55 60 3 35 49 155 263 238 153 174 253 201 262 344 610 614 709 954 1049 1264 1518 1937 2112 2212 2046 2121 2247 2267 2237 2227 2211 2143 2002 2046 2062 1965 1940 2062 1753 1508 1667 1736 1781 1667 1943 1965
126 30 21 42 13 9 39 134 222 185 188 163 155 163 196 276 422 495 580 755 844 1094 1375 1430 1742 1772 2186 2023 2236 2262 2212 2160 2003 2014 1949 1951 2117 2089 2183 2217 2223 1388 1354 1496 1521 1524 1808 1979 1977
101 27 75 2 12 14 49 143 151 112 87 122 116 152 197 202 327 556 724 914 1202 1436 1464 1528 1675 1625 2119 2189 2262 2319 2246 2180 2266 2314 2245 2210 2257 2338 1683 1532 1330 1069 1077 1137 1185 1226 1406 1735 1896
102 36 76 18 1 10 52 200 172 106 111 60 49 124 176 199 478 655 789 1035 1278 1426 1505 1531 1492 1589 1870 1919 2220 2356 2337 2293 2203 2244 2334 2409 2325 2293 2339 2240 1786 1209 964 956 955 1077 1220 1372 1678
104 15 31 106 0 78 71 139 140 128 91 103 114 89 176 336 463 498 690 903 1074 1177 1373 1356 1532 1598 1810 1775 1927 2310 2438 2427 2136 2143 2571 1965 1795 1806 1728 1841 1841 1939 1663 1259 1146 1180 1303 1698 1422
179 46 54 137 71 73 138 85 202 106 76 82 92 139 265 306 335 364 510 559 798 1050 1238 1360 1542 1526 1702 1779 1633 1810 2165 1907 1799 1627 1352 1332 1268 1526 1974 2189 1747 1265 545 806 1083 1059 1579 676 359
106 106 63 53 71 67 89 139 125 71 42 22 84 128 235 232 230 261 392 422 607 871 1068 1154 1202 1403 1539 1492 1402 1732 1845 1780 1742 1382 1018 1081 1269 1114 443 268 329 326 216 144 157 192 311 555 808
191 219 102 47 39 125 166 337 60 32 61 37 84 130 193 204 169 106 123 255 293 675 959 1010 970 1265 1401 1307 1369 1394 1623 1472 1277 1047 1127 1116 897 290 251 137 187 159 132 184 284 450 644 642 444
316 229 203 169 130 140 155 240 207 30 56 51 112 103 135 161 130 90 106 192 235 474 692 702 833 1098 1242 1179 1054 934 826 646 660 892 1013 998 954 351 159 27 72 178 351 418 445 478 475 475 309
257 260 281 260 121 121 179 186 210 103 107 88 117 117 102 126 136 103 153 224 247 376 507 600 604 791 874 871 888 871 869 708 652 839 945 718 687 360 197 198 453 464 347 689 669 502 526 690 457
333 355 122 279 167 230 187 86 114 124 78 91 91 136 108 103 99 127 158 204 239 308 358 484 413 474 521 650 768 814 582 423 580 740 867 700 324 335 240 259 359 321 598 796 698 654 765 899 683
545 239 88 106 351 200 100 55 276 144 45 92 92 108 121 84 137 155 164 184 230 216 257 326 260 315 465 616 658 729 699 351 600 621 717 787 553 311 523 407 354 444 794 1186 940 1157 758 839 527
97 22 133 93 68 173 65 95 157 100 64 77 88 104 118 113 139 156 151 163 143 169 164 202 218 318 483 574 598 642 635 414 474 441 571 377 302 681 895 687 554 766 1274 1345 1367 1502 1196 693 439
21 47 58 50 45 30 0 0 83 57 67 56 74 98 127 144 132 124 124 160 79 118 148 177 210 390 340 492 495 445 590 600 633 425 798 338 685 1096 1148 741 446 953 1358 1664 1531 1208 1361 706 548
60 111 37 37 51 20 1 0 74 30 66 56 67 54 97 143 135 107 113 135 46 98 189 268 397 527 309 383 314 440 492 567 349 652 883 815 882 1047 1006 764 497 1098 1101 1701 1667 1325 1141 1238 724
155 122 74 23 30 1 0 0 9 35 48 45 50 45 61 64 124 113 98 91 39 131 181 190 257 316 315 272 322 373 404 527 545 800 917 914 919 1028 690 563 496 864 876 1435 1591 1477 1178 1113 836
186 75 70 47 23 1 0 0 0 42 33 52 41 18 33 26 60 97 105 36 34 89 84 62 206 256 243 243 235 363 507 535 550 702 861 997 993 948 917 784 672 638 651 1043 1306 1493 1194 1230 1064
151 178 108 71 13 1 0 1 0 6 30 54 73 6 36 21 55 94 114 56 29 6 20 33 153 191 237 219 205 374 430 457 425 511 599 755 919 950 886 817 593 394 356 863 1050 1260 1294 854 1056
11 372 206 75 7 7 12 0 0 10 0 8 25 10 11 43 33 101 133 105 49 34 0 0 72 127 167 236 205 240 296 348 385 408 495 641 702 616 974 898 549 522 285 736 1096 1174 1382 1149 500
432 332 148 80 23 6 12 2 0 0 2 0 9 10 27 17 44 99 127 129 94 57 5 0 33 131 178 203 191 205 217 233 283 342 311 415 438 548 825 980 448 674 439 452 890 1068 1133 1086 562
512 326 101 76 10 10 9 0 0 28 0 0 11 21 5 27 34 51 82 87 71 91 103 29 44 117 206 224 213 204 183 201 232 246 280 324 312 366 497 869 831 784 534 361 281 738 805 944 1116
496 284 137 45 0 13 40 0 1 0 5 0 25 38 18 17 24 16 30 79 68 99 141 122 49 110 248 247 195 173 196 204 194 177 223 265 262 302 265 537 828 849 602 285 49 687 563 713 747
476 309 178 156 128 94 57 10 4 0 0 0 25 25 36 32 13 8 36 76 79 116 139 165 133 78 176 252 217 183 258 251 161 168 310 204 158 328 267 267 544 783 564 548 604 738 393 431 419
645 478 241 207 61 61 31 18 0 0 0 0 21 32 29 28 21 30 58 47 71 111 151 153 155 110 114 190 165 173 292 257 282 329 315 181 234 284 336 282 272 579 575 480 572 687 734 563 451
411 418 280 83 135 63 12 28 0 0 0 36 30 54 41 11 35 33 34 35 59 92 122 171 178 144 124 165 169 219 337 205 398 335 413 413 325 232 170 144 139 309 296 370 432 578 651 550 429
354 386 287 184 1 42 49 3 76 11 21 52 37 53 33 32 16 35 45 70 64 132 118 139 177 182 165 210 213 344 278 297 402 433 456 300 225 195 168 101 168 302 172 476 534 493 675 634 567

GFSSGP_con_mucape_120.txt.gz
CAPE
38 279 195 1328 780 117 68 45 62 36 38 34 15 29 90 394 188 224 85 146 70 135 261 442 799 1238 1676 1710 1830 1881 1472 1696 2061 1895 1892 1671 1549 1784 1783 1991 1920 1767 1889 1739 1819 1970 2052 1869 1901
93 164 353 430 284 109 144 92 67 68 47 116 122 84 192 345 173 123 134 159 110 168 284 453 1075 1151 1702 1979 2008 1939 2002 2034 2056 1931 1946 1718 1660 1721 1958 1861 1766 1487 1481 1691 1661 1902 2040 2157 2205
158 87 207 246 141 129 131 135 57 62 58 424 481 381 215 229 97 169 147 178 282 409 570 1093 1306 1414 1904 1956 1943 1956 1695 2037 1922 1605 1669 1118 1038 1063 1938 1797 1803 1461 1175 1415 1557 1735 1859 2097 1989
26 787 265 275 118 282 137 189 117 39 58 352 356 179 168 109 196 313 225 246 620 870 823 1152 1802 1690 1993 1995 1795 1874 2118 2072 1930 1525 1715 2030 1984 2065 1899 1826 1780 1899 1967 2001 1895 2350 1900 1804 1634
63 620 286 262 180 230 214 227 250 270 324 298 5 4 298 570 354 312 345 460 712 698 811 844 1838 1885 2061 1860 1890 1958 2072 2078 2133 2046 1858 1891 1777 1774 1843 1620 1772 1875 1731 1766 1959 1963 1651 1270 1344
719 370 266 127 226 247 324 374 418 420 390 150 0 29 532 585 306 331 346 484 457 495 505 1090 1797 1874 1974 1895 1763 1958 1998 1834 1859 1955 1698 1849 1880 1806 1799 1374 1786 1806 1656 1685 2005 2202 2165 1445 948
621 414 289 171 235 208 352 380 333 341 271 112 113 220 419 433 326 339 393 427 305 755 837 1054 1363 1920 2053 1892 2000 2116 1903 1710 2030 1944 1636 1805 1846 1694 1220 1268 1617 1624 1549 1740 1809 2043 2022 1696 1399
694 405 179 147 193 235 290 335 226 202 321 220 52 27 416 547 321 344 417 334 691 647 985 1122 1095 1250 1462 1669 1947 2166 2155 2017 2109 2000 1904 1911 1581 1248 1167 1738 1420 1367 1336 1515 1541 1714 2086 1827 1643
591 539 219 134 133 282 290 256 260 201 93 46 184 8 184 350 334 491 348 603 813 637 852 1020 1165 1537 1846 1728 1853 1801 2073 1904 1976 1691 1755 1628 666 801 1286 1695 1098 1152 1103 1166 1197 1489 1524 1662 1656
739 541 465 354 185 192 196 208 268 83 92 227 205 162 237 251 439 440 274 493 550 439 405 893 1057 1122 1545 1516 1925 1911 1559 1489 1411 1339 1186 823 987 1541 1028 1275 1332 1447 1607 1580 1754 1631 1148 930 851
289 464 425 165 121 179 289 240 275 72 145 210 185 267 209 227 446 393 276 350 383 359 488 924 1095 1360 1464 1590 1557 1755 1326 1475 1636 1585 1006 1221 1028 1024 786 863 691 756 677 738 739 1061 1130 1330 955
417 125 45 271 135 75 84 367 279 104 197 112 58 180 272 441 485 279 263 254 354 431 570 897 1039 1587 1711 1568 1343 1197 1315 1233 1048 1496 1680 1586 928 972 565 349 734 924 758 1063 1258 1138 1606 1308 921
333 250 116 113 43 44 100 402 388 166 112 34 91 247 312 307 352 185 169 161 320 415 613 777 1094 1739 1915 1663 1242 1113 1066 1081 1301 1578 1875 1444 1042 861 762 1115 1021 1238 1304 1371 1493 1334 1434 1141 718
512 676 784 457 401 109 60 321 446 190 49 92 192 245 311 295 281 288 110 153 235 345 614 715 1035 1643 1735 1504 1361 1140 882 1113 1257 1465 1707 2003 1074 1285 1086 1439 1271 1463 1622 1470 1436 1499 1338 749 777
773 832 789 647 370 201 258 358 325 199 172 182 171 208 220 346 330 335 147 108 151 321 554 732 1036 1412 1641 1607 2179 1342 1130 1051 1293 1542 2066 1802 1536 1781 1975 1377 1467 1373 1705 2529 2007 1685 1289 740 652
642 403 380 627 521 447 367 181 272 309 290 169 110 139 234 404 462 412 325 38 95 253 507 640 585 1105 1670 1728 1904 1362 1201 1268 1476 1679 1781 2091 1942 2013 2085 1449 1456 1839 2380 1842 1366 1063 776 874 762
32 65 209 597 587 374 243 245 194 258 417 333 158 166 187 434 566 580 416 209 98 263 500 564 509 1027 1481 1888 1617 1614 1756 1411 1625 1588 1653 2217 1892 1960 1871 1331 1821 2787 2394 2428 1914 1511 1127 900 716
21 30 61 203 644 492 206 320 79 211 520 528 371 152 99 307 476 608 510 337 183 279 529 574 855 1122 1458 1723 1825 1523 1421 1359 1435 1518 1576 1799 1818 2096 2448 1589 2087 2699 2205 2231 2286 2196 1891 1440 1157
0 0 5 488 452 480 451 324 163 93 152 597 422 141 123 158 337 538 557 401 329 424 638 997 1109 1447 1477 1528 1380 1292 1229 1499 1423 1288 2034 1989 2299 2526 2671 1517 1789 2326 2314 2837 2660 2442 2613 1876 2095
0 0 21 392 348 291 239 233 56 272 70 313 535 200 169 132 284 474 588 528 355 399 674 1009 1183 1492 1810 1687 1719 1245 1124 1316 1237 1339 1732 1780 2245 2276 2288 2323 1661 2539 1900 3014 2858 2815 1742 1675 2094
0 0 10 74 329 228 167 222 171 127 137 141 327 372 103 150 181 413 568 608 434 462 546 875 1279 1422 1528 1391 1488 1543 2056 1556 1628 1742 1648 1720 1952 2082 2461 2297 1827 2309 2086 1816 3008 2822 2721 1514 2176
0 0 0 280 165 155 178 58 294 223 339 174 75 255 49 39 155 248 440 605 528 519 609 691 1139 1471 1483 1473 1821 1779 1196 907 1808 1688 1476 1627 1714 1792 2092 2036 2090 2335 1559 2112 2172 2308 3072 3148 1684
0 0 0 242 201 162 192 156 66 210 345 243 166 267 57 51 76 187 327 520 534 544 628 716 1167 1682 1564 1888 1661 1012 940 850 1035 1075 1497 1603 2086 1929 1521 2224 2262 2030 1368 1851 2643 2572 3060 2195 1911
0 0 179 345 190 105 82 211 128 389 179 120 59 123 169 257 106 182 297 439 552 567 609 674 1108 1601 1265 1837 1357 1344 961 950 1036 1114 1160 1408 1152 1365 1995 1970 2322 2015 1803 1736 2092 2653 2564 2816 2402
0 10 76 90 124 44 308 178 199 188 196 115 68 134 257 324 214 165 329 358 548 602 620 686 980 1352 1302 1638 1426 1015 919 1036 987 1012 829 1158 1036 1152 1551 1955 2090 1714 2218 1913 1775 2566 2530 2425 2320
8 17 40 65 68 125 415 196 271 301 190 132 202 184 297 259 301 184 262 408 536 661 668 699 814 1107 1210 1293 1048 1416 1295 1515 949 879 1102 797 937 934 1021 1349 1477 1547 1872 1809 1913 1436 1593 1523 1939
65 135 30 73 93 129 143 338 380 313 198 152 109 26 17 51 182 311 239 482 626 732 745 789 827 959 937 977 1250 1489 1935 1672 1091 1252 1649 1279 2433 2043 1700 1685 1524 1323 1456 1460 1616 1269 1388 1784 2004
350 320 170 80 142 200 155 286 236 241 308 224 175 65 22 33 149 347 278 528 710 753 787 865 844 835 834 819 1071 1227 1310 1596 1544 1560 1883 1316 1399 1698 1592 1789 1736 1707 1766 1861 2157 1417 1647 1751 1455
264 396 347 260 376 222 283 292 256 277 363 384 252 179 89 200 146 304 342 589 702 755 756 987 906 788 838 868 1019 1088 1099 1172 1436 1378 1653 1855 2179 1889 1869 2035 1917 1824 1804 1859 2179 1977 1486 1765 1650
7 173 220 329 241 441 304 141 466 476 444 423 359 195 132 239 186 103 409 662 715 753 761 1077 1055 963 998 917 1154 1331 1325 1329 1117 1435 1449 1817 2054 1982 2032 1951 1811 1568 1687 1731 1910 1908 1280 1508 1502

GFSSGP_con_mucape_123.txt.gz
CAPE
95 467 638 1263 1920 564 88 102 90 74 121 156 103 66 130 253 293 257 155 404 101 175 475 882 1463 998 776 773 957 1433 1627 1663 1593 1716 1711 1754 1919 1890 1979 1985 1895 1907 1830 2037 1896 1967 1917 1837 1934
119 554 662 898 911 75 114 109 94 157 188 284 255 277 82 148 171 219 176 86 132 146 369 614 1661 1487 974 1073 1090 1847 1701 1669 1775 1821 1658 1721 1795 1987 1985 1405 1535 1746 1760 1789 2048 2031 2096 1967 1919
200 241 1029 761 282 154 98 125 145 142 349 415 376 361 256 175 185 287 170 113 273 268 522 1242 1692 2009 1631 1731 1529 1847 1759 1749 1798 1755 952 1143 1910 2067 1634 1267 1295 1528 1868 1684 1806 1971 1973 1943 1992
144 803 680 475 201 148 98 144 184 203 307 386 245 184 148 161 239 244 173 141 289 743 880 1523 1884 2154 1928 1835 1827 1782 1840 1612 1714 1992 2102 1925 1952 2177 2027 1737 1887 1824 1576 2087 2075 1844 1820 1501 1585
146 803 622 334 195 134 148 206 221 222 362 286 110 309 203 354 248 234 372 542 592 708 873 1093 1915 2209 1979 1793 1913 1874 1963 2088 2138 2081 1984 1729 2049 1711 1768 1889 1840 1807 1874 2171 1755 1267 1019 1358 1501
459 707 426 224 154 195 265 289 270 295 324 155 182 337 498 289 225 299 372 553 488 434 807 885 1792 2018 1882 1953 1711 1813 1832 1699 1932 1840 1909 1778 1894 1998 1509 1919 1845 1658 2047 2194 2278 1751 1182 887 1166
410 333 147 145 181 265 347 233 375 204 167 132 132 288 390 231 260 262 304 336 339 422 578 682 981 1779 1934 1912 1835 1837 1651 1993 1729 1917 1981 1993 1988 1507 1378 1877 1770 1818 1935 2019 1973 2011 1699 1357 799
768 584 206 141 121 188 313 320 217 151 208 56 240 267 279 276 199 226 281 307 617 641 780 962 586 951 1171 1322 1831 1833 1900 2042 2034 1848 1868 1825 1367 1159 1344 1575 1701 1596 1726 1682 1888 2036 1796 1666 1325
644 876 300 282 150 312 279 333 376 88 68 47 74 144 295 142 155 219 285 403 446 659 820 872 836 1582 2353 1372 1586 1997 1919 2091 1853 1618 1793 1748 548 895 1347 1621 1347 1240 1251 1265 1385 1537 1819 1939 1744
843 626 463 652 189 114 232 257 316 129 103 84 139 358 164 134 178 246 236 421 360 416 720 453 996 946 1210 1034 1747 1756 1656 1801 1391 805 1019 669 1389 808 875 1702 1841 1549 1708 1723 1629 1419 1340 1707 1938
527 519 622 224 153 235 363 284 343 155 110 138 126 185 107 146 260 96 225 335 398 232 832 695 813 1622 1402 1433 1589 1558 993 802 969 940 868 690 519 856 337 802 942 713 1180 971 1361 1455 1568 897 851
607 447 347 301 164 12 40 163 269 144 201 137 68 94 111 234 289 153 186 254 236 297 620 709 966 1583 1748 1329 1038 1517 1233 764 737 933 1033 1134 623 798 565 666 885 942 471 836 1239 685 936 780 678
514 436 133 518 156 15 3 103 435 243 204 48 59 136 194 273 259 186 190 240 178 334 679 628 1506 2312 2468 1369 1710 1527 1015 962 826 1173 1166 867 697 932 899 992 905 1886 467 676 692 971 1142 836 898
412 530 740 493 177 208 0 148 790 222 119 68 57 151 207 195 168 165 103 182 206 433 652 764 1302 2288 1385 2021 1967 1207 1182 1375 1434 1369 1385 1650 1131 1286 1136 1279 1027 846 876 715 770 1419 1278 682 594
476 552 947 747 738 556 97 312 600 322 136 206 94 146 163 162 165 106 134 137 255 500 652 755 1183 1442 1610 1371 1277 1113 754 728 947 1655 1822 1507 1401 1913 1417 1100 1903 815 1506 1586 1112 1424 1137 564 344
207 443 498 802 680 428 334 324 583 360 294 273 117 129 137 146 115 162 16 71 255 520 710 824 941 1158 1596 1853 1830 1120 1499 1013 1831 1570 1530 1673 1850 1861 2459 1304 1352 1408 1712 1066 784 1065 889 635 413
56 56 159 718 832 673 496 102 223 440 341 184 115 90 107 219 209 244 73 15 132 515 673 842 1031 1720 2064 1902 1801 1955 1234 1624 1566 1873 1489 1783 1715 1894 2266 1804 1729 2625 1238 1261 1542 872 784 701 455
32 16 23 248 990 873 489 403 685 208 392 257 123 195 92 258 327 254 163 34 66 461 604 757 836 1804 1939 1458 2543 2128 1403 1470 1478 1525 2365 1799 1610 1868 2686 1660 1912 3285 1219 2409 3319 4087 1356 1334 649
0 36 24 285 718 735 560 451 734 229 109 309 316 298 84 127 243 243 216 148 101 252 511 707 980 1592 1828 1386 1172 1662 1300 1936 1718 1943 1865 1855 1732 2104 2660 1681 2160 2534 2716 2393 2012 2193 2577 2020 1165
0 1 24 256 541 551 300 389 466 663 157 102 169 422 102 95 155 343 250 142 136 264 557 780 1141 1708 2041 1417 2817 2327 2046 2075 1427 2167 1703 1719 1861 2140 2048 2883 1675 2810 1869 2919 2475 2760 2592 1189 1345
0 6 27 53 445 419 257 195 357 404 707 206 242 396 235 97 108 288 259 265 252 336 598 990 1276 1766 1842 2216 1495 2146 2677 2355 1218 1550 1500 1653 1874 2043 2162 2180 2447 2298 2986 2597 2468 2979 2715 1156 1303
0 0 0 4 92 78 332 43 362 492 427 584 256 552 462 135 125 144 269 373 249 498 473 912 1293 1695 1754 1966 2080 1789 1392 1276 1133 1450 1797 1573 1663 1805 1818 1956 2126 2491 2527 3009 1933 1714 3402 3359 2436
0 0 0 1 44 90 106 194 27 302 619 456 311 278 585 190 160 208 177 363 370 523 654 602 1542 2270 1971 2217 2463 1569 1755 1628 1908 1963 2254 1763 1799 1834 1366 1928 2051 2224 1725 2003 2729 2509 2496 2762 1656
0 0 0 18 84 92 37 76 81 252 542 559 384 420 293 191 153 161 285 393 574 475 786 713 1538 2397 1984 1705 1470 2296 2502 1729 1435 1423 1839 1580 1296 1524 1611 1672 2110 2207 2007 2026 2150 2416 2549 2840 2983
0 0 17 60 65 29 71 90 60 30 388 217 404 500 322 508 146 97 220 320 744 652 803 745 1142 1783 1461 1852 1461 1538 1700 1537 1544 1793 1220 962 1519 1184 2884 2343 2185 2028 2345 2252 2071 2347 2710 2409 2320
0 0 31 49 80 234 106 99 169 71 172 96 152 336 414 356 166 116 247 343 1116 923 771 871 1057 1519 1348 1530 1555 2123 1443 1275 1116 1631 1072 935 982 870 1953 1956 1733 1808 2003 1957 2054 1736 1568 2453 1434
12 7 4 45 43 53 212 172 168 48 79 161 160 252 98 213 277 232 219 244 867 871 867 1081 1171 1308 1176 1320 1537 1795 1619 1345 979 2341 1596 1425 1482 1115 1607 1605 1857 1817 1702 1727 2017 1687 1600 1548 1968
3 96 41 31 49 89 104 97 291 122 3 81 220 299 341 302 567 416 221 258 452 673 1054 973 1143 1270 1139 973 1121 1246 1278 1488 1425 2530 1908 1334 2473 1947 1741 1946 1724 1876 1782 1861 2575 2112 2552 1786 1571
48 23 20 63 130 83 191 374 35 66 99 439 267 227 179 107 137 316 146 334 562 812 926 1182 1196 1274 1164 1008 1739 1715 1427 1389 1490 1533 1872 2009 2138 1916 1921 2130 2184 2051 1893 1898 2584 2240 2615 2283 1875
80 55 96 114 191 21 53 179 143 266 12 515 358 203 309 249 231 417 446 368 644 1038 1013 1160 1395 1188 1120 1410 2235 1911 1593 1416 1238 1451 1228 2154 2407 2445 2655 2215 2212 2068 2045 2315 2259 2107 1718 1820 1476

GFSSGP_con_mucape_126.txt.gz
CAPE
22 392 531 1085 842 646 36 63 52 21 83 76 81 30 8 115 138 28 162 110 189 197 495 1385 1716 811 892 860 421 1220 1785 1739 1506 1688 1669 1937 1962 1894 1819 1849 1885 1739 1888 1962 1835 1921 1826 1973 1875
60 171 554 738 333 140 71 57 77 66 370 427 201 27 46 125 99 377 256 203 202 231 427 895 1665 1115 1134 1277 1173 1476 1696 1844 1652 1767 1872 1980 1930 1715 1486 1746 1921 1923 1921 1998 1949 2006 2051 2035 2081
114 326 826 219 191 87 60 36 49 147 128 121 98 12 24 141 117 46 39 74 156 265 510 1221 2263 1560 1243 1384 1453 1586 1849 1886 1784 1627 1695 1922 1849 1540 1486 1643 1837 1854 1841 1979 1976 2046 2024 2023 1836
72 371 834 337 143 56 57 49 31 172 359 166 31 20 74 216 72 18 82 79 528 862 786 2227 2286 1696 1195 1603 1628 1653 1690 1607 2124 2220 1483 1958 2006 1566 1846 1702 1820 1928 1927 1953 2067 1796 1647 1630 1471
204 561 460 116 119 65 38 46 62 169 85 75 30 21 164 104 33 36 189 652 741 545 1014 1692 2688 2516 1815 1879 1501 1693 1776 1869 1925 2063 2048 1875 2268 1847 1921 1879 1909 1976 1937 1270 1028 1475 1549 1408 1393
181 126 22 389 111 47 63 110 137 146 52 101 84 77 111 28 155 208 217 826 735 546 618 1346 2399 2287 1951 1829 1835 1972 1907 1957 2004 2374 1933 2065 2460 2211 1960 1841 2015 1891 2071 2005 1337 829 949 1093 1030
153 105 29 249 65 87 148 189 159 56 59 38 161 17 32 54 48 167 165 373 670 714 449 963 1318 1769 1836 2001 1719 1528 1872 1881 1917 1952 2256 2009 1927 1687 1905 1912 2082 1969 1921 1875 1856 1549 1062 686 406
607 216 100 93 27 149 178 156 183 89 94 139 148 31 28 79 65 81 85 301 481 632 408 621 1068 978 1120 1288 1623 1647 2023 1672 1934 2094 1977 1931 1392 1644 1885 2503 2165 1715 1781 1911 1881 1731 1554 1161 1025
457 516 111 148 164 312 224 225 17 4 6 81 74 47 21 19 38 46 67 331 525 420 607 320 723 1428 1805 1673 1772 1930 2141 2134 2028 1856 1983 2251 869 1318 1468 2140 1613 1567 1485 1575 1782 1921 1858 1697 1562
770 107 119 245 127 21 24 240 36 53 28 168 134 56 5 12 46 51 164 238 389 658 364 443 803 1196 1215 700 1988 2213 1989 1481 1433 1768 1959 1920 1205 1838 1281 1552 1388 1283 1465 1454 1886 2035 1810 2048 1430
542 410 500 320 102 48 170 232 346 92 97 93 230 7 0 16 79 40 151 30 515 282 129 389 1194 920 929 1596 1756 1054 1128 1522 1341 1569 1216 1580 569 568 532 1260 1249 1437 1855 1232 1843 1663 1463 1270 1636
411 486 398 293 62 63 8 45 219 184 183 158 59 1 10 23 60 47 127 78 522 687 460 476 775 183 743 1690 1292 1834 1224 854 948 2252 2340 2704 1567 1931 1330 1385 1603 1680 1579 1838 1449 1521 1694 1070 1559
489 498 254 481 109 65 3 44 166 218 222 85 8 58 20 43 66 59 86 78 255 459 740 1097 1256 174 724 1331 935 1332 1385 850 908 1372 2049 1554 1391 1628 2030 1782 1856 1764 644 1846 1772 2218 1742 1587 1066
438 388 581 449 173 219 0 159 60 215 80 35 46 54 97 95 66 92 167 136 158 559 709 1343 1500 2352 1953 1518 3389 2012 741 869 1232 2001 2394 2338 1673 2949 2082 2555 2363 1082 1898 1330 1993 2811 2963 1848 693
531 485 741 741 700 463 64 164 185 168 311 52 63 84 198 124 61 102 67 113 143 655 937 1729 1459 1707 2663 2209 1859 1162 525 1403 1687 1349 2585 2453 2291 2746 3142 2580 2419 2495 2569 2275 1833 2351 2330 1139 835
75 349 410 896 682 508 256 159 80 98 410 126 85 115 89 98 30 49 37 73 438 586 1215 1535 774 1625 1800 2012 2481 2819 458 1774 1839 1642 2222 2328 2519 3047 3303 2412 1789 1985 3143 2678 2136 2214 1948 1410 837
55 56 107 273 834 684 254 50 157 136 449 163 177 101 84 63 78 24 39 87 285 804 1123 1282 1099 1401 2449 2505 2647 1830 1973 944 844 745 2126 3282 2799 2711 3244 2088 2765 3312 2713 1971 2504 1796 1796 1456 971
30 52 69 342 886 649 376 359 90 159 383 521 473 254 158 68 94 23 19 60 210 847 1172 1529 1380 1989 1089 2476 3016 1291 2279 882 1311 1435 2617 3036 2912 2543 2889 1430 3168 3772 1636 841 995 4176 2025 2481 1583
1 7 197 599 455 308 517 453 726 388 249 616 181 201 182 173 157 125 32 60 249 638 975 1623 1233 1660 1691 2642 2149 1220 2505 2179 1199 436 3265 3153 2724 3186 3151 3263 3365 1048 535 836 858 2883 3086 2567 1967
3 0 0 139 252 58 58 305 588 857 278 158 17 77 313 174 138 244 102 35 63 670 928 1759 2140 2215 1406 2262 2603 2343 1425 1811 1446 2567 3024 2658 2972 3087 3183 2754 2408 433 6 754 1190 244 1250 1262 2019
0 0 10 94 410 185 39 57 54 682 725 226 211 271 271 245 139 207 278 131 206 594 949 1494 2163 2153 2801 2488 1334 2240 2605 1732 595 2306 2333 2454 2352 2742 2439 3202 2924 1156 1214 2271 1539 69 1329 611 610
0 0 0 4 2 4 141 6 54 311 947 603 154 269 123 336 341 171 236 85 262 578 906 1394 2279 2321 2420 2527 2617 2047 2253 1622 2074 2698 3086 2608 1977 2758 2498 3075 2931 3485 2692 728 2862 2371 1385 959 541
0 0 0 0 0 0 122 181 20 270 413 614 533 347 523 331 85 212 32 280 220 541 780 1541 2210 2368 2414 2195 2334 2511 2527 2698 2091 679 3061 3076 3385 2668 1950 3067 2693 3344 3068 2826 2864 3144 3298 2735 1903
0 0 0 0 0 0 8 46 5 161 574 694 485 413 491 218 70 135 44 397 380 330 444 1365 2132 2189 2374 2269 2014 2829 2560 2290 384 1675 917 2449 2392 2241 2811 2886 3699 3592 3265 3356 2835 3651 3801 3921 3572
0 0 0 0 0 8 100 10 175 246 59 452 585 539 406 106 128 179 72 73 395 488 627 1167 1955 1764 2153 1977 2187 2000 2993 2217 2035 1890 1458 2163 2502 2452 2482 3132 3219 3239 3388 3429 3341 3602 3644 3284 3802
0 0 0 9 7 2 135 182 294 349 313 216 80 278 371 468 279 198 98 40 365 839 740 1133 1849 1954 1651 2002 2405 2721 2608 2401 2049 2520 2229 2237 2577 646 887 2616 3321 3005 3063 3313 3364 3135 2795 2443 2933
0 0 0 0 0 5 66 381 315 37 0 0 143 523 498 557 542 145 255 231 353 1083 1132 1150 1795 1973 2080 1613 2019 2326 2485 2250 1955 2216 2841 2416 3172 2142 2165 2572 2973 2967 3105 3054 3022 2784 2690 2707 2965
0 4 13 2 14 8 26 280 149 40 105 347 238 306 410 761 789 266 490 116 610 975 770 1314 1755 1783 1790 1576 1551 1470 1423 2240 2209 2267 2939 2788 2736 3002 2824 2660 2536 2737 2858 3084 3036 2613 2301 2539 2495
3 0 0 0 13 50 103 197 31 41 72 538 338 146 325 345 667 858 482 155 259 488 1258 1449 1547 1732 1649 1499 1860 1630 1572 1937 2174 1825 2489 2419 2156 2689 2471 2643 2984 2721 2763 2592 2547 2910 2538 2441 2242
0 4 30 12 13 69 110 71 98 157 34 551 162 163 377 246 173 456 241 161 133 326 906 1464 1459 1723 1535 1544 2175 1870 2130 2118 1628 2164 2427 2201 2071 2793 3045 3184 3167 2829 2408 2597 2564 2190 1957 2282 2351